Date StartTime U_cm/s V_cm/s W_cm/s Ustd_cm/s Vstd_cm/s Wstd_cm/s Uvar_(cm/s)^2 Vvar_(cm/s)^2 Wvar_(cm/s)^2 KE_(m/s)^2 TurbulentKE_(m/s)^2 HorizWindSpeed_cm/s FrictionSpeec_cm/s DragCoef SpeedOfSound_m/s SonicTemperature_C Pressure_mb 
07/02/2014  00:00:00      -37.107       16.084       -4.344       22.336       20.908       13.855      498.875      437.159      191.964        0.139        0.056       40.442       14.049        0.121      346.573       24.919      859.453
07/02/2014  00:01:00      -83.195       18.447      -14.518       25.406       17.837       12.506      645.462      318.159      156.397        0.430        0.056       85.216        6.511        0.006      346.628       25.013      859.444
07/02/2014  00:02:00      -43.856       59.743       -9.778       39.279       32.499       17.197     1542.812     1056.214      295.721        0.424        0.145       74.112       16.629        0.050      346.634       25.023      859.437
07/02/2014  00:03:00      -48.921       86.450      -14.436       38.760       29.876       18.104     1502.336      892.547      327.748        0.640        0.136       99.332       17.733        0.032      346.575       24.921      859.455
07/02/2014  00:04:00      -88.767      151.035      -23.659       59.816       79.582       30.637     3578.005     6333.273      938.623        2.105        0.542      175.189       37.967        0.047      346.613       24.984      859.473
07/02/2014  00:05:00       -6.166      136.327      -22.458       31.034       54.626       16.386      963.094     2983.975      268.491        1.167        0.211      136.466       16.069        0.014      346.761       25.239      859.477
07/02/2014  00:06:00      -43.315       55.695      -16.337       31.226       21.548       17.182      975.094      464.304      295.222        0.349        0.087       70.556       13.277        0.035      346.622       25.002      859.492
07/02/2014  00:07:00      -34.953       62.203      -20.317       26.849       25.833       13.620      720.862      667.360      185.497        0.354        0.079       71.350        8.349        0.014      346.599       24.964      859.520
07/02/2014  00:08:00        1.639       50.259       -8.780       31.137       22.890       14.898      969.522      523.946      221.955        0.216        0.086       50.286       16.912        0.113      346.578       24.927      859.538
07/02/2014  00:09:00       42.655       59.853       -5.512       33.728       31.427       18.010     1137.582      987.682      324.367        0.394        0.122       73.497       14.022        0.036      346.620       24.998      859.526
07/02/2014  00:10:00      -55.123       22.046       -5.947       25.874       19.882       13.925      669.455      395.293      193.907        0.241        0.063       59.368        7.926        0.018      346.388       24.600      859.552
07/02/2014  00:11:00      -32.220       26.809       -1.508       33.929       19.359       12.548     1151.145      374.775      157.448        0.172        0.084       41.915       15.073        0.129      346.220       24.310      859.571
07/02/2014  00:12:00       53.863       92.210       -1.054       47.223       25.168       12.402     2229.969      633.434      153.805        0.721        0.151      106.789       15.535        0.021      346.554       24.886      859.558
07/02/2014  00:13:00       72.853      144.041      -16.656       44.998       28.360       15.401     2024.816      804.296      237.192        1.470        0.153      161.417       18.365        0.013      346.830       25.360      859.519
07/02/2014  00:14:00      -27.208       80.950      -14.985       53.206       47.371       21.102     2830.908     2244.022      445.313        0.652        0.276       85.400       22.937        0.072      346.671       25.086      859.519
07/02/2014  00:15:00     -118.878       65.102      -28.922       39.128       39.107       18.633     1530.997     1529.389      347.181        1.131        0.170      135.537       17.261        0.016      346.156       24.200      859.547
07/02/2014  00:16:00      -85.727       69.468      -20.833       34.291       33.121       22.428     1175.886     1096.994      503.000        0.769        0.139      110.340       22.303        0.041      346.336       24.511      859.536
07/02/2014  00:17:00     -129.355       89.498      -28.405       54.811       50.177       29.948     3004.269     2517.689      896.872        1.598        0.321      157.298       33.583        0.046      346.211       24.293      859.546
07/02/2014  00:18:00     -162.386      126.124      -41.744       47.708       42.487       24.461     2276.060     1805.163      598.334        2.435        0.234      205.613       23.613        0.013      346.131       24.154      859.558
07/02/2014  00:19:00      -88.704       99.651      -23.215       41.757       36.698       19.330     1743.641     1346.757      373.658        1.090        0.173      133.412       20.463        0.024      346.262       24.383      859.554
07/02/2014  00:20:00      -41.547      117.712      -16.276       26.252       49.335       24.882      689.146     2433.910      619.132        0.979        0.187      124.829       23.362        0.035      346.227       24.323      859.532
07/02/2014  00:21:00      -55.532      158.438      -23.279       61.538       36.122       24.415     3786.903     1304.824      596.110        1.721        0.284      167.888       25.218        0.023      346.229       24.324      859.525
07/02/2014  00:22:00      -38.269      194.979      -28.482       48.844       56.420       27.997     2385.739     3183.244      783.830        2.332        0.318      198.699       26.121        0.017      346.232       24.328      859.512
07/02/2014  00:23:00       25.531      110.772      -22.309       55.273       68.345       29.541     3055.107     4671.088      872.679        1.101        0.430      113.677       17.496        0.024      346.145       24.182      859.478
07/02/2014  00:24:00     -127.196      -53.865      -12.078       62.996       57.908       38.728     3968.507     3353.314     1499.826        1.402        0.441      138.131       29.002        0.044      346.100       24.103      859.475
07/02/2014  00:25:00     -156.683      -11.792       -5.855       56.625       52.870       27.068     3206.394     2795.217      732.692        1.573        0.337      157.126       27.800        0.031      346.107       24.116      859.515
07/02/2014  00:26:00      -36.265        7.831        2.168       58.477       52.614       27.894     3419.576     2768.197      778.076        0.417        0.348       37.101       18.187        0.240      346.076       24.063      859.514
07/02/2014  00:27:00      -69.832       36.498      -13.902       40.023       56.263       18.500     1601.872     3165.545      342.260        0.575        0.255       78.795       14.509        0.034      346.062       24.040      859.505
07/02/2014  00:28:00     -120.303       65.904      -27.751       52.373       29.313       21.250     2742.952      859.255      451.547        1.182        0.203      137.172       20.746        0.023      346.162       24.208      859.514
07/02/2014  00:29:00      -85.321       55.543       -9.015       40.604       31.646       22.229     1648.681     1001.451      494.138        0.679        0.157      101.808       16.543        0.026      346.015       23.958      859.513
07/02/2014  00:30:00      -99.983       17.845       -1.579       51.833       39.216       32.166     2686.643     1537.929     1034.658        0.779        0.263      101.563       25.106        0.061      345.976       23.894      859.520
07/02/2014  00:31:00     -180.354       28.609      -21.585       51.308       52.418       23.863     2632.470     2747.697      569.440        1.988        0.297      182.609       14.852        0.007      345.779       23.553      859.521
07/02/2014  00:32:00     -107.480      -49.816      -19.740       28.565       30.039       25.201      815.971      902.318      635.086        0.839        0.118      118.463       19.323        0.027      345.782       23.559      859.522
07/02/2014  00:33:00      -71.694       33.405       -9.829       34.230       39.061       21.687     1171.685     1525.723      470.347        0.476        0.158       79.094       21.265        0.072      345.833       23.647      859.516
07/02/2014  00:34:00      -54.192       16.575       -7.630       43.551       45.263       21.144     1896.717     2048.772      447.081        0.383        0.220       56.670       14.227        0.063      345.861       23.695      859.516
07/02/2014  00:35:00      -46.230       18.267       -8.872       31.756       60.284       22.745     1008.463     3634.158      517.341        0.385        0.258       49.708       15.037        0.092      345.811       23.609      859.515
07/02/2014  00:36:00      -96.626       -2.818       -8.441       43.486       31.473       19.023     1891.002      990.548      361.866        0.633        0.162       96.667       16.902        0.031      345.921       23.797      859.507
07/02/2014  00:37:00      -81.717        6.096       -4.783       39.622       34.252       25.113     1569.865     1173.215      630.656        0.506        0.169       81.944       20.971        0.065      345.944       23.838      859.506
07/02/2014  00:38:00      -78.916        9.139       -6.873       40.932       41.692       26.539     1675.468     1738.232      704.298        0.524        0.206       79.443       19.201        0.058      345.979       23.897      859.502
07/02/2014  00:39:00     -146.022       -3.587      -13.439       53.608       53.368       29.636     2873.858     2848.184      878.291        1.406        0.330      146.066       29.690        0.041      346.148       24.188      859.499
07/02/2014  00:40:00      -87.773      -13.799       -4.844       51.771       52.946       30.646     2680.193     2803.306      939.177        0.717        0.321       88.851       26.896        0.092      346.046       24.011      859.494
07/02/2014  00:41:00     -129.719       25.614      -22.275       38.343       57.100       36.960     1470.215     3260.362     1366.007        1.204        0.305      132.224       29.065        0.048      346.030       23.984      859.492
07/02/2014  00:42:00      -41.489      -16.442       -1.040       34.743       32.341       26.779     1207.069     1045.937      717.140        0.248        0.149       44.628       18.688        0.175      345.989       23.915      859.512
07/02/2014  00:43:00      -60.768      -54.398      -11.289       44.779       39.726       28.218     2005.191     1578.190      796.261        0.558        0.219       81.560       18.808        0.053      346.160       24.210      859.525
07/02/2014  00:44:00        3.453      -83.057       -8.334       34.068       43.402       25.212     1160.641     1883.714      635.632        0.533        0.184       83.129       21.226        0.065      346.026       23.977      859.548
07/02/2014  00:45:00      -23.314      -76.206       -6.866       47.514       47.243       27.527     2257.536     2231.945      757.715        0.582        0.262       79.692       24.659        0.096      345.861       23.695      859.587
07/02/2014  00:46:00        9.706      -38.816        2.971       23.318       35.628       23.609      543.749     1269.369      557.390        0.199        0.119       40.011        9.758        0.059      345.779       23.554      859.601
07/02/2014  00:47:00      -45.007      -33.927       -0.623       37.865       35.866       17.153     1433.778     1286.364      294.240        0.310        0.151       56.362       18.789        0.111      345.761       23.522      859.608
07/02/2014  00:48:00      -32.276      -75.856       -7.667       33.854       35.803       26.198     1146.084     1281.874      686.338        0.498        0.156       82.437       16.157        0.038      345.810       23.605      859.624
07/02/2014  00:49:00       -2.147      -33.807       12.673       37.710       32.889       19.987     1422.052     1081.675      399.470        0.211        0.145       33.875       13.808        0.166      345.772       23.542      859.639
07/02/2014  00:50:00       -4.676      -17.975       11.733       31.048       19.601       13.577      963.958      384.204      184.324        0.101        0.077       18.573       12.308        0.439      345.696       23.412      859.646
07/02/2014  00:51:00      -22.880       17.842        6.040       24.376       17.373       12.585      594.203      301.821      158.378        0.097        0.053       29.014        7.810        0.072      345.711       23.438      859.650
07/02/2014  00:52:00      -31.695       -5.525        7.803       23.474       23.693       10.380      551.030      561.370      107.736        0.116        0.061       32.173       11.128        0.120      345.622       23.283      859.655
07/02/2014  00:53:00      -44.706      -20.778       -3.641       10.308       13.163        5.779      106.253      173.259       33.393        0.138        0.016       49.298        3.701        0.006      345.823       23.629      859.650
07/02/2014  00:54:00      -30.886        5.232       -2.299       11.575        9.558        8.860      133.975       91.354       78.499        0.065        0.015       31.326        4.566        0.021      345.779       23.551      859.650
07/02/2014  00:55:00      -54.877        9.163       -3.364       14.027       17.066        7.283      196.762      291.251       53.037        0.182        0.027       55.637        6.212        0.012      345.682       23.385      859.674
07/02/2014  00:56:00      -69.306      -22.901       -5.853        8.590       12.703        5.364       73.793      161.359       28.777        0.281        0.013       72.991        3.374        0.002      345.609       23.262      859.679
07/02/2014  00:57:00      -59.785      -33.614       -4.298       10.904        9.039        8.349      118.892       81.706       69.701        0.250        0.014       68.587        3.852        0.003      345.673       23.373      859.680
07/02/2014  00:58:00      -39.419      -37.181       -1.428       17.177       14.499        9.426      295.066      210.214       88.853        0.177        0.030       54.188        7.694        0.020      345.608       23.261      859.674
07/02/2014  00:59:00      -58.566      -32.780       -5.793       23.115       16.621       11.368      534.289      276.254      129.224        0.274        0.047       67.116        8.178        0.015      345.602       23.249      859.676
07/02/2014  01:00:00      -72.695      -40.995        1.192       28.913       23.009       14.919      835.943      529.411      222.562        0.428        0.079       83.458        5.956        0.005      345.668       23.362      859.686
07/02/2014  01:01:00     -107.001        2.255       -6.666       33.255       33.848       17.429     1105.863     1145.675      303.773        0.703        0.128      107.024       15.831        0.022      345.389       22.884      859.681
07/02/2014  01:02:00      -71.122       23.789       -4.184       24.706       15.405       13.231      610.408      237.313      175.059        0.333        0.051       74.995       10.821        0.021      345.349       22.816      859.676
07/02/2014  01:03:00     -107.044      -21.805       -8.188       26.954       30.452       15.464      726.534      927.296      239.141        0.695        0.095      109.243       12.724        0.014      345.347       22.811      859.674
07/02/2014  01:04:00      -90.475       18.877       -0.751       40.562       32.353       18.322     1645.251     1046.748      335.711        0.578        0.151       92.424       16.530        0.032      345.258       22.661      859.667
07/02/2014  01:05:00     -137.359       37.806      -10.796       41.200       26.635       18.066     1697.449      709.431      326.396        1.157        0.137      142.467        8.443        0.004      345.570       23.195      859.665
07/02/2014  01:06:00     -144.410       11.757      -13.627       22.099       28.190       14.264      488.386      794.648      203.468        1.133        0.074      144.887        9.688        0.004      345.589       23.228      859.664
07/02/2014  01:07:00     -122.234      -14.121      -14.034       49.065       52.451       21.328     2407.380     2751.080      454.874        1.047        0.281      123.047       23.476        0.036      345.361       22.837      859.656
07/02/2014  01:08:00     -174.879      -11.812       -5.694       58.153       36.975       25.627     3381.777     1367.126      656.765        1.808        0.270      175.278       25.784        0.022      345.398       22.898      859.643
07/02/2014  01:09:00     -164.346      -32.794       -9.087       40.865       42.384       19.752     1669.911     1796.412      390.160        1.601        0.193      167.586       19.888        0.014      345.347       22.812      859.630
07/02/2014  01:10:00     -105.245      -16.732       -2.963       50.142       33.391       22.515     2514.219     1114.940      506.928        0.775        0.207      106.567       22.000        0.043      345.300       22.731      859.622
07/02/2014  01:11:00     -132.460       12.060       -9.185       50.079       26.688       21.300     2507.930      712.266      453.672        1.072        0.184      133.008       27.528        0.043      345.240       22.628      859.618
07/02/2014  01:12:00     -162.905       -9.715      -11.821       42.161       44.075       20.621     1777.525     1942.609      425.217        1.546        0.207      163.195       17.198        0.011      345.193       22.547      859.611
07/02/2014  01:13:00     -131.470       34.627      -10.805       52.025       37.454       21.925     2706.613     1402.765      480.702        1.159        0.230      135.954       18.344        0.018      345.055       22.314      859.611
07/02/2014  01:14:00     -127.032        6.209       -8.100       79.484       45.421       27.925     6317.675     2063.029      779.782        1.270        0.458      127.183       31.175        0.060      345.016       22.246      859.605
07/02/2014  01:15:00     -154.018       47.037      -17.302       52.626       45.958       35.562     2769.493     2112.175     1264.678        1.619        0.307      161.040       34.126        0.045      344.983       22.190      859.595
07/02/2014  01:16:00     -213.633       66.367      -13.980       53.173       41.779       34.076     2827.402     1745.473     1161.187        2.799        0.287      223.705       21.517        0.009      345.001       22.216      859.585
07/02/2014  01:17:00     -158.375        6.735      -18.208       46.018       45.356       24.885     2117.672     2057.127      619.265        1.513        0.240      158.518       16.711        0.011      344.924       22.088      859.580
07/02/2014  01:18:00     -173.401       10.440      -16.372       33.563       45.049       30.188     1126.458     2029.441      911.338        1.726        0.203      173.715       20.541        0.014      344.935       22.107      859.580
07/02/2014  01:19:00     -168.029       -3.187      -14.465       41.963       64.410       25.640     1760.903     4148.621      657.414        1.751        0.328      168.060       19.514        0.013      344.936       22.108      859.574
07/02/2014  01:20:00     -113.486      -13.817      -12.326       57.597       45.441       29.719     3317.386     2064.842      883.244        0.974        0.313      114.324       30.029        0.069      344.975       22.175      859.560
07/02/2014  01:21:00     -129.020      -31.983      -10.253       41.528       31.458       25.338     1724.580      989.580      642.027        1.056        0.168      132.925       21.655        0.027      344.963       22.154      859.568
07/02/2014  01:22:00     -188.003       -8.755      -25.830       51.952       34.191       25.041     2699.038     1169.041      627.043        2.029        0.225      188.207       24.593        0.017      345.039       22.283      859.568
07/02/2014  01:23:00     -144.885      -32.983      -20.020       39.698       41.387       22.062     1575.933     1712.875      486.728        1.313        0.189      148.592       14.245        0.009      345.000       22.219      859.553
07/02/2014  01:24:00     -101.725      -37.331        7.422       46.532       41.471       26.285     2165.220     1719.805      690.889        0.819        0.229      108.359       23.123        0.046      345.001       22.220      859.553
07/02/2014  01:25:00     -112.909      -70.910       -6.879       34.268       37.791       23.152     1174.280     1428.131      536.038        1.048        0.157      133.329       18.326        0.019      345.128       22.438      859.543
07/02/2014  01:26:00     -122.607      -45.598       -0.307       46.644       38.407       20.131     2175.667     1475.092      405.248        1.058        0.203      130.811       17.829        0.019      345.250       22.645      859.550
07/02/2014  01:27:00     -147.174        7.502      -16.325       26.807       31.653       15.150      718.635     1001.933      229.520        1.197        0.098      147.365       13.780        0.009      345.021       22.255      859.550
07/02/2014  01:28:00     -150.279      -22.546        3.214       59.760       43.172       33.202     3571.292     1863.852     1102.378        1.482        0.327      151.961       28.764        0.036      345.175       22.516      859.539
07/02/2014  01:29:00     -209.265      -27.865      -26.625       54.579       54.581       28.457     2978.916     2979.053      809.777        2.602        0.338      211.112       24.201        0.013      345.290       22.712      859.550
07/02/2014  01:30:00     -191.055      -68.264       -8.255       59.941       58.369       32.221     3592.875     3406.973     1038.221        2.463        0.402      202.884       24.326        0.014      345.399       22.899      859.556
07/02/2014  01:31:00      -94.206      -53.873        5.354       60.553       40.784       27.610     3666.637     1663.294      762.312        0.895        0.305      108.522       28.919        0.071      345.377       22.863      859.557
07/02/2014  01:32:00      -78.430      -74.013       -2.666       59.484       46.260       36.349     3538.314     2139.954     1321.274        0.932        0.350      107.839       40.854        0.144      345.357       22.829      859.560
07/02/2014  01:33:00      -64.659      -68.553       12.262       82.082       51.699       42.772     6737.530     2672.804     1829.405        1.013        0.562       94.236       45.425        0.232      345.514       23.098      859.571
07/02/2014  01:34:00      -92.625      -55.321        7.442       79.040       45.550       35.733     6247.332     2074.814     1276.846        1.065        0.480      107.888       40.115        0.138      345.471       23.025      859.584
07/02/2014  01:35:00     -105.332      -71.667       -0.624       46.561       37.523       28.741     2167.965     1407.979      826.054        1.032        0.220      127.401       28.535        0.050      345.386       22.879      859.591
07/02/2014  01:36:00     -125.910      -48.632       -5.715       37.805       40.475       22.367     1429.249     1638.265      500.279        1.091        0.178      134.976       17.650        0.017      345.297       22.727      859.577
07/02/2014  01:37:00      -57.843      -14.296        1.961       30.862       25.680       15.610      952.487      659.454      243.679        0.270        0.093       59.584       16.065        0.073      345.278       22.694      859.569
07/02/2014  01:38:00      -87.767      -17.915       -3.042       26.219       23.730       15.356      687.431      563.098      235.810        0.476        0.074       89.577       13.942        0.024      345.369       22.850      859.560
07/02/2014  01:39:00      -72.940      -10.936       -1.140       33.724       24.941       14.753     1137.302      622.062      217.641        0.371        0.099       73.755       13.787        0.035      345.322       22.769      859.550
07/02/2014  01:40:00      -90.221      -22.063        8.535       42.193       31.534       23.041     1780.225      994.423      530.896        0.600        0.165       92.879       23.070        0.062      345.198       22.557      859.542
07/02/2014  01:41:00      -98.122      -29.191        2.199       32.616       23.273       14.000     1063.780      541.655      195.997        0.614        0.090      102.372       12.906        0.016      345.223       22.600      859.532
07/02/2014  01:42:00     -130.743      -60.126       -7.659       16.114       13.870        9.977      259.655      192.381       99.535        1.066        0.028      143.906        5.616        0.002      345.312       22.751      859.522
07/02/2014  01:43:00     -114.751      -24.507       -3.203       36.242       22.219       18.373     1313.473      493.698      337.561        0.796        0.107      117.339       21.818        0.035      345.116       22.417      859.515
07/02/2014  01:44:00     -108.008      -37.005       -5.822       27.285       22.113       16.315      744.450      488.991      266.192        0.728        0.075      114.171        9.924        0.008      345.045       22.295      859.506
07/02/2014  01:45:00      -99.538      -33.116       -2.107       25.364       29.386       19.511      643.313      863.545      380.679        0.645        0.094      104.903       16.516        0.025      344.872       22.000      859.500
07/02/2014  01:46:00     -108.282      -16.910       -8.287       20.452       30.787       11.900      418.301      947.865      141.605        0.679        0.075      109.595        9.073        0.007      344.810       21.893      859.511
07/02/2014  01:47:00      -97.091      -19.033      -10.636       24.101       17.531       13.585      580.836      307.352      184.552        0.549        0.054       98.939       13.460        0.019      344.653       21.623      859.517
07/02/2014  01:48:00     -101.407       -7.819      -13.893       17.994       28.748       11.562      323.798      826.424      133.690        0.591        0.064      101.708       10.435        0.011      344.700       21.705      859.513
07/02/2014  01:49:00      -86.042        2.189       -6.186       25.291       23.838       18.937      639.617      568.250      358.611        0.451        0.078       86.069       13.942        0.026      344.806       21.887      859.512
07/02/2014  01:50:00      -76.233      -12.857       -8.567       13.415       20.897       11.327      179.949      436.688      128.294        0.340        0.037       77.310        2.518        0.001      344.739       21.772      859.508
07/02/2014  01:51:00      -95.568      -18.228       -7.473       25.802       23.592       15.819      665.760      556.579      250.231        0.550        0.074       97.291       15.050        0.024      344.730       21.757      859.509
07/02/2014  01:52:00     -130.881      -20.326      -13.432       32.442       27.776       23.294     1052.452      771.498      542.601        1.004        0.118      132.450       23.297        0.031      344.819       21.909      859.507
07/02/2014  01:53:00     -130.646      -36.156      -11.673       26.046       21.049       18.285      678.415      443.079      334.333        0.998        0.073      135.557       10.863        0.006      344.677       21.666      859.504
07/02/2014  01:54:00     -108.025      -19.468       -5.367       44.481       24.711       20.914     1978.581      610.658      437.376        0.755        0.151      109.765       17.872        0.027      344.625       21.576      859.488
07/02/2014  01:55:00     -106.906      -13.932       -6.974       40.880       20.532       22.715     1671.156      421.561      515.951        0.714        0.130      107.810       24.771        0.053      344.735       21.765      859.498
07/02/2014  01:56:00      -80.592        0.623       -0.991       41.006       32.199       18.102     1681.525     1036.770      327.666        0.477        0.152       80.595       23.717        0.087      344.652       21.623      859.503
07/02/2014  01:57:00      -82.700      -10.269       -7.847       35.578       18.208       14.815     1265.820      331.539      219.472        0.441        0.091       83.336       12.350        0.022      344.678       21.666      859.505
07/02/2014  01:58:00      -90.508      -17.703       -7.684       32.079       21.238       17.623     1029.082      451.060      310.556        0.518        0.090       92.223       17.910        0.038      344.724       21.746      859.507
07/02/2014  01:59:00     -109.305      -13.632      -11.500       25.366       27.029       16.278      643.439      730.567      264.963        0.695        0.082      110.151       11.304        0.011      344.754       21.796      859.517
07/02/2014  02:00:00      -71.640      -24.585       -9.902       22.732       33.540       13.576      516.755     1124.906      184.315        0.383        0.091       75.741       15.466        0.042      344.755       21.800      859.525
07/02/2014  02:01:00      -59.825      -23.184       -0.871       21.929       21.675       12.984      480.900      469.822      168.593        0.262        0.056       64.160       13.100        0.042      344.659       21.634      859.528
07/02/2014  02:02:00      -72.301      -47.429       -2.724       20.354       23.748       15.332      414.283      563.955      235.062        0.435        0.061       86.470        7.992        0.009      344.688       21.685      859.532
07/02/2014  02:03:00      -66.674      -48.726       -1.765       19.378       15.226       12.313      375.519      231.836      151.607        0.379        0.038       82.581        9.622        0.014      344.614       21.559      859.546
07/02/2014  02:04:00      -79.256      -36.505       -9.177       15.166       13.588       12.979      230.011      184.632      168.450        0.414        0.029       87.259       11.500        0.017      344.682       21.672      859.555
07/02/2014  02:05:00      -70.811      -34.857      -10.302       11.238       10.004        9.393      126.296      100.088       88.233        0.332        0.016       78.925        7.691        0.009      344.661       21.637      859.552
07/02/2014  02:06:00      -67.717      -39.361      -10.027       12.913       12.737       14.146      166.751      162.227      200.109        0.338        0.026       78.325       10.183        0.017      344.627       21.581      859.546
07/02/2014  02:07:00      -82.130      -33.450       -9.010       11.111       11.483        8.000      123.462      131.862       64.004        0.413        0.016       88.680        2.734        0.001      344.730       21.754      859.539
07/02/2014  02:08:00      -86.025      -20.342       -3.223       15.463       11.801        9.602      239.102      139.256       92.204        0.415        0.024       88.398        9.294        0.011      344.720       21.739      859.537
07/02/2014  02:09:00      -14.702      -28.263        0.072       33.035       13.967        8.422     1091.331      195.064       70.936        0.119        0.068       31.858        8.334        0.068      344.640       21.602      859.529
07/02/2014  02:10:00      -15.539      -31.726       -2.769       20.109        9.605       10.571      404.374       92.249      111.754        0.093        0.030       35.327        5.504        0.024      344.737       21.767      859.510
07/02/2014  02:11:00       -2.870      -31.866       -0.992       14.528       13.932       11.072      211.050      194.094      122.585        0.078        0.026       31.995        8.520        0.071      344.653       21.624      859.501
07/02/2014  02:12:00      -17.980      -25.995       -8.122       15.112       22.952       10.037      228.371      526.796      100.737        0.096        0.043       31.607        9.231        0.085      344.511       21.381      859.494
07/02/2014  02:13:00      -53.596      -19.631        0.580       11.173       10.454        5.163      124.846      109.282       26.655        0.176        0.013       57.078        2.631        0.002      344.500       21.363      859.492
07/02/2014  02:14:00      -55.456      -31.072        1.668       23.064       15.256        9.187      531.935      232.734       84.402        0.245        0.042       63.568        5.372        0.007      344.353       21.112      859.491
07/02/2014  02:15:00      -22.726      -37.497        5.008       27.467       16.795       14.434      754.414      282.056      208.331        0.160        0.062       43.846       10.637        0.059      344.258       20.948      859.482
07/02/2014  02:16:00       -3.551      -30.544        4.208       17.514       16.722       14.379      306.724      279.611      206.741        0.088        0.040       30.750       10.041        0.107      344.244       20.927      859.483
07/02/2014  02:17:00      -30.562      -48.456       -2.520       21.340       12.441       10.098      455.405      154.789      101.977        0.200        0.036       57.289        6.308        0.012      344.342       21.093      859.486
07/02/2014  02:18:00      -25.616      -53.228       -2.159       18.201       19.387       14.446      331.274      375.862      208.688        0.220        0.046       59.071        9.519        0.026      344.370       21.140      859.485
07/02/2014  02:19:00      -24.759     -100.824       -6.348       12.149       14.633       10.523      147.592      214.139      110.726        0.565        0.024      103.819        6.698        0.004      344.636       21.594      859.485
07/02/2014  02:20:00       -5.604      -94.884       -3.832       26.188       17.827       11.300      685.791      317.792      127.686        0.509        0.057       95.050        6.102        0.004      344.714       21.727      859.477
07/02/2014  02:21:00      -20.527     -124.569       -3.743       19.074       32.104       15.171      363.807     1030.685      230.163        0.879        0.081      126.249       12.416        0.010      344.806       21.885      859.473
07/02/2014  02:22:00      -39.765      -46.879       -4.401       24.309       30.279       16.051      590.922      916.834      257.626        0.278        0.088       61.472        8.171        0.018      344.596       21.528      859.476
07/02/2014  02:23:00      -78.928      -29.704       -6.048       18.857       17.841       14.335      355.594      318.291      205.490        0.401        0.044       84.333       10.375        0.015      344.396       21.184      859.464
07/02/2014  02:24:00      -22.231      -27.602        7.117       26.572       18.238       16.851      706.069      332.640      283.958        0.131        0.066       35.442        4.182        0.014      344.309       21.038      859.457
07/02/2014  02:25:00      -25.182      -67.656       -1.949       22.821       12.427       14.351      520.807      154.425      205.947        0.305        0.044       72.190        6.754        0.009      344.422       21.230      859.446
07/02/2014  02:26:00      -38.436      -48.426       -4.502       20.453       15.417        9.583      418.332      237.695       91.827        0.230        0.037       61.826       10.685        0.030      344.522       21.400      859.449
07/02/2014  02:27:00      -42.157      -43.170       -2.622       18.829       17.976       12.029      354.521      323.143      144.704        0.223        0.041       60.340        8.331        0.019      344.448       21.275      859.459
07/02/2014  02:28:00       -4.006      -56.797       -3.933       13.087       19.859       12.457      171.277      394.375      155.188        0.199        0.036       56.938       12.146        0.046      344.557       21.459      859.457
07/02/2014  02:29:00      -24.626      -49.901      -10.914       28.282       26.592       22.193      799.858      707.118      492.538        0.261        0.100       55.647       20.989        0.142      344.657       21.633      859.471
07/02/2014  02:30:00      -56.560      -40.389        7.783       42.922       32.363       23.391     1842.281     1047.337      547.136        0.416        0.172       69.500       23.242        0.112      344.425       21.233      859.507
07/02/2014  02:31:00      -75.789      -76.752        1.771       38.007       30.297       24.897     1444.513      917.928      619.866        0.731        0.149      107.865       21.135        0.038      344.349       21.104      859.511
07/02/2014  02:32:00      -60.947      -76.717       -2.434       32.145       26.965       16.739     1033.270      727.120      280.205        0.582        0.102       97.980       21.076        0.046      344.554       21.455      859.512
07/02/2014  02:33:00      -29.439      -12.432       -2.231       19.060       14.067       14.306      363.273      197.894      204.662        0.090        0.038       31.957        9.828        0.095      344.490       21.345      859.502
07/02/2014  02:34:00      -22.727       -5.291       -2.437       12.412       10.568        7.324      154.047      111.677       53.638        0.043        0.016       23.335        5.753        0.061      344.478       21.325      859.505
07/02/2014  02:35:00      -10.858       -6.134       -3.591        8.922        6.798        5.610       79.597       46.215       31.472        0.016        0.008       12.471        3.473        0.078      344.514       21.389      859.506
07/02/2014  02:36:00      -14.188      -30.323      -10.491       13.273       12.964        9.089      176.162      168.071       82.614        0.083        0.021       33.478        5.459        0.027      344.757       21.801      859.503
07/02/2014  02:37:00      -26.578      -32.002      -12.281        8.568       15.694        9.529       73.412      246.304       90.807        0.115        0.021       41.600        7.583        0.033      344.759       21.804      859.499
07/02/2014  02:38:00      -30.985      -26.986       -5.988        5.061        6.675        5.696       25.612       44.560       32.449        0.091        0.005       41.089        4.000        0.009      344.671       21.656      859.500
07/02/2014  02:39:00      -24.323       -4.348       -2.065        6.240        8.605        2.996       38.935       74.040        8.977        0.037        0.006       24.708        2.290        0.009      344.564       21.472      859.499
07/02/2014  02:40:00       -4.749       -9.334       -3.228        4.380        9.773        3.176       19.182       95.509       10.086        0.012        0.006       10.473        0.467        0.002      344.554       21.455      859.502
07/02/2014  02:41:00      -20.187      -13.126       -5.929       15.257       13.338        9.011      232.773      177.907       81.203        0.055        0.025       24.080        7.679        0.102      344.631       21.587      859.498
07/02/2014  02:42:00      -50.920       10.937       -7.353        7.309       16.601        6.613       53.417      275.601       43.736        0.157        0.019       52.081        7.217        0.019      344.453       21.282      859.492
07/02/2014  02:43:00      -42.988      -33.487       -8.373       18.334        8.553        7.691      336.122       73.157       59.153        0.175        0.023       54.492        3.139        0.003      344.353       21.113      859.487
07/02/2014  02:44:00      -58.625      -16.942       -6.045       33.596       20.301       14.569     1128.719      412.132      212.245        0.276        0.088       61.024       12.035        0.039      344.088       20.658      859.492
07/02/2014  02:45:00      -57.415      -15.236      -20.657       13.945       16.937       10.427      194.455      286.852      108.724        0.227        0.030       59.402        8.751        0.022      344.154       20.771      859.495
07/02/2014  02:46:00      -53.173      -31.169       -9.137        8.430       12.467        8.187       71.064      155.434       67.020        0.209        0.015       61.635        4.169        0.005      344.191       20.832      859.496
07/02/2014  02:47:00      -57.446      -26.850       -8.797       15.406       13.037        8.208      237.333      169.971       67.372        0.229        0.024       63.411        2.404        0.001      344.290       21.004      859.489
07/02/2014  02:48:00      -95.753      -19.433      -17.368       16.049       13.433        9.668      257.564      180.454       93.466        0.519        0.027       97.705        6.450        0.004      344.074       20.633      859.490
07/02/2014  02:49:00     -103.745      -19.424      -17.322       16.987        8.880        6.184      288.568       78.856       38.243        0.592        0.020      105.548        3.236        0.001      344.075       20.638      859.495
07/02/2014  02:50:00      -90.308       -5.440       -9.588       12.349       13.978        6.533      152.490      195.398       42.681        0.433        0.020       90.472        3.347        0.001      344.202       20.854      859.495
07/02/2014  02:51:00      -72.401       -1.056      -10.263       10.695       10.003        6.636      114.393      100.061       44.042        0.280        0.013       72.409        4.463        0.004      344.135       20.740      859.487
07/02/2014  02:52:00      -46.789      -10.371      -12.724        8.223        6.523        4.057       67.615       42.550       16.462        0.129        0.006       47.925        4.346        0.008      344.415       21.218      859.479
07/02/2014  02:53:00      -20.023       10.467       -4.782       12.721       13.917        3.245      161.824      193.693       10.527        0.045        0.018       22.594        5.651        0.063      344.738       21.769      859.472
07/02/2014  02:54:00       36.595       48.262       -2.628       19.209        6.862        7.387      368.997       47.088       54.574        0.207        0.024       60.568        5.458        0.008      344.996       22.212      859.467
07/02/2014  02:55:00       55.271       38.615        7.639       11.674       10.075       16.583      136.271      101.505      275.012        0.256        0.026       67.424        6.960        0.011      344.526       21.409      859.467
07/02/2014  02:56:00       42.140       24.191       12.673       18.379       14.851       23.054      337.778      220.567      531.503        0.181        0.054       48.590       15.733        0.105      344.079       20.644      859.460
07/02/2014  02:57:00        8.878       18.865       18.728       14.018       11.308       10.050      196.510      127.870      100.994        0.061        0.021       20.850        5.610        0.072      343.772       20.120      859.463
07/02/2014  02:58:00       23.034       16.109       14.775       12.461        9.981       15.372      155.288       99.617      236.286        0.075        0.025       28.108       10.774        0.147      343.652       19.913      859.479
07/02/2014  02:59:00       -3.021       -5.842       -6.677        4.236        6.341        3.324       17.943       40.203       11.049        0.008        0.003        6.577        3.210        0.238      343.779       20.130      859.472
07/02/2014  03:00:00      -29.256       -9.808       -1.621       21.834        8.009        8.823      476.739       64.137       77.842        0.079        0.031       30.856       11.996        0.151      344.055       20.600      859.470
07/02/2014  03:01:00      -77.279       -3.861      -10.817        6.785        7.380        6.106       46.040       54.469       37.277        0.312        0.007       77.375        3.457        0.002      343.951       20.424      859.465
07/02/2014  03:02:00      -67.662       -9.453        0.038       28.763       14.364       14.576      827.306      206.329      212.458        0.296        0.062       68.320       14.852        0.047      343.649       19.908      859.464
07/02/2014  03:03:00      -17.228      -20.114       -5.727       15.851        9.067        7.226      251.241       82.207       52.222        0.056        0.019       26.484        7.593        0.082      343.661       19.928      859.467
07/02/2014  03:04:00        3.277      -46.933      -13.746       14.145       11.179        8.957      200.091      124.973       80.225        0.140        0.020       47.047        5.695        0.015      343.977       20.470      859.460
07/02/2014  03:05:00       -0.582      -25.346        1.744       12.608        7.750        6.793      158.969       60.067       46.141        0.046        0.013       25.353        3.481        0.019      344.323       21.061      859.466
07/02/2014  03:06:00      -45.692      -14.471       -6.715       14.191       11.073        6.773      201.374      122.612       45.872        0.136        0.018       47.929        3.520        0.005      344.042       20.580      859.478
07/02/2014  03:07:00      -64.626      -10.163      -11.049        6.685        7.762        6.190       44.683       60.253       38.311        0.227        0.007       65.420        4.118        0.004      343.886       20.314      859.487
07/02/2014  03:08:00      -57.756      -25.669       -5.905       10.489        7.627        6.126      110.009       58.167       37.531        0.212        0.010       63.203        3.377        0.003      344.346       21.100      859.481
07/02/2014  03:09:00      -12.348      -30.023       -1.802       16.652       16.249       11.024      277.287      264.038      121.536        0.086        0.033       32.463       10.315        0.101      344.750       21.788      859.476
07/02/2014  03:10:00      -19.247      -30.013      -11.046       20.319       12.798       10.112      412.879      163.794      102.255        0.104        0.034       35.654       11.752        0.109      344.741       21.775      859.478
07/02/2014  03:11:00      -67.940       -7.023       -6.446       10.746        8.487        5.340      115.485       72.024       28.518        0.246        0.011       68.302        6.985        0.010      344.108       20.694      859.477
07/02/2014  03:12:00      -75.187       -1.592      -11.276        6.195        6.134        4.564       38.378       37.621       20.827        0.294        0.005       75.204        2.090        0.001      344.111       20.698      859.470
07/02/2014  03:13:00      -21.572       12.412       -4.430       24.847        7.922        8.144      617.352       62.754       66.318        0.069        0.037       24.888       13.198        0.281      344.689       21.687      859.463
07/02/2014  03:14:00       23.405       14.185        3.791       15.625       13.000       10.440      244.152      169.009      108.990        0.064        0.026       27.368        8.538        0.097      344.680       21.671      859.458
07/02/2014  03:15:00       17.849      -16.317      -10.098       19.006       19.860        8.664      361.219      394.400       75.057        0.076        0.042       24.184        8.769        0.131      344.400       21.192      859.461
07/02/2014  03:16:00      -72.740      -35.431       -5.230       36.673       31.589       19.421     1344.883      997.850      377.191        0.465        0.136       80.910       14.693        0.033      343.924       20.378      859.463
07/02/2014  03:17:00     -139.589      -45.870       -9.470       28.236       34.436       18.738      797.261     1185.857      351.128        1.201        0.117      146.933       12.258        0.007      343.555       19.749      859.473
07/02/2014  03:18:00     -123.629      -35.786       -8.593       24.682       21.342       17.847      609.197      455.461      318.515        0.901        0.069      128.704       12.480        0.009      343.449       19.569      859.498
07/02/2014  03:19:00     -118.969      -47.383       -6.914       18.328       12.938       11.688      335.929      167.400      136.614        0.854        0.032      128.058        8.061        0.004      343.598       19.822      859.506
07/02/2014  03:20:00      -89.902      -20.899       -7.978       20.064       17.692        9.876      402.564      312.992       97.542        0.470        0.041       92.299        6.073        0.004      343.640       19.894      859.512
07/02/2014  03:21:00      -81.507      -22.770       -7.714       11.095       13.410        7.582      123.100      179.826       57.494        0.379        0.018       84.628        2.723        0.001      343.901       20.339      859.513
07/02/2014  03:22:00      -81.193      -23.728       -6.319       15.817       15.803       12.907      250.173      249.744      166.598        0.393        0.033       84.589        8.670        0.011      343.878       20.300      859.525
07/02/2014  03:23:00     -152.708      -43.162       -6.718       38.145       27.195       22.611     1455.015      739.570      511.241        1.397        0.135      158.691       20.099        0.016      343.460       19.587      859.540
07/02/2014  03:24:00     -117.662      -38.853       -5.081       34.055       27.526       19.372     1159.765      757.691      375.267        0.884        0.115      123.910       18.422        0.022      343.481       19.622      859.549
07/02/2014  03:25:00      -93.138      -28.957      -10.112       25.418       16.468       13.544      646.093      271.195      183.433        0.536        0.055       97.535       11.692        0.014      343.529       19.705      859.540
07/02/2014  03:26:00      -92.954      -34.711       -3.758       22.941       21.887       12.248      526.288      479.042      150.008        0.551        0.058       99.223       12.854        0.017      343.659       19.927      859.544
07/02/2014  03:27:00      -98.311      -57.607       -7.112       18.154       12.774       13.330      329.573      163.169      177.682        0.685        0.034      113.946       11.851        0.011      343.765       20.108      859.555
07/02/2014  03:28:00     -100.755      -49.669       -0.812       33.863       26.376       18.220     1146.695      695.695      331.957        0.740        0.109      112.332       21.208        0.036      343.597       19.819      859.563
07/02/2014  03:29:00     -127.759      -36.432      -14.206       26.392       25.456       18.030      696.540      648.029      325.088        0.976        0.083      132.852       11.834        0.008      343.656       19.921      859.565
07/02/2014  03:30:00      -69.122      -52.335        1.606       37.640       29.444       19.163     1416.766      866.967      367.238        0.508        0.133       86.699       19.345        0.050      343.716       20.023      859.572
07/02/2014  03:31:00     -119.674      -41.621       -3.964       37.763       29.473       16.017     1426.031      868.654      256.529        0.931        0.128      126.705       16.462        0.017      343.727       20.043      859.592
07/02/2014  03:32:00      -87.362      -39.904        2.581       25.104       29.665       20.233      630.209      880.009      409.359        0.558        0.096       96.044       15.912        0.027      343.541       19.724      859.587
07/02/2014  03:33:00     -129.673      -38.505      -15.414       26.033       20.243       17.184      677.703      409.768      295.273        0.996        0.069      135.269       12.983        0.009      343.448       19.567      859.581
07/02/2014  03:34:00     -109.905      -37.677       -0.316       30.157       24.629       19.722      909.423      606.580      388.941        0.770        0.095      116.183       19.286        0.028      343.440       19.553      859.588
07/02/2014  03:35:00     -102.817      -29.540       -3.422       25.132       25.998       17.596      631.610      675.914      309.615        0.654        0.081      106.976       15.887        0.022      343.342       19.386      859.598
07/02/2014  03:36:00     -128.184      -31.165       -4.595       34.402       24.873       16.583     1183.488      618.671      274.987        0.975        0.104      131.918       12.841        0.009      343.308       19.329      859.600
07/02/2014  03:37:00     -135.558      -39.994       -2.707       33.733       31.352       18.281     1137.895      982.930      334.198        1.122        0.123      141.335       19.367        0.019      343.268       19.259      859.602
07/02/2014  03:38:00     -132.455      -58.972       -2.140       32.324       31.248       22.167     1044.843      976.436      491.371        1.177        0.126      144.989       19.036        0.017      343.483       19.625      859.606
07/02/2014  03:39:00     -131.615      -50.388       -2.212       53.384       35.779       20.368     2849.867     1280.112      414.846        1.220        0.227      140.931       21.837        0.024      343.343       19.387      859.608
07/02/2014  03:40:00     -147.785      -23.414       -4.620       50.100       33.192       24.131     2510.019     1101.688      582.325        1.330        0.210      149.628       25.971        0.030      343.243       19.218      859.603
07/02/2014  03:41:00     -120.880      -19.039       -3.639       39.714       30.938       23.076     1577.238      957.171      532.482        0.903        0.153      122.370       19.836        0.026      343.254       19.236      859.597
07/02/2014  03:42:00     -164.252        3.010      -13.543       59.425       29.124       23.376     3531.379      848.213      546.451        1.605        0.246      164.279       28.373        0.030      343.439       19.550      859.602
07/02/2014  03:43:00     -186.686       25.268      -12.297       44.976       31.123       19.776     2022.823      968.616      391.096        1.951        0.169      188.389       16.656        0.008      343.773       20.120      859.589
07/02/2014  03:44:00     -187.128       37.406      -17.225       31.547       20.690       15.483      995.190      428.079      239.717        1.919        0.083      190.830       13.401        0.005      343.856       20.263      859.577
07/02/2014  03:45:00     -130.084        9.760      -15.118       33.098       28.960       18.763     1095.446      838.706      352.045        0.977        0.114      130.449       11.512        0.008      343.686       19.972      859.577
07/02/2014  03:46:00     -174.727       16.824      -14.182       25.236       26.506       14.996      636.846      702.583      224.874        1.629        0.078      175.535        5.883        0.001      343.777       20.128      859.560
07/02/2014  03:47:00     -186.336       13.370      -16.650       33.804       32.373       17.110     1142.730     1048.001      292.745        1.883        0.124      186.815       14.219        0.006      343.728       20.042      859.549
07/02/2014  03:48:00     -157.174      -26.283      -12.199       40.369       41.420       25.977     1629.677     1715.590      674.785        1.478        0.201      159.356       23.320        0.021      343.632       19.880      859.556
07/02/2014  03:49:00     -146.251       12.555      -14.495       37.788       22.979       19.010     1427.936      528.047      361.377        1.204        0.116      146.789       15.429        0.011      343.554       19.748      859.552
07/02/2014  03:50:00     -122.708       -1.574      -11.842       42.728       22.036       15.408     1825.712      485.604      237.415        0.887        0.127      122.718       16.119        0.017      343.616       19.853      859.554
07/02/2014  03:51:00      -90.230       -1.641      -10.338       38.698       26.505       14.619     1497.503      702.491      213.701        0.533        0.121       90.245        9.647        0.011      343.482       19.626      859.555
07/02/2014  03:52:00     -127.596      -12.511      -11.157       23.394       17.818       13.719      547.283      317.467      188.215        0.881        0.053      128.208        9.804        0.006      343.473       19.610      859.551
07/02/2014  03:53:00     -114.738      -17.376       -8.501       29.062       15.446       13.411      844.601      238.564      179.844        0.740        0.063      116.046       12.979        0.013      343.485       19.630      859.557
07/02/2014  03:54:00     -117.049      -17.146       -9.046       24.300       18.852       14.240      590.472      355.394      202.769        0.761        0.057      118.298       14.671        0.015      343.471       19.606      859.563
07/02/2014  03:55:00     -104.444      -25.533       -5.534       27.722       16.841       11.986      768.483      283.612      143.672        0.639        0.060      107.520       11.480        0.011      343.400       19.483      859.562
07/02/2014  03:56:00     -120.250      -32.886       -9.425       32.196       28.865       16.633     1036.551      833.213      276.655        0.889        0.107      124.666       13.996        0.013      343.352       19.402      859.567
07/02/2014  03:57:00     -139.245      -38.574       -9.081       24.281       19.798       14.616      589.560      391.968      213.628        1.108        0.060      144.490       14.059        0.009      343.470       19.605      859.564
07/02/2014  03:58:00     -160.702      -36.283       -7.717       20.696       22.906       15.871      428.324      524.699      251.896        1.420        0.060      164.747       12.268        0.006      343.417       19.515      859.556
07/02/2014  03:59:00     -100.962      -27.672        1.237       33.670       26.467       16.206     1133.693      700.497      262.627        0.653        0.105      104.686       17.184        0.027      343.431       19.537      859.568
07/02/2014  04:00:00     -118.207      -40.546       -3.516       38.803       27.061       15.916     1505.682      732.276      253.322        0.906        0.125      124.968       19.134        0.023      343.535       19.715      859.563
07/02/2014  04:01:00     -115.347      -27.459       -1.570       43.152       33.153       21.589     1862.133     1099.147      466.096        0.874        0.171      118.570       23.528        0.039      343.509       19.671      859.560
07/02/2014  04:02:00      -82.709      -43.122       -4.462       32.360       22.726       23.397     1047.142      516.483      547.423        0.542        0.106       93.275       20.733        0.049      343.413       19.507      859.558
07/02/2014  04:03:00      -76.050      -10.836       -8.335       32.592       28.216       14.321     1062.242      796.121      205.081        0.402        0.103       76.818        7.492        0.010      343.469       19.603      859.561
07/02/2014  04:04:00      -55.356        6.873       -0.685       30.866       26.531       14.566      952.681      703.874      212.159        0.249        0.093       55.781       16.768        0.090      343.660       19.928      859.562
07/02/2014  04:05:00      -57.030      -32.331       -1.659       37.744       27.597       15.068     1424.616      761.607      227.043        0.336        0.121       65.557       12.170        0.034      343.635       19.885      859.576
07/02/2014  04:06:00      -55.412      -37.539        8.193       59.902       34.717       24.505     3588.242     1205.245      600.497        0.497        0.270       66.930       27.441        0.168      343.580       19.791      859.588
07/02/2014  04:07:00      -81.027      -59.993        3.681       58.818       36.137       29.382     3459.513     1305.893      863.301        0.790        0.281      100.819       34.958        0.120      343.447       19.566      859.597
07/02/2014  04:08:00      -78.875      -64.221        3.571       37.755       30.703       21.764     1425.431      942.678      473.671        0.660        0.142      101.713       19.868        0.038      343.541       19.723      859.603
07/02/2014  04:09:00      -95.407      -55.974        0.120       49.108       31.075       19.032     2411.549      965.662      362.209        0.799        0.187      110.614       17.515        0.025      343.562       19.762      859.609
07/02/2014  04:10:00     -147.656      -30.202      -10.435       38.339       34.265       22.740     1469.907     1174.123      517.086        1.299        0.158      150.713       19.363        0.017      343.633       19.881      859.630
07/02/2014  04:11:00      -93.433      -57.240       -2.429       43.937       41.591       24.794     1930.492     1729.787      614.756        0.814        0.214      109.573       23.194        0.045      343.612       19.846      859.636
07/02/2014  04:12:00      -36.353      -27.060        8.383       42.872       38.059       24.595     1838.047     1448.450      604.919        0.301        0.195       45.319       22.445        0.245      343.514       19.680      859.646
07/02/2014  04:13:00      -87.514      -67.075       -3.274       37.406       36.357       23.776     1399.227     1321.842      565.285        0.773        0.164      110.262       20.488        0.035      343.582       19.797      859.661
07/02/2014  04:14:00      -72.288      -39.855        2.124       58.693       29.270       23.546     3444.833      856.751      554.399        0.584        0.243       82.547       28.733        0.121      343.483       19.626      859.679
07/02/2014  04:15:00     -119.823      -52.704       -6.309       28.172       30.097       18.610      793.666      905.839      346.336        0.961        0.102      130.902       14.057        0.012      343.445       19.562      859.693
07/02/2014  04:16:00      -84.727      -64.044       -0.548       31.383       24.246       17.321      984.882      587.886      300.027        0.658        0.094      106.209       15.404        0.021      343.397       19.478      859.703
07/02/2014  04:17:00     -104.293      -55.364        1.462       34.097       36.502       20.397     1162.629     1332.368      416.019        0.843        0.146      118.077       19.609        0.028      343.376       19.443      859.719
07/02/2014  04:18:00     -143.476      -62.891        0.117       45.278       56.584       25.878     2050.107     3201.768      669.691        1.523        0.296      156.654       20.257        0.017      343.421       19.518      859.743
07/02/2014  04:19:00     -112.243      -87.852        1.634       61.204       52.471       34.611     3745.942     2753.201     1197.950        1.401        0.385      142.535       33.935        0.057      343.425       19.527      859.751
07/02/2014  04:20:00     -161.993     -102.150       -5.088       67.610       65.837       31.503     4571.170     4334.496      992.448        2.330        0.495      191.510       24.842        0.017      343.616       19.850      859.750
07/02/2014  04:21:00     -102.730      -81.037        5.226       63.541       50.519       32.798     4037.416     2552.205     1075.741        1.241        0.383      130.845       30.584        0.055      343.561       19.759      859.761
07/02/2014  04:22:00     -108.482      -73.538        4.510       68.334       49.109       34.296     4669.563     2411.704     1176.195        1.273        0.413      131.058       33.904        0.067      343.564       19.764      859.768
07/02/2014  04:23:00     -127.060      -72.609        4.668       84.323       67.780       32.738     7110.331     4594.114     1071.808        1.711        0.639      146.344       34.547        0.056      343.618       19.855      859.770
07/02/2014  04:24:00     -137.933      -77.408       -8.799       60.366       49.829       31.196     3644.040     2482.926      973.190        1.610        0.355      158.169       27.795        0.031      343.711       20.015      859.759
07/02/2014  04:25:00      -86.520       -2.623       -6.506       53.513       61.923       28.752     2863.630     3834.476      826.666        0.753        0.376       86.560       27.125        0.098      343.443       19.557      859.766
07/02/2014  04:26:00     -170.608       19.498      -11.381       22.246       26.577       10.716      494.890      706.350      114.828        1.547        0.066      171.719        6.842        0.002      343.433       19.540      859.778
07/02/2014  04:27:00      -99.124      -29.416        4.823       34.503       30.575       19.719     1190.428      934.854      388.852        0.661        0.126      103.396       19.602        0.036      343.356       19.410      859.773
07/02/2014  04:28:00      -75.738      -37.068        8.546       40.853       24.039       17.708     1668.991      577.853      313.565        0.487        0.128       84.323       17.178        0.042      343.417       19.515      859.768
07/02/2014  04:29:00       -6.711      -51.343       12.179       25.363       22.559       12.440      643.265      508.931      154.748        0.207        0.065       51.779       11.820        0.052      343.576       19.784      859.762
07/02/2014  04:30:00      -70.332       -6.611        0.499       26.392       28.051       14.007      696.546      786.871      196.197        0.333        0.084       70.642       13.464        0.036      343.503       19.660      859.766
07/02/2014  04:31:00      -96.994       25.302       -5.678       19.811       17.871        8.839      392.470      319.382       78.131        0.543        0.039      100.240        4.744        0.002      343.307       19.326      859.763
07/02/2014  04:32:00      -56.866       -7.173        0.847       34.150       13.797        8.795     1166.209      190.360       77.353        0.236        0.072       57.316       12.354        0.046      343.347       19.394      859.751
07/02/2014  04:33:00      -55.165      -22.043       -0.017       20.227       20.901       12.633      409.126      436.847      159.582        0.227        0.050       59.406       10.369        0.030      343.445       19.561      859.748
07/02/2014  04:34:00      -30.530      -25.689        4.557       15.714       12.860       12.407      246.924      165.383      153.942        0.109        0.028       39.900       10.245        0.066      343.367       19.429      859.750
07/02/2014  04:35:00      -21.814      -32.715        2.960       25.130       16.420       17.225      631.510      269.618      296.693        0.138        0.060       39.320       10.633        0.073      343.436       19.546      859.751
07/02/2014  04:36:00      -11.978      -11.766        9.334       26.424       13.519       14.237      698.249      182.751      202.684        0.073        0.054       16.790       11.139        0.440      343.295       19.306      859.753
07/02/2014  04:37:00      -55.350      -26.763       -1.513       14.974       11.700        8.463      224.233      136.878       71.624        0.211        0.022       61.481        5.731        0.009      343.242       19.216      859.751
07/02/2014  04:38:00      -56.282      -19.288       -4.011       13.701       10.789       10.518      187.715      116.409      110.638        0.199        0.021       59.495        9.891        0.028      343.228       19.190      859.769
07/02/2014  04:39:00      -59.827      -22.186       -2.928        8.346       10.425        5.906       69.654      108.683       34.886        0.215        0.011       63.808        3.710        0.003      343.208       19.158      859.785
07/02/2014  04:40:00      -42.217       -5.918       -2.336       14.143        6.769        7.208      200.032       45.823       51.956        0.106        0.015       42.629        6.721        0.025      343.113       18.996      859.785
07/02/2014  04:41:00      -37.932      -17.126       -2.418        8.270        9.097        4.372       68.390       82.763       19.116        0.095        0.009       41.619        2.910        0.005      343.120       19.009      859.789
07/02/2014  04:42:00      -20.302       -3.654        0.581       12.867        5.731        8.117      165.568       32.844       65.891        0.035        0.013       20.628        4.764        0.053      343.118       19.006      859.790
07/02/2014  04:43:00       -5.594      -10.894       -5.520        8.647        5.740        4.010       74.768       32.945       16.080        0.015        0.006       12.247        2.523        0.042      343.415       19.510      859.793
07/02/2014  04:44:00      -13.188      -11.122       -3.127        4.833        6.714        4.492       23.358       45.079       20.177        0.020        0.004       17.251        4.678        0.074      343.602       19.829      859.807
07/02/2014  04:45:00      -15.440      -15.293       -0.276       13.064        7.140        5.596      170.655       50.974       31.318        0.036        0.013       21.731        5.051        0.054      343.431       19.538      859.814
07/02/2014  04:46:00      -32.859      -12.793       -5.339        8.172       12.430        7.141       66.781      154.505       50.991        0.077        0.014       35.262        5.089        0.021      343.251       19.229      859.819
07/02/2014  04:47:00      -15.688      -21.554        1.089       17.591       17.377       13.956      309.442      301.976      194.778        0.076        0.040       26.659        8.365        0.098      343.032       18.859      859.827
07/02/2014  04:48:00      -28.704      -21.424        2.764       14.272       12.465       11.003      203.687      155.377      121.074        0.089        0.024       35.818        8.370        0.055      342.903       18.638      859.838
07/02/2014  04:49:00      -71.083      -32.097        0.638       33.585       15.757       11.192     1127.956      248.286      125.264        0.379        0.075       77.994       17.040        0.048      342.851       18.550      859.858
07/02/2014  04:50:00      -79.336      -40.380       -8.333       18.770       15.835       10.243      352.308      250.733      104.925        0.435        0.035       89.021        5.573        0.004      342.938       18.698      859.871
07/02/2014  04:51:00      -46.605      -37.925       -4.060       20.327       12.605        9.752      413.190      158.896       95.105        0.215        0.033       60.086        9.010        0.022      342.980       18.769      859.875
07/02/2014  04:52:00      -64.348      -34.810       -3.430       14.002       11.593        7.731      196.068      134.388       59.771        0.288        0.020       73.160        4.496        0.004      343.071       18.924      859.880
07/02/2014  04:53:00      -95.919      -39.630       -9.285       17.874       12.243       10.672      319.464      149.888      113.899        0.572        0.029      103.783        8.342        0.006      342.869       18.582      859.894
07/02/2014  04:54:00      -82.253      -40.380        1.694       35.142       24.234       15.412     1234.928      587.268      237.530        0.523        0.103       91.630       17.711        0.037      343.005       18.811      859.904
07/02/2014  04:55:00     -122.352      -56.951       -0.418       38.672       26.039       18.791     1495.505      678.015      353.105        1.037        0.126      134.957       19.622        0.021      343.143       19.048      859.908
07/02/2014  04:56:00     -116.312      -63.160       -6.440       29.334       22.889       12.728      860.501      523.910      161.993        0.955        0.077      132.354       11.845        0.008      343.122       19.011      859.908
07/02/2014  04:57:00      -66.017      -73.013        2.262       29.492       36.724       17.677      869.778     1348.668      312.462        0.611        0.127       98.433       11.277        0.013      343.020       18.839      859.908
07/02/2014  04:58:00      -38.970      -43.939       14.299       47.994       32.128       23.877     2303.430     1032.182      570.098        0.378        0.195       58.731       25.399        0.187      342.947       18.714      859.916
07/02/2014  04:59:00      -89.154      -56.622        5.453       41.273       30.822       22.210     1703.483      950.009      493.267        0.717        0.157      105.615       23.488        0.049      342.902       18.636      859.917
07/02/2014  05:00:00      -67.665      -59.196        4.662       48.574       31.636       20.209     2359.435     1000.811      408.402        0.594        0.188       89.904       19.450        0.047      342.864       18.572      859.909
07/02/2014  05:01:00      -80.002      -41.961        5.991       40.593       29.219       19.421     1647.771      853.741      377.194        0.554        0.144       90.339       18.364        0.041      342.762       18.399      859.907
07/02/2014  05:02:00      -55.991      -39.147        1.063       28.423       23.998       15.776      807.851      575.898      248.889        0.315        0.082       68.319        8.871        0.017      342.706       18.304      859.908
07/02/2014  05:03:00      -66.782      -45.452       -6.140       30.617       18.555       17.406      937.407      344.275      302.974        0.407        0.079       80.782        7.644        0.009      342.769       18.410      859.915
07/02/2014  05:04:00      -14.490      -30.871        5.749       28.771       20.223       13.200      827.773      408.964      174.244        0.130        0.071       34.102       13.795        0.164      342.848       18.544      859.924
07/02/2014  05:05:00      -37.645      -31.062       -2.072       41.671       20.969       14.423     1736.442      439.708      208.020        0.238        0.119       48.806       18.805        0.148      342.838       18.528      859.931
07/02/2014  05:06:00      -54.117      -37.438        2.121       32.715       27.852       17.225     1070.279      775.752      296.700        0.324        0.107       65.804       17.148        0.068      342.816       18.490      859.937
07/02/2014  05:07:00      -65.583      -25.869       -9.341       12.726       16.239       11.673      161.959      263.701      136.270        0.281        0.028       70.501        6.899        0.010      342.776       18.423      859.947
07/02/2014  05:08:00      -52.168      -35.186        3.891       22.453       15.279       16.142      504.129      233.453      260.552        0.249        0.050       62.925       12.323        0.038      342.718       18.322      859.960
07/02/2014  05:09:00      -44.633      -30.602       -8.152       28.211       15.395        8.581      795.878      237.001       73.639        0.205        0.055       54.117        2.631        0.002      342.737       18.357      859.978
07/02/2014  05:10:00      -11.101      -40.469       -5.322       19.208       18.350       10.935      368.936      336.711      119.583        0.131        0.041       41.964       11.116        0.070      342.751       18.379      859.982
07/02/2014  05:11:00        9.668      -19.835        6.092       14.978       11.285       11.247      224.328      127.359      126.489        0.050        0.024       22.066        7.133        0.105      342.776       18.421      859.992
07/02/2014  05:12:00      -23.670      -10.045       -2.987       16.924       13.370        7.940      286.406      178.757       63.047        0.060        0.026       25.713        7.168        0.078      342.785       18.440      860.011
07/02/2014  05:13:00      -29.638        8.337       -0.401       11.671       12.622        8.630      136.218      159.316       74.474        0.066        0.019       30.788        6.157        0.040      342.710       18.312      860.041
07/02/2014  05:14:00      -53.174      -22.019       -5.534       10.227       11.390        6.348      104.582      129.733       40.302        0.181        0.014       57.553        5.287        0.008      342.675       18.252      860.054
07/02/2014  05:15:00      -28.210      -32.387       -0.803       18.348       22.043       14.509      336.667      485.906      210.513        0.144        0.052       42.950        9.082        0.045      342.700       18.294      860.058
07/02/2014  05:16:00       -5.166      -39.601       -2.567       12.468       23.591       17.039      155.456      556.549      290.344        0.130        0.050       39.936       14.027        0.123      342.720       18.327      860.068
07/02/2014  05:17:00      -26.836      -74.929        2.386       33.280       27.134       16.209     1107.584      736.249      262.746        0.422        0.105       79.590       12.228        0.024      342.685       18.266      860.087
07/02/2014  05:18:00      -11.493      -58.853       -7.558       34.410       22.156       20.006     1184.053      490.908      400.229        0.286        0.104       59.965       12.717        0.045      342.686       18.269      860.105
07/02/2014  05:19:00      -15.904      -59.692       12.817       42.703       53.846       24.926     1823.540     2899.414      621.302        0.466        0.267       61.774       27.213        0.194      342.613       18.145      860.112
07/02/2014  05:20:00      -71.632      -59.851        0.659       38.683       32.374       26.882     1496.403     1048.057      722.650        0.599        0.163       93.345       22.251        0.057      342.532       18.008      860.114
07/02/2014  05:21:00     -104.637      -73.874       -8.372       29.527       31.763       19.845      871.830     1008.875      393.842        0.938        0.114      128.087       11.635        0.008      342.519       17.984      860.105
07/02/2014  05:22:00      -78.465      -68.083        1.040       46.547       40.700       22.359     2166.600     1656.473      499.915        0.756        0.216      103.885       18.687        0.032      342.510       17.971      860.104
07/02/2014  05:23:00      -59.319      -73.750        4.222       38.958       42.467       24.040     1517.707     1803.459      577.900        0.644        0.195       94.645       23.376        0.061      342.557       18.049      860.112
07/02/2014  05:24:00      -92.715      -80.322       -5.128       41.287       30.866       17.323     1704.610      952.730      300.102        0.902        0.148      122.669       15.338        0.016      342.553       18.043      860.118
07/02/2014  05:25:00     -119.176      -55.526       -2.394       22.136       26.830       15.550      490.009      719.848      241.802        0.937        0.073      131.477       12.169        0.009      342.573       18.078      860.107
07/02/2014  05:26:00      -71.762      -48.189       -0.758       37.747       28.658       16.949     1424.863      821.286      287.278        0.500        0.127       86.441       18.756        0.047      342.548       18.034      860.111
07/02/2014  05:27:00      -80.250      -47.138       -6.954       25.890       15.644       14.820      670.307      244.741      219.638        0.492        0.057       93.070       14.038        0.023      342.553       18.043      860.130
07/02/2014  05:28:00      -72.682      -50.608        2.253       21.718       23.510       14.041      471.653      552.727      197.140        0.454        0.061       88.566       12.980        0.021      342.507       17.966      860.142
07/02/2014  05:29:00      -82.702      -20.017       -3.715       30.294       21.102       15.156      917.701      445.299      229.697        0.442        0.080       85.090       14.600        0.029      342.391       17.767      860.149
07/02/2014  05:30:00      -88.546      -19.588      -11.146       24.197       17.429       14.828      585.514      303.776      219.870        0.473        0.055       90.687        8.639        0.009      342.396       17.777      860.156
07/02/2014  05:31:00      -76.455      -10.281       -0.493       24.031       17.092       13.533      577.493      292.127      183.132        0.350        0.053       77.144       14.078        0.033      342.283       17.584      860.170
07/02/2014  05:32:00      -88.521      -21.898       -2.084       19.620       15.828       16.295      384.939      250.534      265.520        0.461        0.045       91.189       13.593        0.022      342.383       17.754      860.179
07/02/2014  05:33:00      -67.254      -28.576        3.648       21.412       21.659       11.218      458.495      469.102      125.835        0.320        0.053       73.073        6.337        0.008      342.392       17.771      860.177
07/02/2014  05:34:00      -48.006      -13.466       -0.535       19.051       13.886       14.197      362.930      192.816      201.558        0.162        0.038       49.859       13.226        0.070      342.352       17.702      860.180
07/02/2014  05:35:00      -64.918      -21.514        0.349       16.682       13.844       12.672      278.279      191.643      160.581        0.265        0.032       68.390       11.278        0.027      342.356       17.709      860.189
07/02/2014  05:36:00      -53.777      -31.182        3.412       27.839       10.971       13.841      775.022      120.364      191.576        0.248        0.054       62.163        6.427        0.011      342.359       17.714      860.198
07/02/2014  05:37:00      -35.922      -29.440        5.362       34.153       27.798       14.162     1166.455      772.713      200.560        0.216        0.107       46.445       13.429        0.084      342.339       17.680      860.198
07/02/2014  05:38:00      -68.949      -82.358        2.048       42.259       36.509       24.031     1785.860     1332.931      577.489        0.762        0.185      107.409       21.713        0.041      342.377       17.746      860.206
07/02/2014  05:39:00      -61.666      -67.994        3.107       34.943       32.104       23.790     1220.982     1030.645      565.966        0.563        0.141       91.793       20.464        0.050      342.363       17.722      860.220
07/02/2014  05:40:00      -67.870      -40.887       -1.860       25.915       19.516       14.706      671.585      380.866      216.267        0.377        0.063       79.235        6.874        0.008      342.334       17.669      860.220
07/02/2014  05:41:00      -68.790      -35.010       -9.807       19.325       18.928        9.597      373.456      358.282       92.097        0.344        0.041       77.187       10.997        0.020      342.299       17.611      860.224
07/02/2014  05:42:00      -52.772       -7.755       -4.098       12.281       10.141       13.858      150.816      102.837      192.050        0.165        0.022       53.338        8.440        0.025      342.282       17.582      860.237
07/02/2014  05:43:00      -64.796        1.722       -3.255       19.413       16.804        9.774      376.882      282.360       95.530        0.248        0.038       64.819        9.079        0.020      342.286       17.590      860.262
07/02/2014  05:44:00      -45.830       -8.133       -5.709       22.704       24.365        6.260      515.474      593.662       39.189        0.167        0.057       46.546        4.113        0.008      342.273       17.567      860.272
07/02/2014  05:45:00      -20.802      -34.956       -0.350       18.991       10.838        8.348      360.666      117.457       69.692        0.110        0.027       40.678        7.390        0.033      342.307       17.625      860.287
07/02/2014  05:46:00      -21.008      -17.452        6.501       29.054       12.635       14.326      844.136      159.642      205.247        0.100        0.060       27.311       18.029        0.436      342.270       17.563      860.306
07/02/2014  05:47:00      -31.182      -29.907       -4.531       24.310       16.179       13.930      590.974      261.775      194.031        0.147        0.052       43.206        9.205        0.045      342.337       17.675      860.321
07/02/2014  05:48:00      -27.863      -53.602       -3.206       10.446       14.416        7.600      109.126      207.834       57.761        0.202        0.019       60.412        5.230        0.007      342.391       17.765      860.336
07/02/2014  05:49:00      -17.632      -55.171       18.478       28.245       25.494       23.236      797.754      649.920      539.910        0.284        0.099       57.920       16.692        0.083      342.439       17.848      860.347
07/02/2014  05:50:00      -43.316      -42.205        3.734       50.285       32.591       20.520     2528.600     1062.141      421.089        0.384        0.201       60.478       13.272        0.048      342.410       17.801      860.364
07/02/2014  05:51:00      -62.762      -57.236        8.960       61.437       34.454       27.137     3774.531     1187.085      736.406        0.650        0.285       84.941       26.865        0.100      342.363       17.720      860.382
07/02/2014  05:52:00      -80.875      -66.279        1.901       55.903       39.401       24.716     3125.172     1552.414      610.864        0.811        0.264      104.564       21.190        0.041      342.360       17.714      860.392
07/02/2014  05:53:00      -72.277      -88.430        3.166       49.678       45.470       24.936     2467.924     2067.542      621.818        0.910        0.258      114.209       26.900        0.055      342.372       17.734      860.400
07/02/2014  05:54:00      -68.869      -79.940        6.594       47.340       40.199       25.881     2241.106     1615.990      669.825        0.785        0.226      105.514       20.504        0.038      342.363       17.719      860.408
07/02/2014  05:55:00     -126.387     -103.194       -7.971       66.646       51.070       29.462     4441.651     2608.172      868.028        1.730        0.396      163.165       33.424        0.042      342.319       17.644      860.417
07/02/2014  05:56:00     -111.822      -93.421      -11.162       39.417       54.430       25.664     1553.729     2962.638      658.662        1.326        0.259      145.711       17.252        0.014      342.365       17.724      860.425
07/02/2014  05:57:00      -84.868      -70.205        9.785       46.069       43.935       27.308     2122.340     1930.309      745.732        0.851        0.240      110.142       22.449        0.042      342.346       17.690      860.443
07/02/2014  05:58:00      -91.259      -76.943       -1.139       42.044       39.995       26.087     1767.668     1599.585      680.552        0.915        0.202      119.367       28.178        0.056      342.439       17.848      860.451
07/02/2014  05:59:00     -113.310      -61.251       -6.980       39.901       23.176       16.172     1592.098      537.106      261.531        0.951        0.120      128.805       10.021        0.006      342.478       17.916      860.458
07/02/2014  06:00:00      -98.823      -66.334        0.948       55.929       26.639       26.985     3128.100      709.650      728.208        0.937        0.228      119.022       28.818        0.059      342.521       17.989      860.460
07/02/2014  06:01:00      -91.228      -59.778       -2.715       33.327       30.228       18.409     1110.677      913.737      338.880        0.713        0.118      109.069       11.443        0.011      342.527       18.000      860.468
07/02/2014  06:02:00     -106.938      -82.284        0.998       54.545       38.183       27.997     2975.120     1457.954      783.809        1.171        0.261      134.931       30.493        0.051      342.555       18.047      860.473
07/02/2014  06:03:00     -115.263      -66.039       -3.259       39.419       37.673       19.957     1553.822     1419.251      398.277        1.051        0.169      132.841       11.777        0.008      342.524       17.993      860.474
07/02/2014  06:04:00      -63.383      -58.839       -1.087       27.771       30.419       14.784      771.235      925.293      218.564        0.470        0.096       86.484       10.587        0.015      342.527       17.998      860.475
07/02/2014  06:05:00      -60.896      -41.998       -0.893       36.024       24.411       21.368     1297.746      595.900      456.576        0.391        0.118       73.974       13.785        0.035      342.520       17.988      860.476
07/02/2014  06:06:00     -117.831      -14.307       -5.857       33.858       27.031       18.015     1146.351      730.700      324.526        0.816        0.110      118.696       18.854        0.025      342.392       17.769      860.483
07/02/2014  06:07:00     -130.518       -8.077        0.391       50.684       42.645       27.703     2568.913     1818.558      767.433        1.113        0.258      130.768       24.500        0.035      342.273       17.567      860.481
07/02/2014  06:08:00     -171.637      -49.835       -3.435       42.086       34.973       26.575     1771.203     1223.094      706.225        1.783        0.185      178.726       22.373        0.016      342.279       17.575      860.478
07/02/2014  06:09:00      -83.862      -61.131        7.744       69.404       54.120       28.056     4816.909     2928.944      787.133        0.968        0.427      103.778       27.691        0.071      342.361       17.717      860.462
07/02/2014  06:10:00     -120.097      -53.324        2.926       39.521       50.559       27.298     1561.929     2556.241      745.194        1.107        0.243      131.403       21.931        0.028      342.341       17.682      860.454
07/02/2014  06:11:00     -119.218      -12.960        1.775       63.337       41.259       34.845     4011.540     1702.304     1214.170        1.065        0.346      119.920       37.029        0.095      342.293       17.601      860.457
07/02/2014  06:12:00     -124.781      -57.586       -3.633       39.951       38.806       24.421     1596.102     1505.933      596.394        1.130        0.185      137.428       20.361        0.022      342.299       17.612      860.466
07/02/2014  06:13:00     -107.269      -32.888       -6.982       25.244       32.654       22.375      637.274     1066.306      500.633        0.742        0.110      112.198       17.015        0.023      342.281       17.580      860.469
07/02/2014  06:14:00     -116.772      -52.749       -6.980       57.727       51.381       22.698     3332.443     2640.054      515.199        1.148        0.324      128.133       19.497        0.023      342.231       17.494      860.467
07/02/2014  06:15:00      -77.822      -84.903        5.583       30.363       62.232       22.974      921.931     3872.804      527.819        0.931        0.266      115.173       15.722        0.019      342.228       17.490      860.462
07/02/2014  06:16:00      -83.169      -62.671        1.453       50.379       38.376       25.556     2538.094     1472.722      653.121        0.775        0.233      104.138       24.565        0.056      342.234       17.501      860.448
07/02/2014  06:17:00      -75.774      -41.198       -1.709       32.041       38.396       20.507     1026.618     1474.285      420.542        0.518        0.146       86.250       18.653        0.047      342.218       17.473      860.427
07/02/2014  06:18:00     -106.943      -32.587        2.390       43.671       28.982       22.317     1907.175      839.935      498.036        0.787        0.162      111.798       20.693        0.034      342.224       17.483      860.412
07/02/2014  06:19:00      -51.863      -12.839        8.382       41.906       28.372       20.629     1756.129      804.944      425.544        0.296        0.149       53.429       21.828        0.167      342.388       17.762      860.397
07/02/2014  06:20:00     -103.330        2.758       -1.517       41.696       20.445       15.541     1738.559      417.980      241.512        0.654        0.120      103.367       13.726        0.018      342.171       17.396      860.393
07/02/2014  06:21:00      -86.938       13.462       -4.894       26.574       26.997       16.685      706.166      728.835      278.400        0.474        0.086       87.974       13.078        0.022      342.124       17.315      860.392
07/02/2014  06:22:00     -112.559       21.731        0.292       36.891       25.393       16.328     1360.942      644.813      266.597        0.771        0.114      114.638       16.217        0.020      342.179       17.407      860.386
07/02/2014  06:23:00      -99.025        7.622       -3.202       25.174       22.890       15.194      633.721      523.933      230.847        0.563        0.069       99.318       10.740        0.012      342.173       17.398      860.375
07/02/2014  06:24:00      -70.373       -1.215       -2.388       28.148       22.847       19.829      792.298      522.008      393.175        0.333        0.085       70.384       18.563        0.070      342.213       17.467      860.384
07/02/2014  06:25:00      -67.893       -9.321       -1.169       29.931       17.810       14.757      895.886      317.187      217.780        0.306        0.072       68.529       16.664        0.059      342.273       17.567      860.390
07/02/2014  06:26:00      -70.698      -10.915        1.345       17.910       19.989       11.733      320.776      399.550      137.655        0.299        0.043       71.536        7.311        0.010      342.252       17.531      860.388
07/02/2014  06:27:00      -45.681      -20.349       -2.290       15.362       16.841        9.145      235.991      283.605       83.623        0.155        0.030       50.009        6.777        0.018      342.346       17.693      860.395
07/02/2014  06:28:00      -41.668      -50.650       -7.957       23.912       13.608       14.582      571.778      185.189      212.629        0.267        0.048       65.587       12.943        0.039      342.432       17.839      860.408
07/02/2014  06:29:00      -51.103      -41.251        2.730       20.891       12.383       12.500      436.428      153.340      156.240        0.253        0.037       65.674       12.790        0.038      342.401       17.785      860.413
07/02/2014  06:30:00      -50.941      -17.734       -2.070       11.003       11.630        7.589      121.064      135.255       57.587        0.161        0.016       53.940        3.736        0.005      342.490       17.936      860.397
07/02/2014  06:31:00      -76.670      -16.719       -5.727       20.027       11.463       10.519      401.080      131.395      110.644        0.342        0.032       78.471        9.879        0.016      342.526       17.997      860.391
07/02/2014  06:32:00      -75.369      -19.767        0.530       18.804       16.797       11.948      353.605      282.152      142.749        0.342        0.039       77.918       11.710        0.023      342.551       18.040      860.393
07/02/2014  06:33:00      -58.555      -35.333       -5.334       19.064       14.918       10.649      363.426      222.560      113.408        0.270        0.035       68.389        5.302        0.006      342.582       18.093      860.398
07/02/2014  06:34:00      -10.120      -50.514       -4.617       13.190       11.242       10.898      173.964      126.377      118.757        0.155        0.021       51.518        7.827        0.023      342.604       18.131      860.407
07/02/2014  06:35:00      -28.425      -60.644       -3.648       19.698       21.217       14.225      387.997      450.180      202.353        0.277        0.052       66.976        9.691        0.021      342.626       18.166      860.425
07/02/2014  06:36:00      -19.480      -86.007        0.206       12.621       21.542       12.826      159.285      464.078      164.516        0.428        0.039       88.186        8.982        0.010      342.731       18.346      860.449
07/02/2014  06:37:00      -27.888      -78.828      -12.086       25.152       27.027       15.540      632.613      730.461      241.503        0.437        0.080       83.616       13.038        0.024      342.809       18.476      860.466
07/02/2014  06:38:00      -29.147      -29.897        7.609       26.500       32.051       20.440      702.260     1027.295      417.811        0.197        0.107       41.754       12.369        0.088      342.841       18.531      860.467
07/02/2014  06:39:00      -34.380      -58.601       -6.643       29.609       33.046       23.312      876.688     1092.023      543.451        0.359        0.126       67.941       21.451        0.100      342.795       18.454      860.476
07/02/2014  06:40:00      -65.789      -18.138        2.182       46.155       23.218       22.710     2130.304      539.092      515.729        0.392        0.159       68.244       24.814        0.132      342.826       18.508      860.478
07/02/2014  06:41:00      -21.982      -19.778        2.326       23.925       23.007       16.856      572.384      529.328      284.130        0.113        0.069       29.570       11.443        0.150      342.867       18.577      860.494
07/02/2014  06:42:00      -56.451      -13.622       -2.799       24.578       29.376       20.624      604.101      862.926      425.363        0.264        0.095       58.071       19.252        0.110      342.815       18.489      860.496
07/02/2014  06:43:00      -78.780      -25.943      -10.471       30.185       35.830       17.078      911.106     1283.789      291.674        0.474        0.124       82.941       10.167        0.015      342.758       18.391      860.500
07/02/2014  06:44:00      -39.788      -19.134       -7.574       32.048       18.940       17.886     1027.082      358.719      319.904        0.186        0.085       44.150       14.765        0.112      342.725       18.335      860.495
07/02/2014  06:45:00      -39.510      -49.688        3.214       20.373       32.535       19.399      415.076     1058.519      376.330        0.294        0.092       63.482       13.879        0.048      342.836       18.525      860.499
07/02/2014  06:46:00      -34.147      -44.451        7.817       38.374       38.372       24.153     1472.577     1472.376      583.345        0.337        0.176       56.053       27.811        0.246      343.004       18.810      860.495
07/02/2014  06:47:00      -45.686      -64.195        0.993       32.975       28.004       17.031     1087.337      784.240      290.046        0.419        0.108       78.792       17.434        0.049      342.855       18.558      860.499
07/02/2014  06:48:00      -26.453      -21.055        0.979       24.002       17.101       13.393      576.119      292.447      179.373        0.110        0.052       33.809       11.349        0.113      343.019       18.837      860.497
07/02/2014  06:49:00      -23.637        5.012        9.877       15.315       11.448       10.095      234.562      131.059      101.902        0.057        0.023       24.163        3.513        0.021      343.172       19.097      860.508
07/02/2014  06:50:00       -4.865      -59.210       24.524       28.555       29.468       33.788      815.393      868.360     1141.641        0.348        0.141       59.410       23.351        0.154      343.360       19.416      860.511
07/02/2014  06:51:00       -1.345      -11.048       33.896       22.260       29.988       17.522      495.524      899.269      307.011        0.149        0.085       11.130       15.981        2.062      343.713       20.018      860.519
07/02/2014  06:52:00      -10.699        3.465       21.621       11.320       10.669       11.233      128.149      113.835      126.176        0.048        0.018       11.247        7.474        0.442      343.778       20.129      860.522
07/02/2014  06:53:00      -18.981       15.328       43.421       16.928       22.747       17.356      286.558      517.419      301.220        0.179        0.055       24.397       16.122        0.437      343.769       20.116      860.521
07/02/2014  06:54:00       -8.115       15.480       17.866       17.133       23.850       22.524      293.556      568.805      507.317        0.100        0.068       17.478       13.807        0.624      343.645       19.904      860.507
07/02/2014  06:55:00      -15.965       19.981       52.682       16.013       25.927       16.411      256.432      672.213      269.307        0.231        0.060       25.575       14.028        0.301      343.819       20.201      860.507
07/02/2014  06:56:00       -6.179       23.166       42.717       13.478       23.466       17.565      181.657      550.632      308.539        0.172        0.052       23.976       14.596        0.371      343.905       20.347      860.502
07/02/2014  06:57:00        7.553       -0.869       34.973       28.831       27.660       18.871      831.231      765.077      356.102        0.162        0.098        7.603        5.489        0.521      343.940       20.407      860.509
07/02/2014  06:58:00        6.266        1.016       31.122       22.886       28.791       27.225      523.773      828.907      741.212        0.155        0.105        6.348       20.657       10.590      343.966       20.451      860.514
07/02/2014  06:59:00       35.870      -60.171       -5.339       35.922       43.923       28.044     1290.409     1929.206      786.486        0.447        0.200       70.052       27.840        0.158      343.743       20.069      860.535
07/02/2014  07:00:00       25.333      -29.104        8.471       39.489       44.251       38.303     1559.349     1958.168     1467.151        0.327        0.249       38.585       30.694        0.633      343.745       20.072      860.542
07/02/2014  07:01:00        8.067       26.912       47.096       26.054       30.625       24.328      678.807      937.861      591.841        0.261        0.110       28.095       19.393        0.476      343.861       20.272      860.537
07/02/2014  07:02:00        9.667       -7.645       37.435       22.988       34.387       21.739      528.441     1182.465      472.583        0.187        0.109       12.325        7.122        0.334      343.987       20.486      860.541
07/02/2014  07:03:00       13.868      -23.701       23.850       26.839       43.336       33.756      720.343     1878.011     1139.456        0.253        0.187       27.460       25.307        0.849      344.000       20.509      860.536
07/02/2014  07:04:00      -12.265       36.749       55.622       18.850       23.154       18.206      355.335      536.086      331.460        0.291        0.061       38.742       12.935        0.111      343.947       20.418      860.543
07/02/2014  07:05:00        2.260       -0.588       28.677       18.443       17.310       17.584      340.134      299.651      309.200        0.089        0.047        2.335       11.847       25.743      343.939       20.405      860.541
07/02/2014  07:06:00      -23.889      -13.254        5.378       16.905       13.297       12.817      285.795      176.800      164.282        0.070        0.031       27.319       10.163        0.138      343.658       19.925      860.556
07/02/2014  07:07:00      -28.869       -5.766        2.297        7.588       12.684        7.969       57.579      160.872       63.506        0.058        0.014       29.439        4.612        0.025      343.544       19.730      860.567
07/02/2014  07:08:00      -28.555       -4.178       -0.949        7.381       10.027        5.374       54.480      100.544       28.884        0.051        0.009       28.859        1.628        0.003      343.494       19.647      860.580
07/02/2014  07:09:00      -15.406       12.275       15.653       30.680       21.017       18.960      941.242      441.734      359.463        0.119        0.087       19.698       15.970        0.657      343.887       20.317      860.580
07/02/2014  07:10:00       55.594       33.416       13.061       28.827       26.014       25.635      831.015      676.723      657.148        0.327        0.108       64.864       15.583        0.058      343.665       19.937      860.590
07/02/2014  07:11:00       85.127       53.694        6.607       25.923       21.410       19.971      672.026      458.401      398.844        0.585        0.076      100.646       14.075        0.020      343.432       19.538      860.597
07/02/2014  07:12:00       25.410       15.375       10.064       42.836       26.149       17.053     1834.949      683.775      290.803        0.190        0.140       29.700       19.674        0.439      343.943       20.410      860.593
07/02/2014  07:13:00       23.252       21.241       15.451       25.249       17.315       15.753      637.524      299.822      248.149        0.121        0.059       31.494        9.748        0.096      343.962       20.444      860.596
07/02/2014  07:14:00       18.138       19.265       18.372       23.808       20.914       18.132      566.830      437.408      328.772        0.119        0.067       26.460       15.721        0.353      344.140       20.747      860.597
07/02/2014  07:15:00       33.246       32.008       10.806       23.690       21.509       19.315      561.207      462.644      373.061        0.182        0.070       46.150       11.750        0.065      344.075       20.638      860.596
07/02/2014  07:16:00       85.676       55.882        9.687       33.732       29.039       29.660     1137.868      843.266      879.704        0.671        0.143      102.290       19.784        0.037      343.781       20.134      860.586
07/02/2014  07:17:00       68.445       56.884        8.383       35.364       26.998       24.960     1250.591      728.882      623.021        0.530        0.130       88.997       19.920        0.050      343.775       20.126      860.598
07/02/2014  07:18:00       45.999       52.799        4.072       37.525       32.278       28.969     1408.162     1041.867      839.220        0.410        0.164       70.026       26.330        0.141      343.940       20.407      860.590
07/02/2014  07:19:00       50.987       60.433       -0.842       36.933       23.150       23.603     1364.020      535.926      557.114        0.435        0.123       79.069       14.776        0.035      343.742       20.068      860.599
07/02/2014  07:20:00       45.134       33.090       10.372       24.036       21.610       18.096      577.749      466.976      327.468        0.231        0.069       55.964       12.739        0.052      343.981       20.476      860.598
07/02/2014  07:21:00       13.435       80.729        1.052       32.348       46.864       26.523     1046.369     2196.240      703.469        0.532        0.197       81.840       30.325        0.137      343.755       20.090      860.605
07/02/2014  07:22:00       -0.412      119.801       -2.758       27.744       30.454       19.701      769.738      927.429      388.140        0.822        0.104      119.802       13.932        0.014      343.769       20.114      860.607
07/02/2014  07:23:00       25.501       69.048        8.416       32.439       40.177       29.822     1052.257     1614.171      889.329        0.452        0.178       73.606       28.031        0.145      344.040       20.580      860.608
07/02/2014  07:24:00       51.741       64.552        3.546       35.862       44.289       26.887     1286.118     1961.502      722.896        0.541        0.199       82.729       16.819        0.041      343.818       20.197      860.613
07/02/2014  07:25:00       75.586       70.831        3.536       38.947       36.071       31.491     1516.831     1301.104      991.706        0.728        0.190      103.587       26.068        0.063      343.732       20.050      860.618
07/02/2014  07:26:00       79.369       33.771       13.901       49.569       32.762       24.590     2457.098     1073.321      604.678        0.588        0.207       86.255       24.490        0.081      343.877       20.298      860.623
07/02/2014  07:27:00       44.607       69.345      -10.065       27.215       36.401       25.286      740.641     1325.035      639.380        0.480        0.135       82.453       18.352        0.050      343.711       20.015      860.622
07/02/2014  07:28:00       28.136       57.202       -5.608       26.240       34.992       25.548      688.564     1224.444      652.691        0.333        0.128       63.748       20.045        0.099      343.804       20.174      860.626
07/02/2014  07:29:00       10.889      123.608      -17.587       23.513       29.838       16.711      552.865      890.295      279.269        0.871        0.086      124.087       12.118        0.010      343.715       20.022      860.621
07/02/2014  07:30:00       29.985       90.711      -10.581       23.789       40.364       20.097      565.912     1629.253      403.873        0.592        0.130       95.538       19.193        0.040      343.755       20.090      860.631
07/02/2014  07:31:00        3.157       46.449        3.031       27.838       31.465       23.883      774.947      990.017      570.389        0.226        0.117       46.556       20.338        0.191      344.020       20.543      860.633
07/02/2014  07:32:00      -20.380       59.075        1.562       19.474       33.759       23.050      379.248     1139.647      531.306        0.298        0.103       62.492       24.189        0.150      344.031       20.562      860.633
07/02/2014  07:33:00      -18.512       57.234       10.115       20.141       32.121       26.614      405.679     1031.789      708.279        0.293        0.107       60.153       21.284        0.125      344.331       21.075      860.637
07/02/2014  07:34:00       15.830       67.222       13.340       44.194       36.132       26.000     1953.076     1305.519      675.990        0.444        0.197       69.060       12.052        0.030      344.227       20.897      860.632
07/02/2014  07:35:00       69.328       50.796       12.187       26.532       23.848       21.783      703.935      568.725      474.496        0.464        0.087       85.945       10.920        0.016      343.986       20.483      860.630
07/02/2014  07:36:00       75.115       59.471        0.316       23.307       20.038       19.404      543.214      401.540      376.511        0.525        0.066       95.808       12.144        0.016      343.858       20.266      860.644
07/02/2014  07:37:00       43.642       44.854        7.263       26.053       30.096       20.370      678.736      905.741      414.945        0.298        0.100       62.582       19.341        0.096      344.062       20.615      860.642
07/02/2014  07:38:00       19.841       18.303       23.092       27.820       44.326       24.520      773.948     1964.800      601.208        0.230        0.167       26.994       17.972        0.443      344.393       21.182      860.641
07/02/2014  07:39:00       14.346        3.908       13.585       29.156       49.055       29.619      850.086     2406.432      877.282        0.227        0.207       14.869       16.753        1.270      344.148       20.761      860.637
07/02/2014  07:40:00       57.317       39.878       40.226       35.593       44.881       25.356     1266.826     2014.327      642.935        0.521        0.196       69.825       13.816        0.039      343.859       20.269      860.635
07/02/2014  07:41:00       37.567       21.957       35.612       44.441       43.354       21.791     1975.010     1879.578      474.864        0.374        0.216       43.513       22.846        0.276      344.284       20.995      860.640
07/02/2014  07:42:00      112.508       53.162       12.189       19.911       23.444       26.686      396.460      549.603      712.159        0.865        0.083      124.436        9.310        0.006      343.855       20.261      860.636
07/02/2014  07:43:00      108.999       60.616       13.137       28.572       37.468       24.325      816.337     1403.846      591.714        0.927        0.141      124.720       17.017        0.019      343.922       20.374      860.625
07/02/2014  07:44:00       90.556       63.471        8.036       15.275       22.760       16.209      233.322      518.007      262.737        0.665        0.051      110.585       10.649        0.009      343.899       20.335      860.617
07/02/2014  07:45:00       59.583       51.923       -6.605       29.558       23.378       13.730      873.650      546.542      188.502        0.395        0.080       79.032       14.482        0.034      344.049       20.593      860.614
07/02/2014  07:46:00       18.141       25.678       20.461       21.835       25.566       23.457      476.776      653.641      550.224        0.154        0.084       31.439        6.642        0.045      344.520       21.398      860.625
07/02/2014  07:47:00       48.936       52.558       10.173       25.674       14.455       24.354      659.143      208.935      593.100        0.336        0.073       71.813       17.513        0.059      343.905       20.346      860.629
07/02/2014  07:48:00       80.232       44.272        9.638       38.565       27.313       21.467     1487.292      745.991      460.818        0.559        0.135       91.636       11.877        0.017      344.139       20.747      860.638
07/02/2014  07:49:00       66.483       28.539        3.594       32.637       38.746       25.895     1065.187     1501.287      670.540        0.424        0.162       72.350       18.560        0.066      344.405       21.200      860.630
07/02/2014  07:50:00       69.183       42.749        4.344       28.854       22.722       22.706      832.566      516.295      515.564        0.425        0.093       81.325       20.617        0.064      344.340       21.091      860.626
07/02/2014  07:51:00       65.049       49.059       19.387       16.512       16.101       21.025      272.659      259.226      442.046        0.399        0.049       81.474        7.192        0.008      344.300       21.021      860.624
07/02/2014  07:52:00       63.215       25.300        1.215       20.506       27.484       17.431      420.502      755.353      303.846        0.306        0.074       68.089       10.761        0.025      344.233       20.907      860.628
07/02/2014  07:53:00       17.348       25.942       20.312       22.464       23.969       14.394      504.647      574.502      207.197        0.134        0.064       31.208       13.140        0.177      344.832       21.931      860.639
07/02/2014  07:54:00       23.848        8.599        7.165       12.778       15.201       20.789      163.272      231.081      432.193        0.076        0.041       25.350        8.453        0.111      344.521       21.399      860.656
07/02/2014  07:55:00       -3.610        9.043       30.107       16.615       20.665       18.862      276.063      427.045      355.770        0.103        0.053        9.737       10.769        1.223      345.498       23.073      860.677
07/02/2014  07:56:00        1.074       30.633       16.780       20.069       24.479       25.024      402.770      599.220      626.184        0.142        0.081       30.652       19.853        0.420      344.707       21.719      860.675
07/02/2014  07:57:00       20.445       40.232       -7.579       14.372       18.420       17.640      206.557      339.315      311.153        0.148        0.043       45.128        8.795        0.038      344.361       21.125      860.681
07/02/2014  07:58:00       25.146        8.385       32.784       24.662       15.504       17.817      608.221      240.381      317.463        0.147        0.058       26.507        7.231        0.074      344.854       21.969      860.679
07/02/2014  07:59:00       37.343        3.055       22.022       32.737       22.119       20.610     1071.724      489.260      424.773        0.194        0.099       37.467       18.387        0.241      345.203       22.567      860.690
07/02/2014  08:00:00       14.166       44.062        4.857       24.705       22.376       18.720      610.354      500.675      350.445        0.181        0.073       46.283       14.624        0.100      344.837       21.941      860.700
07/02/2014  08:01:00        0.074        4.158       32.455       24.921       23.701       11.821      621.063      561.760      139.730        0.120        0.066        4.158       11.677        7.885      345.339       22.799      860.704
07/02/2014  08:02:00      -27.152       16.188        2.279       22.243       14.516       19.413      494.733      210.725      376.853        0.104        0.054       31.612       15.293        0.234      344.745       21.782      860.704
07/02/2014  08:03:00      -24.946       13.639       15.249       21.339       12.118       17.002      455.338      146.854      289.080        0.097        0.045       28.431       13.912        0.239      344.933       22.106      860.709
07/02/2014  08:04:00      -19.926       15.330       16.935       20.494       16.919       17.187      420.012      286.267      295.381        0.096        0.050       25.141        9.010        0.128      345.022       22.256      860.724
07/02/2014  08:05:00        8.517        0.659       29.385       17.725        8.011       12.017      314.187       64.181      144.400        0.073        0.026        8.542        7.728        0.819      345.523       23.115      860.731
07/02/2014  08:06:00        2.757        8.666       20.604       14.713       15.243       12.861      216.479      232.350      165.412        0.056        0.031        9.094        8.882        0.954      345.870       23.710      860.743
07/02/2014  08:07:00       48.026       26.286        9.273       33.664       24.280       22.014     1133.232      589.504      484.627        0.265        0.110       54.749       14.913        0.074      345.207       22.572      860.736
07/02/2014  08:08:00       74.149       62.247        6.746       27.982       19.251       25.929      782.976      370.611      672.317        0.562        0.091       96.813        9.059        0.009      344.891       22.031      860.734
07/02/2014  08:09:00       87.719       48.601        9.359       25.939       27.481       24.857      672.843      755.202      617.878        0.609        0.102      100.283       10.237        0.010      344.615       21.559      860.729
07/02/2014  08:10:00       40.802       10.412       16.027       17.707       24.595       23.335      313.548      604.895      544.509        0.175        0.073       42.109       13.558        0.104      345.093       22.378      860.727
07/02/2014  08:11:00       36.196       19.734       14.785       31.465       23.451       23.127      990.043      549.939      534.844        0.200        0.104       41.226       15.959        0.150      345.409       22.921      860.731
07/02/2014  08:12:00       86.981       68.070       10.923       26.307       27.221       30.123      692.050      741.001      907.415        0.733        0.117      110.450       16.783        0.023      344.878       22.010      860.722
07/02/2014  08:13:00       75.863       66.560       16.990       26.652       24.445       26.273      710.315      597.566      690.256        0.624        0.100      100.923       11.872        0.014      344.858       21.973      860.728
07/02/2014  08:14:00       64.693       79.427       38.948       22.633       17.579       24.366      512.256      309.030      593.693        0.671        0.071      102.439       12.136        0.014      344.677       21.665      860.724
07/02/2014  08:15:00       59.167       44.848       25.258       25.285       29.367       33.568      639.348      862.427     1126.833        0.439        0.131       74.243       16.161        0.047      344.813       21.899      860.739
07/02/2014  08:16:00       31.965       13.267       15.837       24.026       16.532       21.913      577.242      273.296      480.184        0.139        0.067       34.608       15.275        0.195      344.872       22.000      860.748
07/02/2014  08:17:00       64.069        4.696       17.646       23.455       24.234       28.584      550.142      587.294      817.028        0.320        0.098       64.241       16.180        0.063      344.608       21.548      860.741
07/02/2014  08:18:00       61.647       28.839        7.515       22.929       23.901       27.144      525.717      571.260      736.779        0.326        0.092       68.059       16.964        0.062      344.613       21.557      860.740
07/02/2014  08:19:00       59.052       14.182        1.159       28.802       35.074       22.068      829.567     1230.166      487.011        0.312        0.127       60.731       12.950        0.045      344.720       21.741      860.733
07/02/2014  08:20:00       39.676       32.854       -2.238       16.407       32.402       19.422      269.197     1049.912      377.232        0.218        0.085       51.513       10.065        0.038      344.682       21.674      860.735
07/02/2014  08:21:00       48.802       41.720        7.616       17.305       20.529       28.324      299.457      421.444      802.226        0.285        0.076       64.204       16.692        0.068      344.857       21.974      860.735
07/02/2014  08:22:00       48.098      -18.533       17.888       36.093       48.468       37.238     1302.669     2349.161     1386.635        0.401        0.252       51.545       27.521        0.285      344.683       21.677      860.729
07/02/2014  08:23:00        7.079        1.723       30.525       20.321       51.885       41.966      412.951     2692.061     1761.181        0.292        0.243        7.286       42.244       33.615      344.956       22.143      860.737
07/02/2014  08:24:00       32.286       33.449       33.044       37.188       26.027       39.175     1382.939      677.420     1534.688        0.342        0.180       46.489       27.501        0.350      345.173       22.514      860.745
07/02/2014  08:25:00       13.843       16.467       25.381       18.519       16.231       15.547      342.947      263.438      241.713        0.098        0.042       21.513        9.093        0.179      345.613       23.268      860.754
07/02/2014  08:26:00      -38.237      -12.676        5.317       15.342       14.726       17.177      235.388      216.856      295.041        0.120        0.037       40.283       15.190        0.142      345.372       22.857      860.754
07/02/2014  08:27:00       -5.748      -14.014       -1.029       10.915       14.428       11.534      119.144      208.179      133.024        0.035        0.023       15.147        9.576        0.400      345.346       22.811      860.745
07/02/2014  08:28:00      -27.874       46.591       -4.739       17.650       30.558       22.213      311.537      933.779      493.425        0.235        0.087       54.292       16.695        0.095      345.509       23.092      860.733
07/02/2014  08:29:00      -12.038       -5.944       -3.039       16.570       27.661       18.960      274.551      765.114      359.491        0.079        0.070       13.426       15.884        1.400      345.670       23.367      860.723
07/02/2014  08:30:00       -1.940       44.796       17.241       19.193       34.738       27.446      368.370     1206.747      753.291        0.232        0.116       44.838       24.903        0.308      346.232       24.332      860.712
07/02/2014  08:31:00       -1.298       22.332       -0.928       16.713       19.852       26.242      279.339      394.114      688.657        0.093        0.068       22.370       16.794        0.564      346.007       23.946      860.710
07/02/2014  08:32:00      -24.454       11.717       13.216       12.214       11.833       13.636      149.188      140.028      185.940        0.069        0.024       27.117        5.095        0.035      345.945       23.839      860.722
07/02/2014  08:33:00      -52.328       -0.065       -1.615       21.520       15.775        9.817      463.113      248.853       96.375        0.177        0.040       52.328        7.274        0.019      345.302       22.735      860.725
07/02/2014  08:34:00      -48.614       12.752        9.551       27.199       31.158       20.126      739.801      970.846      405.075        0.237        0.106       50.259       15.986        0.101      345.733       23.475      860.739
07/02/2014  08:35:00      -26.179        6.654       12.778       23.935       12.888       16.667      572.884      166.102      277.781        0.095        0.051       27.012       16.009        0.351      346.041       24.005      860.736
07/02/2014  08:36:00      -29.079       11.224       -1.374       17.732       13.045       19.016      314.433      170.180      361.607        0.091        0.042       31.170       14.711        0.223      345.737       23.480      860.732
07/02/2014  08:37:00      -31.375        0.354        6.083       13.521       12.035       10.714      182.819      144.833      114.797        0.073        0.022       31.377        7.604        0.059      345.515       23.099      860.727
07/02/2014  08:38:00      -37.027        2.147        1.102        7.905        5.744        6.645       62.495       32.999       44.152        0.076        0.007       37.090        2.968        0.006      345.428       22.951      860.708
07/02/2014  08:39:00      -22.925        5.995        1.142        7.810        8.620        8.863       60.997       74.297       78.559        0.039        0.011       23.696        5.282        0.050      345.730       23.470      860.705
07/02/2014  08:40:00      -27.184       14.363       10.700       11.917       16.658       18.262      142.017      277.485      333.495        0.091        0.038       30.745       11.043        0.129      346.055       24.029      860.698
07/02/2014  08:41:00      -36.795       -6.595        1.034       15.582       21.390       10.954      242.811      457.544      119.998        0.111        0.041       37.381        7.102        0.036      345.648       23.327      860.697
07/02/2014  08:42:00      -45.511       -2.257       -2.917       12.471       20.448       12.455      155.522      418.102      155.138        0.141        0.036       45.567        6.435        0.020      345.562       23.180      860.700
07/02/2014  08:43:00      -20.353        4.223        3.814       14.013        9.768       12.588      196.370       95.423      158.453        0.045        0.023       20.787        3.345        0.026      346.060       24.037      860.699
07/02/2014  08:44:00      -39.525       -0.630        1.161       15.054        8.928       10.147      226.626       79.714      102.953        0.099        0.020       39.530        7.738        0.038      345.747       23.499      860.701
07/02/2014  08:45:00      -33.101      -49.072       -3.099       23.995       32.595       16.059      575.779     1062.458      257.895        0.270        0.095       59.192       13.102        0.049      345.856       23.687      860.702
07/02/2014  08:46:00      -26.383      -40.057      -12.282       11.169       29.586       17.687      124.736      875.310      312.840        0.188        0.066       47.965       18.433        0.148      345.767       23.535      860.703
07/02/2014  08:47:00      -42.606      -58.786       -4.654       12.774       15.420       11.865      163.164      237.767      140.783        0.292        0.027       72.602        6.484        0.008      345.728       23.467      860.706
07/02/2014  08:48:00      -54.711      -21.056      -13.014       24.297       15.347       13.282      590.329      235.536      176.409        0.230        0.050       58.623       10.717        0.033      345.808       23.604      860.707
07/02/2014  08:49:00      -17.878      -19.467        2.555       17.674       20.327       18.576      312.388      413.167      345.080        0.089        0.054       26.431       17.709        0.449      345.939       23.827      860.717
07/02/2014  08:50:00      -44.063      -16.551        7.445       34.020       21.771       17.385     1157.394      473.988      302.229        0.210        0.097       47.069       13.076        0.077      346.168       24.221      860.719
07/02/2014  08:51:00      -29.224       -6.631        3.548       16.384       22.191       15.664      268.444      492.457      245.347        0.096        0.050       29.967       11.351        0.143      346.140       24.174      860.723
07/02/2014  08:52:00      -42.489      -23.280        1.002       26.459       17.998       11.870      700.053      323.913      140.906        0.176        0.058       48.448       11.547        0.057      346.039       23.999      860.715
07/02/2014  08:53:00      -51.886      -18.640       -2.173       18.531       16.028       11.459      343.381      256.897      131.316        0.189        0.037       55.133        9.634        0.031      345.906       23.772      860.710
07/02/2014  08:54:00      -42.616        8.856        7.622       17.342       19.366       13.623      300.740      375.050      185.579        0.141        0.043       43.526        6.070        0.019      346.188       24.258      860.711
07/02/2014  08:55:00      -33.720       -2.840       -4.762       22.478       27.808       13.939      505.248      773.279      194.288        0.132        0.074       33.839       11.518        0.116      346.179       24.241      860.702
07/02/2014  08:56:00      -27.256      -16.412       -0.584       18.464       17.403       14.755      340.905      302.854      217.703        0.094        0.043       31.816       10.684        0.113      346.361       24.552      860.691
07/02/2014  08:57:00      -18.685       -9.844       11.591       14.627       22.036       16.829      213.961      485.593      283.202        0.078        0.049       21.119       10.953        0.269      346.598       24.962      860.687
07/02/2014  08:58:00       -1.139      -42.817        7.244       31.070       31.215       30.098      965.338      974.360      905.912        0.237        0.142       42.832       19.555        0.208      346.758       25.237      860.678
07/02/2014  08:59:00       -4.555      -25.903       27.493       24.825       32.633       26.092      616.290     1064.940      680.802        0.190        0.118       26.300       24.759        0.886      347.172       25.950      860.667
07/02/2014  09:00:00       -6.201      -45.119        0.079       36.610       29.782       28.550     1340.294      886.974      815.083        0.256        0.152       45.543       24.698        0.294      346.737       25.201      860.660
07/02/2014  09:01:00      -20.734        3.101       13.264       12.134       19.264       13.964      147.238      371.113      195.005        0.066        0.036       20.965        9.283        0.196      346.777       25.268      860.654
07/02/2014  09:02:00       -7.628        1.275       29.952       14.274       14.382       14.166      203.738      206.843      200.665        0.078        0.031        7.734        8.892        1.322      347.740       26.929      860.650
07/02/2014  09:03:00      -25.960       -8.388       -4.270       16.458       13.433       13.447      270.860      180.453      180.818        0.070        0.032       27.281        8.988        0.109      346.551       24.882      860.641
07/02/2014  09:04:00      -47.166      -12.837       -5.207       34.188       21.341       17.704     1168.792      455.428      313.429        0.218        0.097       48.882        4.632        0.009      346.529       24.842      860.627
07/02/2014  09:05:00       -9.044       -1.908       22.617       16.146       15.647       21.302      260.682      244.839      453.770        0.078        0.048        9.243       11.860        1.646      347.678       26.823      860.607
07/02/2014  09:06:00      -25.237      -11.261        5.806       14.503       18.484       18.405      210.346      341.652      338.733        0.084        0.045       27.635       13.715        0.246      346.787       25.286      860.596
07/02/2014  09:07:00      -27.151      -17.224      -10.012       17.806       26.568       22.215      317.064      705.858      493.501        0.133        0.076       32.154       18.088        0.316      346.775       25.266      860.576
07/02/2014  09:08:00      -32.204        0.829       19.963       42.873       14.993       22.142     1838.103      224.781      490.247        0.199        0.128       32.214       19.165        0.354      347.301       26.174      860.563
07/02/2014  09:09:00      -25.954        2.070        9.625       22.348       19.215       15.763      499.455      369.222      248.464        0.094        0.056       26.036       10.635        0.167      347.106       25.837      860.547
07/02/2014  09:10:00       -2.885       -0.072        2.368       16.438       17.513       13.972      270.197      306.722      195.221        0.039        0.039        2.886        9.203       10.168      347.317       26.199      860.540
07/02/2014  09:11:00       19.647      -35.899       18.576       39.254       39.240       28.610     1540.899     1539.741      818.515        0.296        0.195       40.924       25.233        0.380      347.458       26.441      860.532
07/02/2014  09:12:00       31.668      -40.851       26.046       32.772       39.713       26.564     1074.012     1577.139      705.634        0.335        0.168       51.688       23.064        0.199      347.506       26.527      860.523
07/02/2014  09:13:00       36.348       -5.402       22.411       34.631       36.451       28.977     1199.302     1328.671      839.680        0.261        0.168       36.747       25.024        0.464      347.606       26.699      860.513
07/02/2014  09:14:00       -9.489      -25.195       33.044       23.241       36.543       25.576      540.164     1335.367      654.121        0.217        0.126       26.922       21.661        0.647      347.714       26.884      860.505
07/02/2014  09:15:00      -15.402        4.556       51.713       17.449       26.157       16.505      304.470      684.201      272.408        0.210        0.063       16.062       14.477        0.812      348.305       27.906      860.510
07/02/2014  09:16:00      -12.935       28.090       71.805       22.412       33.732       19.345      502.302     1137.835      374.233        0.406        0.101       30.925       17.971        0.338      348.139       27.619      860.511
07/02/2014  09:17:00      -28.517       25.678       60.400       26.312       34.192       26.719      692.298     1169.106      713.881        0.385        0.129       38.374       23.291        0.368      347.478       26.477      860.502
07/02/2014  09:18:00      -13.201       -4.685       30.877       25.758       32.697       30.081      663.450     1069.100      904.869        0.189        0.132       14.008       25.626        3.347      347.563       26.625      860.494
07/02/2014  09:19:00       -0.482       -1.163       33.432       20.496       30.702       20.175      420.085      942.643      407.041        0.144        0.088        1.259       15.202      145.794      347.945       27.284      860.492
07/02/2014  09:20:00      -13.382       24.442       41.173       17.788       19.006       14.640      316.403      361.224      214.337        0.168        0.045       27.865        8.393        0.091      348.269       27.843      860.485
07/02/2014  09:21:00       -6.610       11.026       52.269       11.213       23.342       13.706      125.724      544.868      187.854        0.188        0.043       12.855       12.734        0.981      348.408       28.083      860.480
07/02/2014  09:22:00       54.690       65.065       38.321       52.246       34.392       35.251     2729.693     1182.803     1242.610        0.692        0.258       84.997       31.349        0.136      347.210       26.016      860.476
07/02/2014  09:23:00       95.831       70.599       13.256       35.074       24.666       30.804     1230.156      608.394      948.876        0.856        0.139      119.028       17.263        0.021      347.221       26.033      860.470
07/02/2014  09:24:00       97.017       61.669        7.496       40.135       36.943       33.308     1610.833     1364.772     1109.410        0.868        0.204      114.958       27.641        0.058      347.073       25.779      860.464
07/02/2014  09:25:00      109.042       69.252        3.007       40.278       31.358       28.661     1622.310      983.311      821.476        1.006        0.171      129.174       24.041        0.035      346.923       25.520      860.459
07/02/2014  09:26:00       59.464        2.225       -6.311       36.087       43.052       24.842     1302.284     1853.448      617.132        0.368        0.189       59.506       15.904        0.071      346.962       25.587      860.442
07/02/2014  09:27:00        8.513       11.304       56.637       25.275       26.697       28.548      638.800      712.727      815.013        0.279        0.108       14.151       17.999        1.618      348.011       27.397      860.427
07/02/2014  09:28:00       24.366       59.341       78.755       26.310       34.207       18.539      692.227     1170.125      343.711        0.626        0.110       64.149       16.661        0.067      347.583       26.658      860.415
07/02/2014  09:29:00       21.143       35.296       46.729       31.198       30.430       28.184      973.327      925.989      794.346        0.328        0.135       41.144       24.112        0.343      347.615       26.713      860.406
07/02/2014  09:30:00       -0.811       18.140       42.935       12.228       21.095       10.891      149.532      444.995      118.605        0.144        0.036       18.158       10.437        0.330      347.975       27.335      860.411
07/02/2014  09:31:00       43.935       41.269        2.126       19.102       24.913       22.229      364.883      620.676      494.147        0.256        0.074       60.277       13.991        0.054      347.274       26.124      860.408
07/02/2014  09:32:00       -7.084       28.168       19.107       22.845       21.880       22.176      521.887      478.743      491.784        0.135        0.075       29.045       15.619        0.289      348.142       27.624      860.406
07/02/2014  09:33:00       -3.393       38.994       13.570       17.232       33.519       23.757      296.937     1123.514      564.381        0.185        0.099       39.142       21.195        0.293      348.351       27.985      860.408
07/02/2014  09:34:00       -8.065       19.538       26.732       22.652       37.997       25.234      513.119     1443.779      636.731        0.188        0.130       21.137       17.341        0.673      348.577       28.376      860.394
07/02/2014  09:35:00        0.395       83.706        5.510       22.568       82.753       30.721      509.304     6848.078      943.777        0.767        0.415       83.707       42.521        0.258      347.893       27.193      860.384
07/02/2014  09:36:00       -8.970       88.569       12.727       29.402       44.683       38.288      864.492     1996.531     1465.959        0.621        0.216       89.022       33.104        0.138      347.950       27.291      860.366
07/02/2014  09:37:00        1.706       56.742       21.778       27.981       48.914       37.215      782.931     2392.598     1384.927        0.413        0.228       56.767       30.770        0.294      348.284       27.871      860.348
07/02/2014  09:38:00       15.373       79.020        1.544       51.862       41.224       36.139     2689.700     1699.429     1306.054        0.609        0.285       80.502       28.579        0.126      348.015       27.404      860.338
07/02/2014  09:39:00       59.274       60.418        3.644       54.718       47.012       34.504     2994.082     2210.133     1190.560        0.678        0.320       84.639       23.406        0.076      347.925       27.246      860.325
07/02/2014  09:40:00      119.808       88.878       24.793       37.362       36.529       36.746     1395.919     1334.350     1350.234        1.347        0.204      149.175       19.990        0.018      347.456       26.437      860.324
07/02/2014  09:41:00       11.463       67.901      -10.763       45.395       51.450       24.027     2060.661     2647.152      577.307        0.507        0.264       68.862       14.453        0.044      347.412       26.362      860.322
07/02/2014  09:42:00       32.510       26.920        4.430       42.179       54.695       20.190     1779.108     2991.591      407.649        0.349        0.259       42.209        8.712        0.043      347.555       26.608      860.305
07/02/2014  09:43:00       11.780       86.071        6.584       35.691       41.255       31.899     1273.854     1701.936     1017.538        0.579        0.200       86.874       21.521        0.061      347.947       27.285      860.305
07/02/2014  09:44:00      -20.676      146.020      -18.148       34.072       32.296       22.322     1160.886     1043.016      498.292        1.239        0.135      147.477       14.384        0.010      347.360       26.273      860.299
07/02/2014  09:45:00       14.067       54.433        7.071       40.805       47.951       29.660     1665.064     2299.312      879.688        0.403        0.242       56.221       28.996        0.266      348.334       27.956      860.294
07/02/2014  09:46:00       -2.578       35.565       20.693       25.917       35.100       27.497      671.684     1231.985      756.100        0.218        0.133       35.658       23.443        0.432      348.742       28.661      860.287
07/02/2014  09:47:00       19.652       34.223       27.292       26.381       29.799       25.975      695.933      887.991      674.698        0.228        0.113       39.464       19.062        0.233      348.568       28.359      860.269
07/02/2014  09:48:00       13.233        6.887       37.032       21.209       20.762       23.637      449.805      431.060      558.727        0.152        0.072       14.918       15.100        1.024      348.805       28.771      860.269
07/02/2014  09:49:00        8.200       21.133       16.580       19.578       39.842       21.633      383.291     1587.401      467.985        0.161        0.122       22.668       23.699        1.093      348.679       28.553      860.252
07/02/2014  09:50:00       10.892       11.796       38.214       33.283       20.945       17.059     1107.789      438.673      291.017        0.178        0.092       16.055        5.089        0.100      348.846       28.840      860.251
07/02/2014  09:51:00      -23.131        1.369        9.223       15.440       18.597       16.857      238.381      345.842      284.158        0.075        0.043       23.171        9.511        0.168      348.068       27.497      860.234
07/02/2014  09:52:00      -49.678       46.873        2.284       34.425       29.432       22.852     1185.099      866.238      522.203        0.362        0.129       68.301       15.588        0.052      347.985       27.352      860.218
07/02/2014  09:53:00       -2.171       77.974       11.972       22.309       56.261       29.389      497.677     3165.285      863.732        0.538        0.226       78.004       30.293        0.151      348.512       28.263      860.212
07/02/2014  09:54:00        4.618       55.720       19.262       25.379       36.003       30.531      644.079     1296.251      932.138        0.318        0.144       55.911       25.326        0.205      348.740       28.658      860.193
07/02/2014  09:55:00       -0.784       49.499       12.535       26.141       45.730       24.388      683.371     2091.223      594.771        0.299        0.168       49.505       25.711        0.270      348.470       28.189      860.180
07/02/2014  09:56:00        6.022       40.305       20.274       31.959       30.365       24.542     1021.352      922.028      602.309        0.231        0.127       40.752       19.006        0.218      348.944       29.012      860.176
07/02/2014  09:57:00       21.169       23.833       29.020       37.729       23.308       22.796     1423.440      543.280      519.645        0.217        0.124       31.877       22.995        0.520      348.695       28.580      860.160
07/02/2014  09:58:00        3.975        9.111        4.928       30.813       26.024       17.163      949.452      677.250      294.585        0.102        0.096        9.940       15.640        2.476      348.295       27.887      860.163
07/02/2014  09:59:00       -8.730      -16.814       -1.497       24.213       14.455       18.187      586.249      208.948      330.773        0.074        0.056       18.945       16.617        0.769      348.302       27.900      860.157
07/02/2014  10:00:00       -1.010      -74.375        6.128       29.452       37.100       19.358      867.438     1376.433      374.721        0.409        0.131       74.382       20.785        0.078      347.847       27.113      860.144
07/02/2014  10:01:00       -7.863      -76.225       -0.980       24.867       20.383       19.418      618.359      415.450      377.076        0.364        0.071       76.630       10.912        0.020      347.832       27.088      860.138
07/02/2014  10:02:00      -38.640      -92.327        1.138       31.628       41.818       22.913     1000.326     1748.777      524.984        0.665        0.164      100.087       24.026        0.058      348.002       27.381      860.132
07/02/2014  10:03:00      -47.358       -7.513        4.494       24.441       27.727       15.309      597.372      768.788      234.380        0.196        0.080       47.950       12.438        0.067      348.168       27.669      860.131
07/02/2014  10:04:00      -39.790      -53.973        1.120       26.883       37.479       18.640      722.698     1404.701      347.444        0.349        0.124       67.055       10.250        0.023      348.042       27.449      860.145
07/02/2014  10:05:00      -25.941       -9.318        9.167       42.093       25.131       24.026     1771.829      631.574      577.249        0.191        0.149       27.564       19.518        0.501      348.502       28.246      860.141
07/02/2014  10:06:00      -39.423      -63.614        9.541       36.752       27.459       24.369     1350.694      753.995      593.864        0.419        0.135       74.839       18.088        0.058      348.102       27.554      860.140
07/02/2014  10:07:00        0.480      -21.116       28.702       23.106       28.237       16.655      533.871      797.336      277.382        0.144        0.080       21.121       16.563        0.615      348.945       29.014      860.142
07/02/2014  10:08:00      -21.309      -10.819       28.034       30.578       20.699       16.274      935.040      428.446      264.859        0.149        0.081       23.899       17.200        0.518      349.082       29.251      860.147
07/02/2014  10:09:00      -41.524      -30.778       16.969       30.732       32.626       23.460      944.455     1064.434      550.378        0.276        0.128       51.687       19.684        0.145      348.628       28.462      860.148
07/02/2014  10:10:00        1.037       37.079       10.590       36.739       34.689       24.905     1349.749     1203.339      620.241        0.233        0.159       37.094       18.848        0.258      348.811       28.781      860.154
07/02/2014  10:11:00      -65.232       27.657       14.253       31.018       21.218       21.590      962.102      450.188      466.113        0.355        0.094       70.853       18.874        0.071      348.368       28.014      860.146
07/02/2014  10:12:00      -88.535       41.385      -12.382       44.202       30.032       22.136     1953.825      901.910      490.014        0.652        0.167       97.731       18.127        0.034      348.163       27.659      860.145
07/02/2014  10:13:00      -57.051       32.873       -4.870       48.657       23.618       18.584     2367.521      557.820      345.357        0.381        0.164       65.844       12.503        0.036      348.292       27.882      860.142
07/02/2014  10:14:00       26.556       27.761       34.640       46.237       38.836       35.843     2137.888     1508.199     1284.736        0.380        0.247       38.417       19.226        0.250      349.064       29.217      860.131
07/02/2014  10:15:00       -1.936        9.076       56.309       32.793       38.830       28.088     1075.410     1507.802      788.924        0.331        0.169        9.280       23.643        6.491      349.288       29.606      860.126
07/02/2014  10:16:00      -36.974       15.744       19.018       26.238       24.471       22.913      688.454      598.819      525.002        0.189        0.091       40.186       19.603        0.238      348.798       28.758      860.109
07/02/2014  10:17:00      -56.475      -27.445        4.784       22.453       46.703       16.832      504.158     2181.129      283.304        0.347        0.148       62.791       21.068        0.113      348.161       27.655      860.109
07/02/2014  10:18:00      -11.802      -74.417        9.577       37.461       42.033       30.848     1403.345     1766.737      951.623        0.494        0.206       75.347       28.852        0.147      348.416       28.096      860.124
07/02/2014  10:19:00      -28.501     -103.331        5.571       37.300       45.370       36.959     1391.324     2058.482     1365.972        0.817        0.241      107.190       20.629        0.037      348.336       27.957      860.118
07/02/2014  10:20:00      -25.883      -58.583        5.759       25.049       72.815       24.311      627.470     5302.053      591.047        0.533        0.326       64.046       28.739        0.201      348.333       27.955      860.119
07/02/2014  10:21:00        7.372      -11.318       26.242       20.520       32.174       25.936      421.088     1035.138      672.654        0.150        0.106       13.507       18.243        1.824      348.950       29.022      860.107
07/02/2014  10:22:00       37.741       41.516       27.038       35.898       53.777       32.420     1288.658     2891.939     1051.055        0.455        0.262       56.107       22.556        0.162      348.884       28.907      860.090
07/02/2014  10:23:00       81.498       62.345       22.877       32.996       27.741       34.621     1088.712      769.540     1198.617        0.705        0.153      102.610       17.427        0.029      348.483       28.212      860.091
07/02/2014  10:24:00       36.717       28.163       43.966       48.992       36.007       30.807     2400.212     1296.474      949.092        0.436        0.232       46.274       26.110        0.318      349.071       29.230      860.090
07/02/2014  10:25:00      109.029       54.058       43.964       62.990       43.719       46.400     3967.778     1911.326     2152.992        1.239        0.402      121.694       20.312        0.028      348.625       28.457      860.100
07/02/2014  10:26:00        6.086       -7.341       25.372       22.805       29.909       22.625      520.049      894.566      511.900        0.133        0.096        9.536       10.678        1.254      349.458       29.902      860.098
07/02/2014  10:27:00       -4.820       -9.797       34.094       22.470       39.944       23.088      504.906     1595.512      533.052        0.196        0.132       10.918       24.457        5.018      349.133       29.338      860.099
07/02/2014  10:28:00       -8.283       17.311       38.956       10.259       19.738       16.287      105.254      389.573      265.274        0.132        0.038       19.191       11.471        0.357      350.021       30.879      860.092
07/02/2014  10:29:00       22.792       23.708       22.133       35.075       25.411       26.258     1230.280      645.740      689.502        0.207        0.128       32.886       11.223        0.116      349.529       30.025      860.078
07/02/2014  10:30:00        9.180        4.973       37.878       28.816       31.189       29.485      830.334      972.783      869.348        0.211        0.134       10.441       18.664        3.195      349.941       30.739      860.079
07/02/2014  10:31:00       19.008       16.130       53.508       39.646       35.690       27.156     1571.825     1273.757      737.466        0.353        0.179       24.930       12.611        0.256      349.699       30.320      860.066
07/02/2014  10:32:00       46.479       48.048       49.952       47.319       43.685       42.564     2239.062     1908.382     1811.712        0.646        0.298       66.850       32.736        0.240      349.266       29.569      860.078
07/02/2014  10:33:00       23.113       31.094       36.220       50.467       38.823       34.461     2546.883     1507.232     1187.555        0.403        0.262       38.743       24.698        0.406      349.017       29.136      860.074
07/02/2014  10:34:00       37.375       33.784       -4.112       49.822       52.896       35.155     2482.261     2797.991     1235.871        0.453        0.326       50.381       27.611        0.300      348.982       29.074      860.081
07/02/2014  10:35:00       11.508      154.644       -8.536       27.511       43.039       31.567      756.859     1852.370      996.465        1.386        0.180      155.071       25.634        0.027      348.596       28.409      860.072
07/02/2014  10:36:00       70.231       62.823       -3.157       33.647       29.937       30.377     1132.130      896.241      922.784        0.592        0.148       94.229       24.690        0.069      348.566       28.356      860.064
07/02/2014  10:37:00        3.455       51.311        8.976       30.270       38.585       35.888      916.259     1488.811     1287.914        0.321        0.185       51.427       31.162        0.367      349.255       29.550      860.062
07/02/2014  10:38:00        6.202       38.318       18.482       30.796       55.692       30.923      948.392     3101.640      956.256        0.343        0.250       38.816       36.656        0.892      349.443       29.876      860.058
07/02/2014  10:39:00       -6.716       13.119       15.297       24.519       23.990       21.207      601.193      575.503      449.730        0.104        0.081       14.738       18.242        1.532      349.562       30.082      860.058
07/02/2014  10:40:00      -43.808       34.791       -7.602       23.857       30.653       25.411      569.156      939.609      645.725        0.267        0.108       55.943       15.252        0.074      348.963       29.042      860.054
07/02/2014  10:41:00      -11.679      -26.143       -5.425       37.272       39.702       19.968     1389.223     1576.280      398.721        0.211        0.168       28.633       11.006        0.148      348.786       28.736      860.049
07/02/2014  10:42:00       12.060      -42.082       12.381       38.475       41.484       33.239     1480.300     1720.895     1104.807        0.319        0.215       43.776       26.314        0.361      349.216       29.482      860.045
07/02/2014  10:43:00      -18.322      -51.752       -7.511       42.876       62.030       28.076     1838.361     3847.771      788.249        0.477        0.324       54.899       25.085        0.209      348.954       29.028      860.054
07/02/2014  10:44:00      -46.323      -31.569       11.795       50.876       45.403       31.163     2588.355     2061.471      971.154        0.445        0.281       56.057       28.558        0.260      349.362       29.737      860.079
07/02/2014  10:45:00       57.788      -42.119        3.597       65.184       61.528       47.555     4248.996     3785.726     2261.487        0.771        0.515       71.509       53.880        0.568      349.435       29.863      860.076
07/02/2014  10:46:00      -25.781        3.216       24.617       32.643       24.251       21.905     1065.576      588.132      479.818        0.171        0.107       25.981       22.580        0.755      349.588       30.128      860.089
07/02/2014  10:47:00     -101.927      -46.433       -3.573       41.587       44.483       26.764     1729.444     1978.747      716.307        0.849        0.221      112.005       18.429        0.027      348.670       28.535      860.094
07/02/2014  10:48:00     -150.716     -119.348       -2.557       84.246       60.405       43.371     7097.332     3648.754     1881.027        2.479        0.631      192.248       51.449        0.072      348.743       28.659      860.102
07/02/2014  10:49:00      -37.169     -112.820       11.566       67.697       59.579       31.156     4582.840     3549.683      970.669        1.167        0.455      118.785       35.524        0.089      348.551       28.330      860.106
07/02/2014  10:50:00      -35.906        4.669       -0.419       45.875       46.755       32.906     2104.551     2186.060     1082.803        0.334        0.269       36.208       26.824        0.549      348.609       28.430      860.116
07/02/2014  10:51:00      -99.001      -81.886       -5.204       41.682       44.794       26.903     1737.350     2006.520      723.780        1.050        0.223      128.478       24.119        0.035      348.707       28.600      860.122
07/02/2014  10:52:00     -103.947     -119.720       10.454       96.833       84.016       39.246     9376.675     7058.613     1540.233        2.161        0.899      158.549       42.782        0.073      348.869       28.879      860.131
07/02/2014  10:53:00     -126.062     -109.445       -2.179       50.192       43.675       29.041     2519.228     1907.524      843.387        1.657        0.264      166.942       23.845        0.020      348.564       28.351      860.139
07/02/2014  10:54:00      -36.900     -135.853       12.412       39.859       68.892       31.278     1588.769     4746.152      978.323        1.364        0.366      140.775       22.518        0.026      348.559       28.343      860.154
07/02/2014  10:55:00        3.492      -79.889        7.175       45.508       76.739       35.273     2070.984     5888.837     1244.172        0.782        0.460       79.965       24.706        0.095      348.582       28.383      860.154
07/02/2014  10:56:00       32.558       48.203       42.770       33.518       32.191       35.544     1123.431     1036.258     1263.343        0.432        0.171       58.168       16.490        0.080      349.321       29.665      860.129
07/02/2014  10:57:00       47.614       72.309       54.748       32.559       30.891       29.059     1060.072      954.265      844.445        0.668        0.143       86.578       11.415        0.017      349.068       29.224      860.109
07/02/2014  10:58:00      -13.561       57.550      -14.268       54.992       38.750       33.876     3024.070     1501.591     1147.579        0.469        0.284       59.126       14.795        0.063      349.213       29.476      860.112
07/02/2014  10:59:00      -59.012       10.687        8.905       34.641       29.963       28.073     1199.983      897.787      788.111        0.328        0.144       59.972       25.628        0.183      349.351       29.717      860.102
07/02/2014  11:00:00      -42.971      -36.701        3.478       31.952       45.120       20.633     1020.920     2035.775      425.732        0.334        0.174       56.510       19.327        0.117      349.226       29.499      860.092
07/02/2014  11:01:00      -64.360      -17.534        6.506       50.498       37.430       29.897     2550.055     1400.995      893.836        0.467        0.242       66.706       30.844        0.214      349.482       29.943      860.074
07/02/2014  11:02:00      -65.498       -0.242        5.047       36.367       61.688       20.494     1322.561     3805.367      419.992        0.493        0.277       65.499       18.027        0.076      349.095       29.271      860.076
07/02/2014  11:03:00      -65.717       17.582        6.736       62.894       25.322       27.547     3955.680      641.202      758.834        0.501        0.268       68.028       33.668        0.245      349.224       29.496      860.070
07/02/2014  11:04:00      -12.590       10.240       21.178       25.777       27.987       22.744      664.434      783.272      517.297        0.134        0.098       16.229       18.053        1.237      350.013       30.866      860.065
07/02/2014  11:05:00       35.504       49.940       -6.201       33.058       39.368       27.401     1092.809     1549.823      750.816        0.359        0.170       61.274       23.973        0.153      349.281       29.594      860.058
07/02/2014  11:06:00       34.273       42.949       35.020       36.707       37.976       34.651     1347.400     1442.185     1200.672        0.412        0.200       54.948       16.631        0.092      349.711       30.340      860.046
07/02/2014  11:07:00       54.178       13.676        5.862       34.311       46.746       34.911     1177.267     2185.173     1218.806        0.387        0.229       55.877       11.300        0.041      349.410       29.818      860.049
07/02/2014  11:08:00      -29.896      -39.150        6.168       36.734       37.217       22.932     1349.375     1385.080      525.871        0.286        0.163       49.260       12.642        0.066      349.240       29.524      860.042
07/02/2014  11:09:00       16.293        6.992       42.032       37.561       58.973       26.364     1410.804     3477.829      695.038        0.383        0.279       17.730       28.491        2.582      349.619       30.179      860.042
07/02/2014  11:10:00       11.927      -14.853       15.315       25.481       26.953       22.020      649.288      726.468      484.879        0.123        0.093       19.049       15.638        0.674      349.534       30.033      860.023
07/02/2014  11:11:00        0.461      -33.178       10.331       39.312       53.585       42.823     1545.449     2871.330     1833.850        0.373        0.313       33.181       24.981        0.567      349.791       30.479      860.021
07/02/2014  11:12:00       38.980       -8.055       49.425       53.739       76.325       54.643     2887.916     5825.534     2985.876        0.786        0.585       39.804       52.639        1.749      349.729       30.372      860.011
07/02/2014  11:13:00       65.058      -51.616       31.922       45.634       69.739       45.470     2082.466     4863.478     2067.530        0.846        0.451       83.047       40.197        0.234      349.636       30.210      860.010
07/02/2014  11:14:00       25.295       48.942       65.595       43.986       67.295       42.217     1934.777     4528.684     1782.285        0.779        0.412       55.092       41.091        0.556      349.900       30.669      860.005
07/02/2014  11:15:00       53.373       49.174       45.169       63.871       48.790       35.959     4079.565     2380.431     1293.032        0.753        0.388       72.572       25.050        0.119      349.875       30.627      860.010
07/02/2014  11:16:00       65.927       61.066        2.272       46.547       39.950       41.024     2166.667     1595.992     1682.959        0.676        0.272       89.864       23.443        0.068      349.245       29.532      860.009
07/02/2014  11:17:00      123.181       71.108       12.672       64.974       40.307       38.183     4221.593     1624.667     1457.970        1.385        0.365      142.232       29.428        0.043      349.366       29.741      860.018
07/02/2014  11:18:00      133.952      109.483      -12.719       61.000       41.012       36.317     3721.019     1681.965     1318.945        1.841        0.336      173.002       20.061        0.013      349.083       29.250      860.022
07/02/2014  11:19:00       53.789       37.484       11.881       30.567       26.417       28.530      934.368      697.836      813.982        0.344        0.122       65.561       17.188        0.069      349.432       29.857      860.010
07/02/2014  11:20:00        9.879       97.642        5.449       44.174       54.418       36.481     1951.361     2961.297     1330.830        0.795        0.312       98.140       38.260        0.152      349.488       29.952      860.001
07/02/2014  11:21:00       76.454       70.433        9.579       49.089       52.189       38.020     2409.739     2723.715     1445.555        0.874        0.329      103.951       22.974        0.049      349.429       29.852      859.994
07/02/2014  11:22:00       45.361       79.000       -0.462       44.431       47.453       41.200     1974.092     2251.822     1697.471        0.711        0.296       91.097       28.212        0.096      349.753       30.413      859.993
07/02/2014  11:23:00       25.796       19.220        5.984       34.827       30.775       30.804     1212.915      947.083      948.890        0.209        0.155       32.169       21.510        0.447      349.811       30.514      859.982
07/02/2014  11:24:00       26.864       72.366       14.399       34.273       67.936       32.142     1174.662     4615.311     1033.135        0.649        0.341       77.191       36.717        0.226      349.754       30.415      859.974
07/02/2014  11:25:00      -35.338      -51.965      -25.451       41.294       81.739       35.074     1705.193     6681.188     1230.194        0.711        0.481       62.843       40.112        0.407      349.139       29.347      859.965
07/02/2014  11:26:00      -38.022       35.056       27.460       67.085       75.713       39.357     4500.410     5732.520     1548.964        0.760        0.589       51.717       38.290        0.548      349.960       30.775      859.955
07/02/2014  11:27:00        1.657       10.322       39.456       28.441       50.449       30.490      808.878     2545.126      929.630        0.297        0.214       10.455       16.532        2.501      350.544       31.786      859.963
07/02/2014  11:28:00       38.178      -13.008       22.172       30.694       46.850       33.052      942.150     2194.883     1092.444        0.317        0.211       40.333       26.294        0.425      350.068       30.960      859.945
07/02/2014  11:29:00        6.998       40.516       60.969       28.352       31.664       18.998      803.861     1002.615      360.934        0.379        0.108       41.116       18.278        0.198      350.279       31.325      859.936
07/02/2014  11:30:00        5.919       14.120       28.379       14.992       14.580       10.666      224.750      212.573      113.772        0.080        0.028       15.311        7.911        0.267      350.275       31.320      859.917
07/02/2014  11:31:00      -15.886       10.536       33.942       23.330       23.355       23.701      544.283      545.434      561.734        0.158        0.083       19.062       20.070        1.109      350.540       31.782      859.918
07/02/2014  11:32:00       18.609      -86.712       -6.928       69.071       60.697       43.216     4770.771     3684.078     1867.588        0.912        0.516       88.687       38.989        0.193      349.815       30.519      859.907
07/02/2014  11:33:00       -9.662      -77.678       -6.763       39.081       37.558       31.159     1527.321     1410.587      970.888        0.504        0.195       78.276       23.899        0.093      349.956       30.766      859.901
07/02/2014  11:34:00      -70.693      -71.527        7.572       65.520       57.539       32.932     4292.833     3310.682     1084.549        0.943        0.434      100.566       35.178        0.122      349.587       30.124      859.915
07/02/2014  11:35:00     -128.504      -83.667       -1.213       58.299       47.700       31.832     3398.717     2275.267     1013.288        1.510        0.334      153.341       24.806        0.026      349.530       30.026      859.911
07/02/2014  11:36:00      -44.838      -90.626       13.225       72.191       75.160       46.160     5211.475     5648.996     2130.761        1.169        0.650      101.111       46.056        0.207      349.790       30.477      859.906
07/02/2014  11:37:00        4.928      -58.280        9.280       42.282       51.615       36.683     1787.744     2664.104     1345.667        0.465        0.290       58.487       29.766        0.259      349.982       30.810      859.903
07/02/2014  11:38:00      -25.052     -167.832        0.489       42.942       43.214       35.347     1844.036     1867.447     1249.442        1.688        0.248      169.691       23.997        0.020      349.375       29.755      859.910
07/02/2014  11:39:00      -67.153      -84.741      -14.707       61.348       27.825       26.733     3763.576      774.218      714.640        0.858        0.263      108.123       14.077        0.017      349.508       29.988      859.897
07/02/2014  11:40:00     -111.102      -58.309      -11.769       45.240       43.784       32.454     2046.659     1917.018     1053.266        1.045        0.251      125.474       22.774        0.033      349.572       30.099      859.889
07/02/2014  11:41:00     -108.658        5.612       -9.613       50.283       58.765       28.060     2528.384     3453.288      787.358        0.935        0.338      108.803       14.498        0.018      349.318       29.659      859.868
07/02/2014  11:42:00      -99.790       60.843        8.184       97.033       64.074       39.358     9415.398     4105.500     1549.081        1.440        0.753      116.875       34.375        0.087      349.762       30.427      859.852
07/02/2014  11:43:00       11.468       43.815       36.319       36.818       31.722       33.780     1355.565     1006.261     1141.107        0.344        0.175       45.291       27.718        0.375      350.342       31.438      859.837
07/02/2014  11:44:00       84.133       54.125       26.750       88.525       55.514       36.774     7836.698     3081.779     1352.352        1.150        0.614      100.039       18.176        0.033      350.120       31.051      859.820
07/02/2014  11:45:00       85.004       87.105       48.058       93.829       53.100       47.013     8803.828     2819.595     2210.228        1.548        0.692      121.709       43.858        0.130      350.113       31.038      859.802
07/02/2014  11:46:00      153.124      111.837       16.677       46.694       35.214       43.963     2180.332     1239.991     1932.717        2.079        0.268      189.616       25.195        0.018      349.555       30.069      859.792
07/02/2014  11:47:00      115.161       91.229       23.589       33.838       35.017       39.175     1144.980     1226.173     1534.690        1.302        0.195      146.917       21.874        0.022      349.497       29.969      859.792
07/02/2014  11:48:00       51.049       53.863       10.981       29.468       20.074       25.678      868.343      402.951      659.367        0.378        0.097       74.211       14.673        0.039      349.703       30.326      859.776
07/02/2014  11:49:00      110.121       51.186       26.128       58.265       36.939       35.470     3394.791     1364.513     1258.155        1.072        0.301      121.436       21.607        0.032      349.997       30.838      859.767
07/02/2014  11:50:00      144.685       98.139       10.424       82.837       58.553       58.641     6862.042     3428.509     3438.746        2.220        0.686      174.828       21.748        0.015      349.859       30.595      859.756
07/02/2014  11:51:00       46.150       64.441       17.434       57.842       47.605       37.103     3345.702     2266.253     1376.654        0.679        0.349       79.261       28.661        0.131      350.596       31.880      859.747
07/02/2014  11:52:00       10.101       29.151       11.204       26.291       41.178       30.988      691.197     1695.609      960.272        0.221        0.167       30.851       26.065        0.714      350.574       31.839      859.755
07/02/2014  11:53:00      119.943       78.469       24.201       79.143       58.795       42.780     6263.625     3456.857     1830.104        1.634        0.578      143.331       27.916        0.038      350.196       31.180      859.728
07/02/2014  11:54:00      114.178       76.736       19.559       72.495       42.633       46.240     5255.475     1817.552     2138.097        1.426        0.461      137.568       20.515        0.022      350.064       30.952      859.722
07/02/2014  11:55:00       78.969       94.729       11.648       52.776       54.263       55.294     2785.327     2944.457     3057.438        1.206        0.439      123.328       38.078        0.095      349.968       30.785      859.709
07/02/2014  11:56:00      112.575       69.934       14.530       83.865       44.039       43.376     7033.380     1939.431     1881.458        1.431        0.543      132.529       27.593        0.043      349.963       30.776      859.688
07/02/2014  11:57:00      151.744       95.998       17.124       82.424       59.832       46.296     6793.673     3579.868     2143.338        2.252        0.626      179.560       23.192        0.017      350.088       30.992      859.684
07/02/2014  11:58:00      117.827       99.440       84.282      126.922       77.964       73.528    16109.313     6078.398     5406.373        2.923        1.380      154.180       67.429        0.191      350.191       31.169      859.666
07/02/2014  11:59:00       62.732       83.059       19.148       57.733       60.807       54.010     3333.066     3697.462     2917.083        1.057        0.497      104.087       24.379        0.055      350.292       31.349      859.668
07/02/2014  12:00:00      114.099       94.725       38.517       75.756       53.123       62.895     5739.026     2822.013     3955.809        1.799        0.626      148.295       34.826        0.055      350.110       31.031      859.675
07/02/2014  12:01:00       71.261       82.340       85.579       73.447       68.117       75.493     5394.416     4639.880     5699.137        1.745        0.787      108.894       64.452        0.350      349.927       30.715      859.666
07/02/2014  12:02:00       24.961       25.883       51.367       47.735       47.866       35.632     2278.642     2291.130     1269.605        0.488        0.292       35.958       35.334        0.966      350.208       31.203      859.669
07/02/2014  12:03:00      159.064       85.937       42.951       75.959       73.413       69.346     5769.822     5389.453     4808.872        2.525        0.798      180.794       40.087        0.049      349.798       30.488      859.667
07/02/2014  12:04:00      193.217      137.836        1.021       52.059       50.646       44.668     2710.157     2565.019     1995.217        3.180        0.364      237.343       24.356        0.011      349.843       30.563      859.642
07/02/2014  12:05:00      202.110      157.708       20.933       70.023       52.590       58.353     4903.182     2765.692     3405.066        3.861        0.554      256.360       30.186        0.014      349.677       30.276      859.636
07/02/2014  12:06:00      221.569      115.297       22.697       69.094       58.036       46.727     4773.928     3368.141     2183.420        3.661        0.516      249.772       18.292        0.005      350.093       30.999      859.613
07/02/2014  12:07:00      166.435      114.706       26.334       96.289       65.593       62.381     9271.500     4302.417     3891.338        2.951        0.873      202.133       35.354        0.031      350.327       31.408      859.601
07/02/2014  12:08:00      204.726      151.176       45.522       62.131       58.153       55.031     3860.224     3381.772     3028.408        3.855        0.514      254.494       41.481        0.027      349.630       30.194      859.610
07/02/2014  12:09:00       95.396       97.038       22.282       80.213       47.257       47.897     6434.182     2233.217     2294.153        1.499        0.548      136.077       15.634        0.013      349.874       30.622      859.606
07/02/2014  12:10:00       68.137       52.127       70.730       67.947       61.039       45.739     4616.813     3725.752     2092.075        1.140        0.522       85.790       37.922        0.195      350.346       31.442      859.584
07/02/2014  12:11:00       97.067      101.177       87.188      104.214       63.908       56.023    10860.620     4084.183     3138.602        2.267        0.904      140.209       48.225        0.118      350.573       31.837      859.574
07/02/2014  12:12:00      139.692       87.958       81.619       82.419       72.515       63.945     6792.824     5258.441     4088.998        2.502        0.807      165.077       50.389        0.093      349.980       30.803      859.586
07/02/2014  12:13:00       51.987       47.011       74.104       57.423       76.163       59.920     3297.442     5800.795     3590.447        1.154        0.634       70.090       59.351        0.717      350.002       30.844      859.560
07/02/2014  12:14:00      148.780       86.968       40.180       83.811       84.355       57.748     7024.256     7115.806     3334.814        2.439        0.874      172.334       40.769        0.056      350.307       31.374      859.530
07/02/2014  12:15:00       46.644        5.166       53.928       56.365       62.573       46.448     3177.048     3915.431     2157.459        0.718        0.462       46.929       46.574        0.985      350.633       31.943      859.537
07/02/2014  12:16:00       18.661      -11.255       73.212       62.413      100.884       68.602     3895.324    10177.592     4706.172        1.230        0.939       21.792       61.847        8.054      350.604       31.891      859.527
07/02/2014  12:17:00       19.996       65.366       73.552       48.846       58.797       70.610     2385.903     3457.059     4985.793        1.045        0.541       68.356       44.139        0.417      350.436       31.599      859.535
07/02/2014  12:18:00        9.606      -12.066       49.602       46.812       65.958       67.941     2191.324     4350.516     4616.025        0.693        0.558       15.423       48.814       10.017      350.615       31.912      859.534
07/02/2014  12:19:00       60.770      -71.361      -17.203       32.810       37.649       28.163     1076.506     1417.447      793.146        0.618        0.164       93.730       21.756        0.054      349.718       30.352      859.538
07/02/2014  12:20:00       42.030       47.459        8.346       36.401       51.044       34.697     1325.024     2605.494     1203.860        0.461        0.257       63.395       27.101        0.183      350.084       30.989      859.521
07/02/2014  12:21:00       30.484       46.410        8.157       34.032       40.058       30.450     1158.156     1604.633      927.209        0.342        0.184       55.526       23.146        0.174      350.473       31.664      859.509
07/02/2014  12:22:00      -15.224       54.045       13.359       22.754       43.887       24.215      517.748     1926.047      586.359        0.318        0.152       56.149       23.249        0.171      350.954       32.502      859.518
07/02/2014  12:23:00       79.680       33.888       16.021       45.652       48.015       35.391     2084.062     2305.455     1252.500        0.670        0.282       86.587       25.896        0.089      350.496       31.703      859.508
07/02/2014  12:24:00       56.856      -14.665       24.280       67.855       45.820       38.823     4604.364     2099.495     1507.254        0.612        0.411       58.716       41.981        0.511      350.612       31.906      859.503
07/02/2014  12:25:00        2.001      -69.666       29.513       61.795       75.874       48.391     3818.594     5756.912     2341.661        0.882        0.596       69.695       40.492        0.338      350.767       32.174      859.490
07/02/2014  12:26:00     -138.846     -110.958       -5.247      120.699       86.822       54.007    14568.195     7538.056     2916.755        2.832        1.251      177.735       74.872        0.177      350.374       31.488      859.477
07/02/2014  12:27:00     -129.192        2.760      -20.742       53.537       78.760       38.560     2866.241     6203.141     1486.905        1.384        0.528      129.222       13.819        0.011      349.855       30.590      859.471
07/02/2014  12:28:00       28.600      -44.290        1.796       87.048       92.543       66.403     7577.329     8564.116     4409.317        1.166        1.028       52.722       53.791        1.041      350.520       31.745      859.434
07/02/2014  12:29:00      102.711      -84.734       54.700      106.706      192.186       98.888    11386.111    36935.611     9778.854        3.940        2.905      133.152      123.210        0.856      350.496       31.703      859.397
07/02/2014  12:30:00       70.294        8.954       22.605       82.440       68.316       70.485     6796.403     4667.091     4968.188        1.098        0.822       70.862       43.942        0.385      350.003       30.848      859.439
07/02/2014  12:31:00       63.187       15.306       37.589       62.104       75.718       56.621     3856.936     5733.226     3205.931        0.922        0.640       65.015       57.075        0.771      350.254       31.285      859.412
07/02/2014  12:32:00       12.564       96.460      117.407       57.155       91.302       57.331     3266.660     8336.039     3286.894        1.907        0.744       97.275       52.916        0.296      350.632       31.940      859.391
07/02/2014  12:33:00       57.097      100.373      118.332       73.332       77.833       64.150     5377.581     6057.905     4115.170        2.144        0.778      115.476       49.198        0.182      350.782       32.200      859.391
07/02/2014  12:34:00       37.729      101.049      102.323       52.049       53.833       33.638     2709.128     2898.046     1131.494        1.442        0.337      107.863       28.118        0.068      350.711       32.078      859.411
07/02/2014  12:35:00       44.666       46.330       52.848       48.221       51.261       35.799     2325.246     2627.642     1281.578        0.658        0.312       64.354       26.236        0.166      350.952       32.497      859.406
07/02/2014  12:36:00       29.784      -83.007       37.424       44.054      101.910       52.091     1940.742    10385.734     2713.438        1.211        0.752       88.189       59.811        0.460      350.475       31.666      859.388
07/02/2014  12:37:00       23.665     -131.102      -10.158       52.789       58.665       45.711     2786.710     3441.527     2089.536        1.308        0.416      133.220       27.778        0.043      350.426       31.582      859.371
07/02/2014  12:38:00       31.544      -14.679       21.030       30.419       74.168       32.145      925.334     5500.825     1033.292        0.455        0.373       34.792       17.867        0.264      350.531       31.766      859.362
07/02/2014  12:39:00       81.195       31.439       11.605       60.969       50.253       34.276     3717.259     2525.328     1174.864        0.757        0.371       87.069       25.149        0.083      350.537       31.775      859.359
07/02/2014  12:40:00      102.293       61.721       25.356      100.219       78.244       50.529    10043.938     6122.143     2553.201        1.681        0.936      119.471       38.349        0.103      350.746       32.137      859.344
07/02/2014  12:41:00      119.055       65.860       18.014       94.075       58.629       47.526     8850.111     3437.392     2258.763        1.669        0.727      136.058       20.957        0.024      350.447       31.617      859.328
07/02/2014  12:42:00       84.045       56.494       36.253       51.288       35.806       36.933     2630.440     1282.040     1364.022        0.842        0.264      101.268       13.232        0.017      350.833       32.290      859.318
07/02/2014  12:43:00       19.114       12.579       23.383       31.235       37.323       27.611      975.613     1393.038      762.379        0.210        0.157       22.881        6.842        0.089      350.847       32.315      859.316
07/02/2014  12:44:00        8.196      -56.988        0.887       30.331       51.082       33.356      919.964     2609.343     1112.638        0.398        0.232       57.574       30.515        0.281      350.961       32.513      859.315
07/02/2014  12:45:00      -13.754     -138.792       -9.190       35.394       40.223       30.398     1252.725     1617.852      924.050        1.167        0.190      139.472       12.391        0.008      350.159       31.117      859.322
07/02/2014  12:46:00      -33.120     -100.648       -2.379       36.451       48.119       24.722     1328.657     2315.457      611.163        0.774        0.213      105.957       11.651        0.012      350.465       31.649      859.321
07/02/2014  12:47:00      -47.459      -42.625        5.194       55.907       44.603       31.840     3125.627     1989.387     1013.783        0.511        0.306       63.791       25.566        0.161      350.946       32.486      859.327
07/02/2014  12:48:00       28.730      -88.948       -3.186       68.896       69.494       34.265     4746.595     4829.358     1174.108        0.975        0.538       93.473       19.311        0.043      350.854       32.327      859.319
07/02/2014  12:49:00      -89.522     -119.310       28.003       73.271       65.280       46.768     5368.612     4261.463     2187.291        1.742        0.591      149.161       25.049        0.028      350.927       32.451      859.298
07/02/2014  12:50:00      -24.379      -68.423        2.714       41.438       68.482       38.373     1717.072     4689.760     1472.472        0.658        0.394       72.636       34.445        0.225      350.444       31.614      859.281
07/02/2014  12:51:00       46.771      -90.439       21.745       59.674      118.731       63.394     3561.004    14097.011     4018.823        1.625        1.084      101.817       73.318        0.519      350.935       32.467      859.253
07/02/2014  12:52:00        1.034      -26.750       36.933       32.193       79.130       37.829     1036.371     6261.548     1431.007        0.540        0.436       26.770       47.352        3.129      350.647       31.967      859.248
07/02/2014  12:53:00       30.723      -21.609       29.996       49.339       70.614       51.041     2434.331     4986.267     2605.187        0.617        0.501       37.561       46.691        1.545      350.959       32.510      859.221
07/02/2014  12:54:00       68.665     -144.741       -5.112       98.327      104.761       70.288     9668.247    10974.867     4940.401        2.563        1.279      160.202       65.160        0.165      350.779       32.193      859.213
07/02/2014  12:55:00       61.905     -119.556      -37.302       84.772       88.384       62.177     7186.313     7811.810     3865.988        1.919        0.943      134.633       49.740        0.136      350.778       32.194      859.207
07/02/2014  12:56:00       27.095       -4.411       63.297       60.626      136.956       93.664     3675.562    18757.011     8772.988        1.798        1.560       27.451      106.907       15.167      350.902       32.411      859.208
07/02/2014  12:57:00      -20.777      -53.495       36.994       26.763      105.145       44.154      716.249    11055.543     1949.541        0.919        0.686       57.388       59.119        1.061      350.791       32.217      859.229
07/02/2014  12:58:00       -9.413     -109.475        3.550       65.328       35.463       36.955     4267.798     1257.610     1365.653        0.949        0.345      109.879       31.390        0.082      350.555       31.805      859.231
07/02/2014  12:59:00       -5.159      -54.402       -3.210       60.569       67.226       41.556     3668.566     4519.311     1726.885        0.645        0.496       54.646       33.277        0.371      350.709       32.074      859.228
07/02/2014  13:00:00      -31.000       29.800       18.091       58.009       31.318       41.580     3365.004      980.807     1728.877        0.412        0.304       43.000       39.635        0.850      350.752       32.150      859.206
07/02/2014  13:01:00      113.245       27.320       49.379       39.265       49.221       42.506     1541.746     2422.749     1806.730        1.089        0.289      116.494       30.752        0.070      350.304       31.370      859.184
07/02/2014  13:02:00      129.638       94.143       24.665       43.375       33.458       30.931     1881.364     1119.422      956.703        1.512        0.198      160.215       19.746        0.015      350.283       31.333      859.163
07/02/2014  13:03:00       71.640        9.005        4.601       35.867       43.421       23.472     1286.434     1885.360      550.926        0.448        0.186       72.204        8.574        0.014      350.628       31.934      859.133
07/02/2014  13:04:00       35.355       25.566        6.196       27.864       39.353       20.109      776.388     1548.679      404.376        0.234        0.136       43.630       12.630        0.084      350.708       32.075      859.109
07/02/2014  13:05:00       -2.165        2.893       28.783       28.088       18.505       13.499      788.961      342.452      182.229        0.108        0.066        3.613       10.432        8.335      351.723       33.843      859.102
07/02/2014  13:06:00       -2.711       11.450       30.584       19.169       22.643       21.437      367.459      512.707      459.544        0.121        0.067       11.766       11.945        1.031      351.486       33.430      859.105
07/02/2014  13:07:00        0.270      -20.875       12.716       20.758       34.673       28.372      430.897     1202.184      804.959        0.152        0.122       20.876       24.819        1.413      351.486       33.429      859.094
07/02/2014  13:08:00       16.390       20.713       26.799       23.702       23.717       24.033      561.805      562.493      577.592        0.156        0.085       26.413       11.887        0.203      351.364       33.215      859.089
07/02/2014  13:09:00       35.113       57.610       31.282       47.041       36.463       30.532     2212.865     1329.550      932.230        0.500        0.224       67.468       22.053        0.107      351.086       32.732      859.079
07/02/2014  13:10:00       -3.876       19.471       29.934       35.561       29.172       29.320     1264.617      850.986      859.653        0.213        0.149       19.853       18.779        0.895      351.467       33.395      859.078
07/02/2014  13:11:00       31.832       73.468        2.545       48.020       40.061       41.740     2305.891     1604.872     1742.253        0.603        0.283       80.068       27.537        0.118      351.038       32.648      859.069
07/02/2014  13:12:00      -29.940      141.219       -1.556       44.633       68.811       36.903     1992.108     4734.946     1361.845        1.446        0.404      144.358       26.036        0.033      351.024       32.622      859.064
07/02/2014  13:13:00       29.544      115.422        8.176       37.861       53.939       36.863     1433.448     2909.427     1358.864        0.998        0.285      119.143       25.938        0.047      351.039       32.649      859.050
07/02/2014  13:14:00       24.660       71.161       11.967       42.735       67.961       41.079     1826.262     4618.644     1687.510        0.697        0.407       75.312       35.742        0.225      351.489       33.433      859.032
07/02/2014  13:15:00        5.738      -24.048      -12.651       53.145       49.944       28.088     2824.404     2494.399      788.932        0.344        0.305       24.723       19.702        0.635      351.164       32.867      859.029
07/02/2014  13:16:00      -25.563      -33.096       17.326       73.320       37.086       33.218     5375.844     1375.399     1103.455        0.495        0.393       41.819       20.022        0.229      351.075       32.713      859.029
07/02/2014  13:17:00      -11.219       -8.622       24.972       19.777       23.560       22.959      391.128      555.069      527.094        0.115        0.074       14.149       10.595        0.561      351.834       34.036      859.021
07/02/2014  13:18:00      -42.890     -101.428        0.231       41.763       41.472       29.987     1744.172     1719.907      899.222        0.824        0.218      110.124       19.370        0.031      351.158       32.855      859.013
07/02/2014  13:19:00      -40.720      -81.529        8.159       44.282       70.719       33.095     1960.887     5001.185     1095.262        0.821        0.403       91.133       30.440        0.112      351.305       33.113      858.998
07/02/2014  13:20:00      -45.472     -105.753       -7.834       55.529       62.959       38.357     3083.456     3963.810     1471.226        1.091        0.426      115.114       31.675        0.076      350.814       32.255      858.998
07/02/2014  13:21:00       24.251       10.182       32.376       41.006       57.813       42.556     1681.523     3342.293     1810.973        0.429        0.342       26.302       35.057        1.777      351.072       32.706      858.978
07/02/2014  13:22:00      -24.933       33.347      -15.168       23.348       30.005       22.794      545.114      900.292      519.562        0.196        0.098       41.638       14.472        0.121      351.166       32.869      858.948
07/02/2014  13:23:00     -101.251       -5.607      -12.156       61.040       36.788       32.840     3725.911     1353.337     1078.438        0.829        0.308      101.406       24.321        0.058      351.275       33.061      858.933
07/02/2014  13:24:00      -12.169       -5.843       37.266       39.988       63.406       44.205     1599.059     4020.311     1954.093        0.457        0.379       13.499       45.484       11.353      351.604       33.634      858.938
07/02/2014  13:25:00       12.328      -32.293       31.926       63.228       79.939       44.639     3997.789     6390.165     1992.621        0.730        0.619       34.566       47.345        1.876      351.568       33.570      858.900
07/02/2014  13:26:00        0.962      -12.012       55.948       45.677      112.917       63.016     2086.411    12750.266     3971.011        1.104        0.940       12.051       67.107       31.011      351.431       33.332      858.893
07/02/2014  13:27:00       80.360      -72.445       18.079       78.446       76.581       51.473     6153.851     5864.624     2649.454        1.335        0.733      108.195       46.677        0.186      350.885       32.382      858.888
07/02/2014  13:28:00       -8.420      -39.899       16.585       69.336       73.993       36.105     4807.412     5474.976     1303.544        0.676        0.579       40.778       33.880        0.690      351.383       33.249      858.870
07/02/2014  13:29:00      -53.781     -266.271      -10.212       50.411       82.277       41.060     2541.228     6769.497     1685.962        4.245        0.550      271.648       25.026        0.008      350.921       32.440      858.864
07/02/2014  13:30:00       48.767     -196.718      -37.972       88.194       77.356       52.889     7778.204     5983.893     2797.240        2.954        0.828      202.673       37.531        0.034      351.059       32.681      858.825
07/02/2014  13:31:00      -59.272     -116.631        1.589       64.034       72.486       39.054     4100.316     5254.172     1525.230        1.400        0.544      130.828       37.734        0.083      351.155       32.850      858.829
07/02/2014  13:32:00     -131.350      -83.049       -2.164      109.588       82.447       52.563    12009.563     6797.540     2762.862        2.286        1.078      155.403       52.691        0.115      351.375       33.233      858.858
07/02/2014  13:33:00      -92.343      -97.193       -4.890       62.949       82.550       36.847     3962.574     6814.474     1357.673        1.506        0.607      134.066       32.532        0.059      350.842       32.305      858.880
07/02/2014  13:34:00     -149.194       74.380       -7.540       48.968       66.220       41.956     2397.851     4385.106     1760.334        1.819        0.427      166.707       23.761        0.020      350.750       32.144      858.872
07/02/2014  13:35:00      -73.353       68.889       -8.341       49.193       43.637       32.575     2419.917     1904.174     1061.158        0.779        0.269      100.630       26.185        0.068      350.975       32.538      858.865
07/02/2014  13:36:00       45.790       49.177       35.484       64.286       44.060       46.278     4132.722     1941.284     2141.649        0.699        0.411       67.195       29.277        0.190      351.333       33.162      858.863
07/02/2014  13:37:00       56.617       25.525       18.802       55.980       34.254       30.180     3133.788     1173.317      910.833        0.471        0.261       62.104       26.805        0.186      351.037       32.646      858.852
07/02/2014  13:38:00       39.488       13.350        5.396       56.194       39.553       27.549     3157.814     1564.469      758.944        0.362        0.274       41.683       19.313        0.215      351.259       33.034      858.834
07/02/2014  13:39:00       20.974       47.820       37.273       32.823       33.162       23.670     1077.335     1099.698      560.289        0.343        0.137       52.217       13.270        0.065      351.537       33.518      858.849
07/02/2014  13:40:00      -38.855       67.209       -0.184       78.674       47.642       25.364     6189.662     2269.719      643.314        0.756        0.455       77.632       30.478        0.154      351.222       32.968      858.848
07/02/2014  13:41:00      -60.239      106.317       22.798       52.907       83.415       49.315     2799.180     6958.110     2431.940        1.382        0.609      122.197       48.969        0.161      351.463       33.388      858.815
07/02/2014  13:42:00     -129.670      -18.013        3.812       93.958       51.998       39.409     8828.021     2703.767     1553.091        1.512        0.654      130.915       50.265        0.147      351.525       33.495      858.786
07/02/2014  13:43:00      -55.730       28.992        2.859       62.751       83.352       36.276     3937.676     6947.526     1315.961        0.808        0.610       62.820       37.502        0.356      352.052       34.415      858.780
07/02/2014  13:44:00     -157.260       87.015      -19.893       67.341       95.736       49.305     4534.755     9165.412     2430.948        2.441        0.807      179.728       31.471        0.031      351.670       33.747      858.786
07/02/2014  13:45:00     -274.760       -4.620       -8.849      150.558      125.593       63.160    22667.820    15773.573     3989.200        5.900        2.122      274.799       73.243        0.071      351.718       33.832      858.765
07/02/2014  13:46:00     -274.323     -168.142        8.820      264.566      235.215       87.993    69995.308    55325.979     7742.742       11.831        6.653      321.752      125.017        0.151      351.866       34.088      858.728
07/02/2014  13:47:00     -400.945     -213.474       -6.586      165.277      148.296       75.473    27316.618    21991.761     5696.187       13.068        2.750      454.233       79.306        0.030      351.566       33.566      858.772
07/02/2014  13:48:00     -319.146     -161.261      -14.809      180.421      153.734       77.901    32551.882    23633.993     6068.569        9.516        3.113      357.575       80.951        0.051      351.206       32.937      858.793
07/02/2014  13:49:00     -320.924     -163.884      -14.651      174.360      117.282       70.027    30401.453    13755.071     4903.848        8.955        2.453      360.347       81.765        0.051      351.075       32.708      858.775
07/02/2014  13:50:00     -196.862     -125.151       -3.014      103.614       90.722       49.072    10735.914     8230.556     2408.104        3.790        1.069      233.275       49.150        0.044      351.079       32.717      858.779
07/02/2014  13:51:00     -107.364      -65.463       16.185       85.783       68.972       36.554     7358.660     4757.122     1336.208        1.476        0.673      125.747       38.715        0.095      351.429       33.328      858.772
07/02/2014  13:52:00     -122.806      -61.230        4.173      163.827       64.045       47.766    26839.372     4101.722     2281.555        2.603        1.661      137.224       54.773        0.159      351.403       33.281      858.750
07/02/2014  13:53:00     -164.688       -6.080      -15.206       73.692       48.312       34.054     5430.442     2334.022     1159.699        1.816        0.446      164.800       31.936        0.038      351.429       33.328      858.744
07/02/2014  13:54:00     -168.362      -48.091      -13.847      132.279      107.847       41.650    17497.643    11631.056     1734.697        3.085        1.543      175.096       31.090        0.032      351.725       33.845      858.741
07/02/2014  13:55:00      -92.631      -40.791       19.711      122.075       74.509       48.227    14902.267     5551.518     2325.798        1.670        1.139      101.215       61.407        0.368      351.428       33.325      858.743
07/02/2014  13:56:00     -261.311     -132.876       -9.550      116.541       98.038       58.335    13581.852     9611.527     3402.957        5.631        1.330      293.155       51.674        0.031      351.215       32.951      858.733
07/02/2014  13:57:00     -191.466      -69.148        8.583      174.278       88.043       64.785    30372.833     7751.537     4197.036        4.191        2.116      203.570       80.271        0.155      351.617       33.657      858.740
07/02/2014  13:58:00     -355.386     -103.732      -11.374      141.436      104.167       57.933    20004.151    10850.679     3356.286        8.569        1.711      370.215       62.386        0.028      351.388       33.255      858.731
07/02/2014  13:59:00     -227.334       10.927      -12.043      100.000      106.037       60.067    10000.062    11243.757     3607.991        3.839        1.243      227.597       50.666        0.050      351.430       33.328      858.715
07/02/2014  14:00:00     -260.872       35.660      -20.740      125.177      106.410       51.154    15669.314    11323.097     2616.762        4.968        1.480      263.298       51.988        0.039      351.353       33.193      858.670
07/02/2014  14:01:00     -191.019     -104.522       12.197      160.375       77.424       52.177    25720.132     5994.518     2722.482        4.099        1.722      217.746       69.703        0.102      351.813       33.996      858.668
07/02/2014  14:02:00     -312.605     -222.951       -3.715      187.865      169.640       99.702    35293.350    28777.587     9940.478       11.071        3.701      383.965       99.269        0.067      351.410       33.292      858.659
07/02/2014  14:03:00     -371.150     -219.824       -0.684      279.228      197.667      112.653    77968.478    39072.131    12690.589       15.788        6.487      431.364      139.308        0.104      351.500       33.449      858.615
07/02/2014  14:04:00     -437.100     -126.265      -29.959      188.315      123.877       78.343    35462.506    15345.449     6137.559       13.241        2.847      454.971       90.263        0.039      351.592       33.611      858.667
07/02/2014  14:05:00     -305.778     -220.392       -7.206      218.602      162.564       90.498    47786.767    26426.945     8189.803       11.225        4.120      376.926      100.192        0.071      351.560       33.554      858.635
07/02/2014  14:06:00     -467.340     -268.914        0.532      207.554      150.852       94.839    43078.719    22756.316     8994.497       18.276        3.741      539.186       99.028        0.034      351.305       33.110      858.647
07/02/2014  14:07:00     -406.221     -175.127       -3.259      215.489      131.386       75.474    46435.665    17262.337     5696.287       13.253        3.470      442.363       91.707        0.043      351.325       33.145      858.630
07/02/2014  14:08:00     -464.678     -103.346      -22.262      221.612      201.820       86.981    49111.928    40731.208     7565.715       16.224        4.870      476.032       92.980        0.038      351.293       33.087      858.644
07/02/2014  14:09:00     -332.716      -46.449       16.548      238.387      125.770       81.930    56828.134    15818.034     6712.448        9.623        3.968      335.943       93.787        0.078      351.600       33.625      858.633
07/02/2014  14:10:00     -490.944      -41.892      -51.338      209.582      140.705      100.550    43924.480    19798.036    10110.206       15.961        3.692      492.728       95.440        0.038      351.332       33.156      858.642
07/02/2014  14:11:00     -288.120      -99.097       -4.944      187.888      133.120       74.010    35301.896    17721.012     5477.511        7.567        2.925      304.686       81.284        0.071      351.642       33.698      858.632
07/02/2014  14:12:00     -211.638     -133.417        8.251      152.222      157.671       72.079    23171.616    24860.133     5195.392        5.793        2.661      250.182       76.843        0.094      351.594       33.614      858.625
07/02/2014  14:13:00     -208.959      -99.479       -4.095      137.482      161.343       74.357    18901.211    26031.589     5529.023        5.201        2.523      231.430       57.043        0.061      351.669       33.745      858.610
07/02/2014  14:14:00     -303.707     -108.470       -1.704      204.014      143.666       85.094    41621.616    20640.042     7241.015        8.674        3.475      322.496       92.898        0.083      351.777       33.932      858.596
07/02/2014  14:15:00     -396.075     -317.150        8.243      242.467      204.702       98.882    58790.342    41902.979     9777.570       18.398        5.524      507.404      117.357        0.053      351.330       33.153      858.588
07/02/2014  14:16:00     -302.076     -180.104       -8.204      189.269      158.906       96.605    35822.587    25251.080     9332.566        9.707        3.520      351.692      106.368        0.091      351.497       33.446      858.598
07/02/2014  14:17:00     -295.354     -161.042        9.575      207.276      139.245       81.986    42963.506    19389.041     6721.782        9.116        3.454      336.405       94.917        0.080      351.704       33.805      858.579
07/02/2014  14:18:00     -201.547     -194.892       13.922      205.030      169.431      104.542    42037.315    28706.753    10929.094        8.022        4.084      280.365      124.914        0.199      351.722       33.839      858.611
07/02/2014  14:19:00     -225.658      -92.300       -6.947      177.106      156.826       94.189    31366.592    24594.411     8871.485        6.215        3.242      243.805      105.228        0.186      351.689       33.781      858.604
07/02/2014  14:20:00     -369.056     -265.489      -16.637      204.370      164.594       90.788    41767.210    27091.237     8242.499       14.202        3.855      454.628      108.724        0.057      351.458       33.377      858.601
07/02/2014  14:21:00     -273.234     -159.554        4.420      167.379      158.772       94.442    28015.819    25208.691     8919.235        8.113        3.107      316.408      106.688        0.114      351.625       33.668      858.587
07/02/2014  14:22:00     -292.849     -117.698       12.942      204.832      196.576      101.670    41956.043    38642.281    10336.754        9.534        4.547      315.616      111.321        0.124      351.548       33.534      858.575
07/02/2014  14:23:00     -424.440     -104.717      -11.826      190.607      202.003       82.394    36331.157    40805.214     6788.845       13.758        4.196      437.167       79.893        0.033      351.519       33.483      858.569
07/02/2014  14:24:00     -361.045      -59.936      -23.723      194.726      109.738       73.149    37918.151    12042.322     5350.786        9.490        2.766      365.986       79.909        0.048      351.682       33.769      858.594
07/02/2014  14:25:00     -366.926      -45.206      -20.541      200.792      113.175       68.394    40317.358    12808.650     4677.721        9.744        2.890      369.700       84.708        0.052      351.628       33.672      858.576
07/02/2014  14:26:00     -470.654     -132.406      -37.763      193.822      150.814       88.692    37566.867    22744.955     7866.274       15.431        3.409      488.924       76.119        0.024      351.630       33.678      858.563
07/02/2014  14:27:00     -314.057      -84.429      -22.616      182.376      134.177       88.786    33261.183    18003.569     7882.974        8.270        2.957      325.208       83.539        0.066      351.806       33.982      858.582
07/02/2014  14:28:00     -393.104      -31.082      -13.687      188.852      205.522       81.629    35665.101    42239.457     6663.264       12.011        4.228      394.331       90.823        0.053      351.511       33.469      858.608
07/02/2014  14:29:00     -284.773     -145.896        3.004      222.476      171.307      106.733    49495.620    29346.141    11391.851        9.630        4.512      319.971      111.542        0.122      351.413       33.298      858.552
07/02/2014  14:30:00     -394.022     -127.125        1.134      153.261      145.882       70.296    23489.041    21281.456     4941.518       11.056        2.486      414.022       72.438        0.031      351.676       33.755      858.528
07/02/2014  14:31:00     -433.454     -246.869        7.211      207.700      198.602       92.584    43139.401    39442.752     8571.794       17.000        4.558      498.825      100.717        0.041      351.546       33.529      858.556
07/02/2014  14:32:00     -280.018     -224.029       -0.629      176.135      169.511       78.748    31023.593    28733.868     6201.241        9.727        3.298      358.608       83.549        0.054      351.566       33.565      858.558
07/02/2014  14:33:00     -335.038     -200.572       -7.851      164.499      122.653       80.764    27059.994    15043.834     6522.892       10.058        2.431      390.486       79.877        0.042      351.307       33.110      858.541
07/02/2014  14:34:00     -201.255     -117.136        8.957      157.240      133.417       71.098    24724.483    17800.036     5054.910        5.093        2.379      232.862       74.399        0.102      351.741       33.870      858.566
07/02/2014  14:35:00     -276.940       -3.394       -6.833      168.119      118.451       70.273    28264.026    14030.672     4938.273        6.199        2.362      276.961       71.302        0.066      351.789       33.953      858.560
07/02/2014  14:36:00     -154.277      -21.895       14.972      134.994      123.722       61.465    18223.275    15307.113     3777.935        3.090        1.865      155.823       67.469        0.187      351.897       34.143      858.546
07/02/2014  14:37:00     -346.829       -5.016      -35.880      128.677      123.928       69.789    16557.831    15358.069     4870.511        7.919        1.839      346.865       66.390        0.037      351.739       33.866      858.532
07/02/2014  14:38:00     -483.450       73.570      -48.409      148.921      131.198       68.514    22177.502    17213.027     4694.186       14.277        2.204      489.016       64.914        0.018      351.445       33.351      858.522
07/02/2014  14:39:00     -289.905      -30.861      -16.102      150.771      164.078       73.544    22731.753    26921.551     5408.674        7.015        2.753      291.543       78.720        0.073      351.603       33.631      858.502
07/02/2014  14:40:00     -384.594     -170.990        3.314      240.017      232.278      100.150    57607.984    53952.968    10030.072       14.936        6.080      420.892      121.519        0.083      351.624       33.666      858.543
07/02/2014  14:41:00     -328.993     -206.927       10.054      267.624      203.350      112.279    71622.388    41351.167    12606.664       13.835        6.279      388.659      132.053        0.115      351.554       33.543      858.495
07/02/2014  14:42:00     -184.401       33.521        1.806      143.392       94.821       68.032    20561.151     8990.950     4628.351        3.465        1.709      187.423       67.938        0.131      351.861       34.081      858.481
07/02/2014  14:43:00     -383.014     -163.056      -34.856      289.303      137.604       94.790    83696.135    18934.994     8985.148       14.304        5.581      416.277      124.041        0.089      351.641       33.695      858.472
07/02/2014  14:44:00     -292.428     -173.275       23.537      227.589      154.886      105.394    51796.563    23989.719    11107.938       10.148        4.345      339.909      113.004        0.111      351.796       33.967      858.494
07/02/2014  14:45:00     -199.544     -117.433        5.760      146.748      138.508       79.595    21535.045    19184.454     6335.315        5.034        2.353      231.535       62.240        0.072      351.893       34.134      858.522
07/02/2014  14:46:00     -169.107     -125.202       20.366      186.830      143.035       90.315    34905.301    20458.940     8156.722        5.409        3.176      210.411      107.188        0.260      351.894       34.140      858.506
07/02/2014  14:47:00     -523.068     -260.668      -36.754      270.689      213.887      111.002    73272.583    45747.586    12321.482       23.710        6.567      584.421      140.464        0.058      351.487       33.427      858.473
07/02/2014  14:48:00     -388.763      -63.772      -14.001      173.969      128.648       80.708    30265.367    16550.219     6513.765       10.436        2.666      393.959       85.489        0.047      351.740       33.866      858.475
07/02/2014  14:49:00     -525.768       -3.352      -43.744      170.934      121.949       72.998    29218.499    14871.668     5328.644       16.388        2.471      525.779       74.496        0.020      351.336       33.162      858.451
07/02/2014  14:50:00     -476.679     -134.741      -19.769      237.929      205.885       94.100    56610.191    42388.663     8854.722       17.679        5.393      495.357       93.542        0.036      351.627       33.670      858.401
07/02/2014  14:51:00     -541.499      -87.759      -24.552      223.902      190.670       96.545    50132.296    36355.120     9320.929       19.865        4.790      548.565      103.369        0.036      351.720       33.832      858.386
07/02/2014  14:52:00     -348.049     -118.843       13.078      242.182      164.738       87.196    58652.078    27138.454     7603.192       11.440        4.670      367.779      108.994        0.088      351.683       33.769      858.431
07/02/2014  14:53:00     -515.770     -108.032      -22.324      208.272      175.036      115.824    43377.225    30637.757    13415.145       18.279        4.372      526.962      128.886        0.060      351.566       33.566      858.425
07/02/2014  14:54:00     -434.884     -170.544      -12.647      221.554      184.533       91.783    49086.311    34052.362     8424.149       15.495        4.578      467.129      105.481        0.051      351.585       33.598      858.426
07/02/2014  14:55:00     -412.542       -6.042      -18.654      172.402      186.526       95.136    29722.456    34792.040     9050.840       12.206        3.678      412.587       79.179        0.037      351.803       33.978      858.419
07/02/2014  14:56:00     -454.057      -93.768      -14.973      191.600      148.527       85.758    36710.651    22060.334     7354.471       14.064        3.306      463.638       93.852        0.041      351.678       33.761      858.405
07/02/2014  14:57:00     -512.870     -272.903      -13.328      224.740      205.190      106.915    50508.070    42103.123    11430.855       22.085        5.202      580.958      110.515        0.036      351.359       33.203      858.420
07/02/2014  14:58:00     -316.842     -151.217        0.109      179.925      153.482       89.832    32372.904    23556.623     8069.754        9.362        3.200      351.078       85.622        0.059      351.641       33.696      858.424
07/02/2014  14:59:00     -440.864     -202.230       -7.467      203.238      136.118       82.655    41305.540    18528.011     6831.914       15.098        3.333      485.034       92.805        0.037      351.309       33.116      858.399
07/02/2014  15:00:00     -221.852      -63.950       12.692      175.498      160.008       78.747    30799.442    25602.623     6201.089        5.803        3.130      230.885       88.107        0.146      351.746       33.879      858.387
07/02/2014  15:01:00     -439.552     -139.597      -13.511      155.316      115.584       77.403    24123.090    13359.650     5991.251       12.817        2.174      461.187       80.453        0.030      351.591       33.606      858.415
07/02/2014  15:02:00     -541.149      -78.796      -35.540      212.754      147.744       83.797    45264.340    21828.181     7021.986       18.720        3.706      546.856      104.409        0.036      351.337       33.164      858.401
07/02/2014  15:03:00     -162.685      -57.261       14.016      140.502      129.563       58.980    19740.750    16786.637     3478.689        3.497        2.000      172.468       60.013        0.121      351.888       34.129      858.394
07/02/2014  15:04:00     -319.457     -267.354       -3.664      183.818      174.579       87.934    33789.122    30477.995     7732.393       12.276        3.600      416.570      102.097        0.060      351.555       33.545      858.387
07/02/2014  15:05:00     -463.208     -211.596      -14.307      246.064      175.042       94.475    60547.598    30639.790     8925.493       17.981        5.006      509.249      104.236        0.042      351.583       33.594      858.369
07/02/2014  15:06:00     -669.314     -332.527      -14.822      339.161      213.045      115.566   115030.347    45388.207    13355.447       36.625        8.689      747.366      132.392        0.031      351.443       33.349      858.341
07/02/2014  15:07:00     -482.838     -323.549      -24.476      240.395      174.721      101.431    57789.896    30527.469    10288.211       21.849        4.930      581.220      102.883        0.031      351.302       33.104      858.381
07/02/2014  15:08:00     -331.641     -189.583        3.608      186.008      137.832       93.819    34598.923    18997.724     8802.075       10.416        3.120      382.004      107.520        0.079      351.511       33.469      858.407
07/02/2014  15:09:00     -323.544     -166.987        4.468      164.527      111.667       81.888    27069.107    12469.597     6705.670        8.941        2.312      364.095       91.937        0.064      351.452       33.366      858.399
07/02/2014  15:10:00     -301.199      -70.805      -10.300      199.762      158.506       91.434    39904.767    25124.252     8360.117        8.460        3.669      309.409      100.250        0.105      351.675       33.755      858.412
07/02/2014  15:11:00     -425.605       23.824      -28.652      237.801      171.735       91.831    56549.551    29492.856     8432.958       13.849        4.724      426.271       96.202        0.051      351.564       33.562      858.391
07/02/2014  15:12:00     -648.583      -33.881      -81.531      205.097      122.084       65.347    42064.758    14904.568     4270.172       24.484        3.062      649.467       77.761        0.014      351.347       33.181      858.359
07/02/2014  15:13:00     -428.957     -131.311      -13.159      259.395      176.011       87.778    67285.566    30979.838     7704.907       15.368        5.299      448.605      112.434        0.063      351.587       33.601      858.328
07/02/2014  15:14:00     -479.370     -244.645      -17.452      267.321      187.921      105.772    71460.753    35314.273    11187.788       20.394        5.898      538.188      116.621        0.047      351.613       33.646      858.381
07/02/2014  15:15:00     -436.443     -246.877       -1.883      214.002      202.490      113.274    45796.787    41002.043    12831.104       17.552        4.981      501.429      102.323        0.042      351.296       33.094      858.389
07/02/2014  15:16:00     -288.662     -181.238       27.610      238.031      231.196      116.730    56658.533    53451.489    13626.000       12.032        6.187      340.842      146.408        0.185      351.425       33.319      858.403
07/02/2014  15:17:00     -647.550     -189.787      -25.584      321.935      214.070      131.165   103642.396    45825.780    17204.291       31.131        8.334      674.789      172.096        0.065      351.203       32.932      858.381
07/02/2014  15:18:00     -636.818     -155.898      -45.831      255.242      199.141      105.702    65148.257    39657.203    11172.923       27.394        5.799      655.623      127.110        0.038      351.211       32.944      858.404
07/02/2014  15:19:00     -490.110      -57.922      -29.275      258.486      183.199       99.295    66814.923    33561.890     9859.562       17.731        5.512      493.521      124.967        0.064      351.425       33.319      858.379
07/02/2014  15:20:00     -446.746     -189.651       -9.299      380.052      213.419      126.149   144439.741    45547.502    15913.463       22.073       10.295      485.334      150.093        0.096      351.288       33.079      858.376
07/02/2014  15:21:00     -513.645     -118.956      -23.041      222.046      187.315       95.462    49304.482    35086.769     9112.980       18.599        4.675      527.240      107.350        0.041      351.351       33.189      858.394
07/02/2014  15:22:00     -320.468     -141.662       -1.818      203.523      165.946       76.722    41421.597    27538.019     5886.237        9.880        3.742      350.382       93.687        0.071      351.385       33.250      858.425
07/02/2014  15:23:00     -379.933     -180.013      -10.241      210.463      201.517       91.086    44294.804    40609.280     8296.604       13.501        4.660      420.421       89.805        0.046      351.376       33.233      858.411
07/02/2014  15:24:00     -278.700     -152.615        4.235      251.030      199.240      117.846    63015.963    39696.592    13887.672       10.877        5.830      317.750      150.507        0.224      351.453       33.367      858.364
07/02/2014  15:25:00     -334.845     -167.976      -41.780      223.136      154.426       88.833    49789.658    23847.478     7891.322       11.179        4.076      374.616      109.882        0.086      351.322       33.139      858.359
07/02/2014  15:26:00     -466.480     -118.798       -7.199      212.115      149.425       93.453    44992.685    22327.929     8733.475       15.390        3.803      481.370      108.368        0.051      351.453       33.367      858.355
07/02/2014  15:27:00     -355.664     -128.983       21.990      281.410      196.453      119.539    79191.731    38593.677    14289.592       13.782        6.604      378.330      137.640        0.132      351.491       33.433      858.333
07/02/2014  15:28:00     -588.068      -70.698      -25.018      218.841      222.297       98.696    47891.583    49416.143     9740.885       22.923        5.352      592.303       87.486        0.022      351.328       33.147      858.323
07/02/2014  15:29:00     -395.644      -54.463        3.497      261.327      208.114      118.502    68291.698    43311.567    14042.802       14.256        6.282      399.375      151.135        0.143      351.399       33.272      858.356
07/02/2014  15:30:00     -527.891     -107.892      -21.202      312.386      208.186      109.311    97584.841    43341.457    11948.995       22.179        7.644      538.804      138.957        0.067      351.315       33.126      858.338
07/02/2014  15:31:00     -384.147      -48.781        1.053      236.417      174.929       93.515    55893.227    30600.234     8745.131       12.258        4.762      387.232      112.142        0.084      351.392       33.261      858.321
07/02/2014  15:32:00     -219.242     -103.810       13.080      170.645      164.262       77.050    29119.728    26981.870     5936.777        6.052        3.102      242.577       76.985        0.101      351.653       33.717      858.329
07/02/2014  15:33:00     -184.281     -135.265       34.695      219.461      173.073      100.661    48163.147    29954.377    10132.679        7.084        4.413      228.596      106.320        0.216      351.698       33.795      858.360
07/02/2014  15:34:00     -498.976      -99.428      -20.712      210.456      127.188       80.967    44291.839    16176.765     6555.578       16.315        3.351      508.785       83.001        0.027      351.336       33.164      858.375
07/02/2014  15:35:00     -381.655     -102.120      -13.549      202.875      128.881       91.742    41158.441    16610.362     8416.520       11.122        3.309      395.081       84.188        0.045      351.267       33.043      858.366
07/02/2014  15:36:00     -270.442     -152.529       23.903      234.513      155.194       89.201    54996.470    24085.294     7956.766        9.199        4.352      310.490      112.783        0.132      351.443       33.349      858.318
07/02/2014  15:37:00     -502.280     -316.694       13.818      344.039      255.434      124.910   118363.175    65246.616    15602.579       27.596        9.961      593.785      171.587        0.084      351.407       33.287      858.284
07/02/2014  15:38:00     -400.315     -274.514        4.887      313.088      190.279      104.694    98023.953    36206.017    10960.891       19.039        7.260      485.397      144.321        0.088      351.460       33.381      858.297
07/02/2014  15:39:00     -483.603     -385.372      -12.675      263.308      220.492      108.511    69331.091    48616.782    11774.531       25.611        6.486      618.372      114.295        0.034      351.314       33.125      858.327
07/02/2014  15:40:00     -402.619     -170.721      -14.621      257.995      179.415       82.415    66561.371    32189.828     6792.309       14.848        5.277      437.319       97.641        0.050      351.417       33.304      858.330
07/02/2014  15:41:00     -334.199     -141.647      -14.058      154.890      107.663       65.570    23990.808    11591.384     4299.369        8.591        1.994      362.978       43.367        0.014      351.312       33.122      858.311
07/02/2014  15:42:00     -209.617     -143.304       24.270      194.755      149.637       96.673    37929.564    22391.367     9345.606        6.735        3.483      253.920      112.402        0.196      351.519       33.482      858.301
07/02/2014  15:43:00     -476.678     -159.188      -15.673      279.829      185.281      106.307    78304.229    34329.148    11301.228       18.835        6.197      502.556      117.463        0.055      351.429       33.326      858.295
07/02/2014  15:44:00     -500.099     -182.660       -8.233      221.359      238.326      118.853    48999.630    56799.118    14126.032       20.171        5.996      532.413      132.244        0.062      351.452       33.367      858.285
07/02/2014  15:45:00     -415.313     -287.427      -12.667      250.317      267.332      124.285    62658.554    71466.458    15446.703       20.239        7.479      505.073      130.686        0.067      351.361       33.207      858.274
07/02/2014  15:46:00     -357.858     -138.987      -11.672      207.575      199.816      120.143    43087.373    39926.357    14434.248       12.247        4.872      383.901      105.320        0.075      351.476       33.408      858.245
07/02/2014  15:47:00     -135.041     -122.459       13.730      177.772      145.539       89.570    31602.876    21181.666     8022.784        4.710        3.040      182.297       87.349        0.230      351.763       33.909      858.245
07/02/2014  15:48:00     -358.230     -236.014      -11.749      204.347      182.093       94.174    41757.526    33158.015     8868.770       13.396        4.189      428.988       86.137        0.040      351.576       33.583      858.265
07/02/2014  15:49:00     -425.158     -277.475       -9.086      269.573      214.310       92.302    72669.471    45928.566     8519.652       19.245        6.356      507.692      101.423        0.040      351.371       33.225      858.251
07/02/2014  15:50:00     -464.389     -220.949      -11.389      238.056      179.554       97.002    56670.566    32239.629     9409.352       18.145        4.916      514.272      100.638        0.038      351.356       33.198      858.216
07/02/2014  15:51:00     -417.514     -139.369      -19.205      161.420      170.104       79.128    26056.495    28935.300     6261.265       12.767        3.063      440.161       67.465        0.023      351.593       33.611      858.213
07/02/2014  15:52:00     -429.327      -43.070      -17.256      192.283      180.936       78.941    36972.572    32737.757     6231.665       13.120        3.797      431.482       70.353        0.027      351.710       33.816      858.256
07/02/2014  15:53:00     -558.903     -156.685       -5.206      296.681      223.168      111.603    88019.354    49804.073    12455.302       24.359        7.514      580.451      134.530        0.054      351.381       33.242      858.234
07/02/2014  15:54:00     -424.662     -146.360      -14.878      198.975      192.004       93.639    39591.196    36865.348     8768.292       14.359        4.261      449.176       90.961        0.041      351.442       33.350      858.273
07/02/2014  15:55:00     -507.892     -126.593      -27.223      200.155      174.211       76.620    40062.030    30349.562     5870.654       17.549        3.814      523.431       82.753        0.025      351.421       33.311      858.259
07/02/2014  15:56:00     -266.416       60.387       10.604      221.260      140.136       82.814    48955.954    19638.112     6858.113        7.508        3.773      273.174       81.717        0.089      351.619       33.657      858.222
07/02/2014  15:57:00     -349.022       69.694      -23.255      151.918      110.566       78.035    23079.228    12224.949     6089.448        8.430        2.070      355.913       66.364        0.035      351.666       33.739      858.189
07/02/2014  15:58:00     -643.432     -122.452      -51.600      313.226      192.962       89.915    98110.801    37234.511     8084.683       28.752        7.171      654.980      126.272        0.037      351.479       33.413      858.188
07/02/2014  15:59:00     -526.528     -203.621        0.039      351.443      222.785      112.078   123512.360    49632.936    12561.571       25.217        9.285      564.529      151.282        0.072      351.445       33.353      858.191
07/02/2014  16:00:00     -545.285     -196.184      -41.830      238.928      288.310      119.701    57086.771    83122.672    14328.255       24.603        7.727      579.503      132.235        0.052      351.245       33.003      858.209
07/02/2014  16:01:00     -289.623      -36.090       -2.666      160.589      115.105       79.391    25788.954    13249.104     6302.869        6.526        2.267      291.863       84.356        0.084      351.548       33.535      858.192
07/02/2014  16:02:00     -276.459     -110.546       29.814      221.697      160.435      104.581    49149.576    25739.524    10937.150        8.767        4.291      297.742      112.728        0.143      351.590       33.606      858.188
07/02/2014  16:03:00     -464.857     -268.761      -28.671      237.776      174.891      104.838    56537.400    30586.989    10991.071       19.361        4.906      536.958       98.741        0.034      351.504       33.456      858.170
07/02/2014  16:04:00     -476.882     -123.986       -6.878      209.360      216.416       96.905    43831.544    46835.985     9390.625       17.143        5.003      492.736       96.274        0.038      351.550       33.535      858.165
07/02/2014  16:05:00     -650.174      -79.624      -40.740      291.221      209.462      120.809    84809.541    43874.516    14594.738       28.698        7.164      655.031      134.081        0.042      351.352       33.192      858.150
07/02/2014  16:06:00     -430.941     -102.953      -10.870      235.721      153.983       89.843    55564.432    23710.752     8071.710       14.187        4.367      443.068      101.968        0.053      351.486       33.425      858.152
07/02/2014  16:07:00     -408.130      -68.479      -17.171      287.079      162.529      105.663    82414.426    26415.572    11164.645       14.575        6.000      413.835      146.749        0.126      351.642       33.697      858.159
07/02/2014  16:08:00     -436.970     -222.259       -2.380      215.121      210.388       95.070    46277.163    44262.912     9038.212       16.995        4.979      490.247       96.611        0.039      351.467       33.392      858.166
07/02/2014  16:09:00     -447.658     -267.069       -5.871      200.003      176.384       99.039    40001.109    31111.374     9808.753       17.633        4.046      521.271      109.520        0.044      351.470       33.397      858.147
07/02/2014  16:10:00     -351.263     -286.457       13.670      227.398      160.985      103.782    51710.035    25916.217    10770.676       14.700        4.420      453.259      121.424        0.072      351.408       33.289      858.177
07/02/2014  16:11:00     -542.586     -370.337      -22.003      268.440      170.739      119.716    72060.212    29151.847    14331.822       27.377        5.777      656.924      137.826        0.044      351.286       33.076      858.134
07/02/2014  16:12:00     -470.022     -213.357      -20.517      232.264      160.147      111.744    53946.420    25647.108    12486.634       17.946        4.604      516.180      120.094        0.054      351.384       33.246      858.144
07/02/2014  16:13:00     -424.020     -245.371      -10.511      236.200      167.897      102.083    55790.301    28189.294    10420.988       16.724        4.720      489.898      127.217        0.067      351.438       33.343      858.160
07/02/2014  16:14:00     -409.129     -139.497      -11.217      201.499      161.998       90.722    40601.862    26243.365     8230.444       13.101        3.754      432.257       96.256        0.050      351.446       33.355      858.154
07/02/2014  16:15:00     -584.870     -152.316      -11.607      247.979      183.216      114.295    61493.706    33567.922    13063.278       23.675        5.406      604.378      137.373        0.052      351.271       33.051      858.155
07/02/2014  16:16:00     -441.371     -175.440      -13.997      179.437      185.866       87.900    32197.774    34546.204     7726.456       15.011        3.724      474.960       77.059        0.026      351.288       33.080      858.165
07/02/2014  16:17:00     -520.318     -282.240      -25.438      248.501      178.497      109.946    61752.963    31861.151    12088.132       22.835        5.285      591.938      118.103        0.040      351.234       32.984      858.166
07/02/2014  16:18:00     -464.337     -220.709       -0.853      252.984      256.646      111.951    64001.012    65867.284    12532.980       20.334        7.120      514.122      126.785        0.061      351.240       32.996      858.145
07/02/2014  16:19:00     -523.529     -257.935      -26.145      262.528      188.374      103.831    68920.956    35484.593    10780.801       22.822        5.759      583.620      108.683        0.035      351.292       33.088      858.139
07/02/2014  16:20:00     -436.938     -190.502       -2.242      213.565      204.072       97.313    45609.833    41645.448     9469.844       16.195        4.836      476.661      103.084        0.047      351.093       32.740      858.135
07/02/2014  16:21:00     -355.286     -303.017       27.441      320.905      259.892      138.924   102980.077    67543.857    19299.825       20.428        9.491      466.955      171.667        0.135      351.202       32.929      858.092
07/02/2014  16:22:00     -258.387      -98.611       -1.614      139.570       96.035       68.779    19479.654     9222.782     4730.535        5.496        1.672      276.564       66.965        0.059      351.383       33.246      858.106
07/02/2014  16:23:00     -173.763      -93.737       -0.804      146.692      127.779       59.101    21518.496    16327.364     3492.913        4.015        2.067      197.434       70.594        0.128      351.585       33.600      858.093
07/02/2014  16:24:00     -257.275      -99.136        4.854      177.044      213.193       94.541    31344.462    45451.384     8938.049        8.087        4.287      275.714      101.589        0.136      351.509       33.467      858.075
07/02/2014  16:25:00     -313.912      -67.860        1.438      211.842      208.469      101.091    44877.209    43459.529    10219.469       10.084        4.928      321.164       80.562        0.063      351.490       33.433      858.056
07/02/2014  16:26:00     -458.246      -98.555      -17.640      218.228      213.157       99.516    47623.621    45436.073     9903.370       16.147        5.148      468.725      104.452        0.050      351.396       33.268      858.037
07/02/2014  16:27:00     -369.164     -129.717       -3.638      259.007      188.126      101.573    67084.541    35391.409    10317.066       13.294        5.640      391.291      121.493        0.096      351.505       33.457      858.042
07/02/2014  16:28:00     -564.241     -174.820      -22.752      278.799      219.803      113.906    77729.109    48313.187    12974.643       24.421        6.951      590.703      135.120        0.052      351.179       32.890      858.035
07/02/2014  16:29:00     -517.621     -102.319      -17.071      218.810      182.344       96.028    47877.815    33249.416     9221.288       18.450        4.517      527.636      107.675        0.042      351.278       33.062      858.033
07/02/2014  16:30:00     -477.493     -236.492      -13.511      222.173      221.811       97.733    49360.815    49200.129     9551.764       19.609        5.406      532.849      101.122        0.036      351.101       32.753      858.034
07/02/2014  16:31:00     -301.117     -220.465      -14.394      127.374      114.686       65.026    16224.093    13152.897     4228.369        8.654        1.680      373.197       70.824        0.036      350.906       32.414      858.029
07/02/2014  16:32:00     -218.983     -192.192       16.990      171.971      146.875       88.371    29574.029    21572.271     7809.353        7.206        2.948      291.361       93.719        0.103      351.198       32.922      858.006
07/02/2014  16:33:00     -256.231     -141.182       -0.250      144.340      124.897       67.959    20834.107    15599.275     4618.467        6.331        2.053      292.552       70.427        0.058      351.387       33.251      858.006
07/02/2014  16:34:00     -485.642      -97.956      -16.231      182.225      231.493       87.115    33205.931    53589.106     7588.961       17.003        4.719      495.423       90.183        0.033      351.387       33.253      858.025
07/02/2014  16:35:00     -272.219     -108.922        6.742      258.471      195.759       84.407    66807.251    38321.467     7124.493        9.911        5.613      293.201      112.306        0.147      351.429       33.328      858.021
07/02/2014  16:36:00     -432.266     -224.293       -7.948      212.988      161.710       94.483    45364.088    26150.056     8927.122       15.882        4.022      486.992       98.228        0.041      351.269       33.046      858.011
07/02/2014  16:37:00     -243.005      -88.901        7.780      151.406      135.833       71.195    22923.705    18450.523     5068.707        5.672        2.322      258.757       73.304        0.080      351.504       33.455      858.033
07/02/2014  16:38:00     -423.267     -143.353        2.371      201.245      163.773       88.951    40499.739    26821.688     7912.231       13.746        3.762      446.884       94.145        0.044      351.453       33.368      858.031
07/02/2014  16:39:00     -279.043     -154.184        5.265      205.929      157.152       93.217    42406.912    24696.894     8689.428        8.872        3.790      318.806      111.899        0.123      351.598       33.621      858.051
07/02/2014  16:40:00     -412.722     -162.444       -8.271      246.833      147.567       94.236    60926.775    21776.037     8880.450       14.417        4.579      443.540      116.484        0.069      351.363       33.210      858.047
07/02/2014  16:41:00     -428.365     -290.804        1.660      247.353      206.449      102.961    61183.374    42621.218    10601.009       19.122        5.720      517.748      118.818        0.053      351.275       33.055      858.029
07/02/2014  16:42:00     -390.419     -154.060       -8.755      258.092      205.618      102.974    66611.392    42278.826    10603.594       14.785        5.975      419.716      129.488        0.095      351.168       32.869      858.025
07/02/2014  16:43:00     -466.153      -15.938       -1.949      240.281      166.613      101.670    57735.062    27759.999    10336.734       15.668        4.792      466.425      130.012        0.078      351.245       33.005      858.026
07/02/2014  16:44:00     -448.234     -261.928      -11.953      216.467      206.254      101.501    46858.053    42540.778    10302.456       18.467        4.985      519.154      101.162        0.038      351.151       32.842      858.032
07/02/2014  16:45:00     -390.578     -230.374      -17.596      203.714      153.571       79.238    41499.471    23584.107     6278.681       13.864        3.568      453.457       89.392        0.039      351.126       32.796      858.019
07/02/2014  16:46:00     -389.150     -270.056       -8.713      268.086      174.292      111.253    71870.175    30377.837    12377.187       16.952        5.731      473.675      112.539        0.056      351.224       32.967      857.986
07/02/2014  16:47:00     -578.694     -240.976      -20.476      220.542      184.605      108.171    48638.855    34079.069    11700.949       24.388        4.721      626.863      120.733        0.037      351.119       32.783      857.978
07/02/2014  16:48:00     -393.350      -18.682      -23.281      196.580      115.692       78.267    38643.571    13384.672     6125.702       10.687        2.908      393.793       93.995        0.057      351.391       33.258      857.982
07/02/2014  16:49:00     -497.467     -193.861      -16.527      231.205      150.562       94.165    53455.550    22669.045     8866.964       18.515        4.250      533.906       97.341        0.033      351.221       32.962      857.974
07/02/2014  16:50:00     -469.167      -42.514      -39.559      276.938      192.646       84.301    76694.759    37112.519     7106.636       17.218        6.046      471.089      105.537        0.050      351.242       32.998      857.975
07/02/2014  16:51:00     -302.340     -158.213        5.567      183.462      205.393       93.820    33658.241    42186.368     8802.258       10.055        4.232      341.235       86.505        0.064      351.370       33.224      857.973
07/02/2014  16:52:00     -452.132     -244.120      -39.691      219.065      161.855       94.358    47989.459    26197.013     8903.381       17.433        4.154      513.826      108.669        0.045      351.130       32.803      857.975
07/02/2014  16:53:00     -386.094     -193.232       -7.471      152.285      118.738       68.428    23190.764    14098.795     4682.382       11.421        2.099      431.749       61.908        0.021      351.224       32.966      857.996
07/02/2014  16:54:00     -259.860     -226.387        1.463      166.668      155.371       90.779    27778.287    24140.219     8240.914        8.946        3.008      344.642       84.976        0.061      351.205       32.935      857.986
07/02/2014  16:55:00     -320.094     -234.229       -4.242      224.138      182.946      112.981    50237.751    33469.384    12764.726       12.689        4.824      396.640      125.226        0.100      351.186       32.901      857.972
07/02/2014  16:56:00     -230.619      -59.872        4.418      245.691      163.174       75.560    60364.287    26625.675     5709.305        7.473        4.635      238.264       97.031        0.166      351.508       33.465      857.970
07/02/2014  16:57:00     -433.684     -277.579      -21.027      234.360      249.815       97.297    54924.494    62407.520     9466.771       19.617        6.340      514.909       93.734        0.033      351.279       33.063      857.985
07/02/2014  16:58:00     -333.320     -240.855        8.530      275.993      195.393      105.362    76171.953    38178.233    11101.101       14.730        6.273      411.234      110.005        0.072      351.118       32.782      857.952
07/02/2014  16:59:00     -299.995      -58.294       -7.451      134.414      146.633       67.588    18067.158    21501.334     4568.139        6.879        2.207      305.606       67.517        0.049      351.425       33.320      857.976
07/02/2014  17:00:00     -362.933     -109.016      -14.308      247.162      162.856       86.577    61088.818    26522.044     7495.598       11.944        4.755      378.953      103.492        0.075      351.321       33.138      857.960
07/02/2014  17:01:00     -537.084     -333.896      -15.094      270.902      225.323      124.768    73387.776    50770.596    15566.999       26.993        6.986      632.413      145.962        0.053      351.103       32.757      857.956
07/02/2014  17:02:00     -421.723     -200.753       -4.337      260.806      195.689      109.127    68019.665    38294.149    11908.666       16.818        5.911      467.067      118.761        0.065      351.155       32.846      857.920
07/02/2014  17:03:00     -468.450     -143.174       -4.344      212.886      196.825      107.512    45320.347    38739.988    11558.902       16.778        4.781      489.841      101.055        0.043      351.084       32.723      857.922
07/02/2014  17:04:00     -399.298     -182.042       -3.902      244.327      220.437      103.853    59695.462    48592.314    10785.512       15.581        5.954      438.837      126.527        0.083      351.087       32.730      857.930
07/02/2014  17:05:00     -342.956     -161.698       -7.233      185.100      140.634       82.950    34262.132    19777.791     6880.722       10.236        3.046      379.163       92.300        0.059      351.106       32.761      857.906
07/02/2014  17:06:00     -399.733     -185.184       -0.287      236.921      144.096       95.546    56131.569    20763.750     9129.018       14.004        4.301      440.545      113.130        0.066      351.192       32.911      857.874
07/02/2014  17:07:00     -450.473     -128.929      -20.438      294.198      187.585       95.637    86552.612    35188.017     9146.497       17.540        6.544      468.560      107.621        0.053      351.159       32.854      857.861
07/02/2014  17:08:00     -442.072     -131.338      -29.340      163.520      155.755       82.569    26738.925    24259.618     6817.679       13.567        2.891      461.169       69.473        0.023      351.198       32.921      857.848
07/02/2014  17:09:00     -275.933     -116.049      -13.525      167.973      120.904       52.432    28215.087    14617.730     2749.142        6.768        2.279      299.344       62.149        0.043      351.446       33.355      857.848
07/02/2014  17:10:00     -385.723     -198.060      -10.034      252.738      201.664       95.347    63876.401    40668.284     9090.990       15.085        5.682      433.601      110.771        0.065      351.194       32.916      857.827
07/02/2014  17:11:00     -390.675     -108.897       -9.597      290.422      172.924       98.515    84344.811    29902.729     9705.284       14.424        6.198      405.568      126.800        0.098      351.211       32.945      857.780
07/02/2014  17:12:00     -397.565     -126.913       10.521      331.663      288.034      104.163   110000.409    82963.347    10849.921       18.901       10.191      417.330      139.205        0.111      351.286       33.076      857.816
07/02/2014  17:13:00     -483.767     -176.048        2.230      295.632      253.623       99.534    87398.178    64324.652     9906.937       21.330        8.081      514.804      102.783        0.040      351.152       32.842      857.832
07/02/2014  17:14:00     -657.871     -391.094      -32.623      241.449      290.540      136.327    58297.776    84413.761    18585.002       37.403        8.065      765.342      125.831        0.027      350.881       32.370      857.786
07/02/2014  17:15:00     -598.372      -96.387      -19.710      271.997      167.628       99.335    73982.370    28099.260     9867.443       23.982        5.597      606.086      104.798        0.030      351.043       32.652      857.819
07/02/2014  17:16:00     -314.313     -204.831        5.053      224.301      173.847       97.927    50311.114    30222.707     9589.665       11.543        4.506      375.165      113.228        0.091      351.126       32.798      857.833
07/02/2014  17:17:00     -226.215     -165.808       12.006      219.063      167.844       98.261    47988.445    28171.685     9655.142        8.230        4.291      280.474      100.510        0.128      351.199       32.923      857.830
07/02/2014  17:18:00     -197.828     -123.387      -11.607      176.686      114.763       73.866    31218.035    13170.613     5456.233        5.216        2.492      233.153       80.666        0.120      351.238       32.992      857.813
07/02/2014  17:19:00     -430.435     -157.985      -34.380      235.625      217.414      103.021    55519.245    47268.851    10613.349       16.239        5.670      458.513      107.912        0.055      351.010       32.593      857.817
07/02/2014  17:20:00     -559.987      -49.079      -34.358      258.515      215.007      109.719    66830.243    46227.797    12038.158       22.111        6.255      562.133      117.457        0.044      350.975       32.533      857.785
07/02/2014  17:21:00     -564.089      -79.768      -51.280      203.355      176.093       81.647    41353.334    31008.881     6666.230       20.310        3.951      569.701       79.850        0.020      351.051       32.664      857.750
07/02/2014  17:22:00     -522.127      -68.339      -32.633      280.865      258.737      129.488    78884.993    66945.083    16767.046       22.045        8.130      526.580      135.539        0.066      350.960       32.508      857.723
07/02/2014  17:23:00     -448.581     -147.807      -26.060      232.446      206.477      104.237    54031.124    42632.766    10865.448       16.562        5.376      472.305      113.741        0.058      351.051       32.665      857.778
07/02/2014  17:24:00     -336.329     -162.104      -12.934      223.897      187.327       86.562    50129.779    35091.431     7492.960       11.612        4.636      373.356       96.749        0.067      351.163       32.861      857.779
07/02/2014  17:25:00     -473.504       26.512      -17.660      243.167      184.372      102.883    59129.977    33993.113    10584.888       16.445        5.185      474.246      105.183        0.049      351.204       32.931      857.799
07/02/2014  17:26:00     -605.272      -47.293      -44.076      243.861      149.147       92.967    59468.415    22244.942     8642.921       23.043        4.518      607.117      106.840        0.031      351.102       32.755      857.787
07/02/2014  17:27:00     -332.268      -51.165      -17.523      208.743      132.167       77.297    43573.438    17467.992     5974.799        9.016        3.351      336.185       85.137        0.064      351.257       33.026      857.818
07/02/2014  17:28:00     -480.547       38.082      -30.001      291.629      198.068      112.883    85047.594    39231.020    12742.509       18.513        6.851      482.053      120.207        0.062      351.042       32.652      857.795
07/02/2014  17:29:00     -688.240     -105.273      -37.631      197.657      224.111      102.994    39068.462    50225.854    10607.691       29.302        4.995      696.245      102.082        0.021      350.850       32.318      857.783
07/02/2014  17:30:00     -448.811     -130.645      -27.464      212.558      153.935       83.749    45181.090    23695.835     7013.880       14.756        3.795      467.439       81.367        0.030      350.905       32.412      857.747
07/02/2014  17:31:00     -319.679      -61.501       -3.372      130.206      150.234       64.597    16953.519    22570.219     4172.796        7.484        2.185      325.541       60.643        0.035      351.212       32.946      857.801
07/02/2014  17:32:00     -463.513     -192.734      -11.762      193.957      170.664       85.166    37619.500    29126.340     7253.173       16.305        3.700      501.987       82.889        0.027      351.029       32.628      857.768
07/02/2014  17:33:00     -419.834     -122.825        1.325      258.535      155.540       87.447    66840.236    24192.817     7646.950       14.500        4.934      437.431      110.991        0.064      351.128       32.800      857.776
07/02/2014  17:34:00     -385.808     -127.554      -15.630      302.157      167.253      106.254    91299.028    27973.595    11290.010       14.794        6.528      406.347      133.245        0.108      351.016       32.606      857.729
07/02/2014  17:35:00     -543.656      -56.106      -41.442      244.697      179.967       99.720    59876.523    32388.116     9944.045       20.130        5.110      546.544      116.313        0.045      351.027       32.624      857.745
07/02/2014  17:36:00     -519.396     -178.376      -24.552      277.227      185.890      117.293    76854.798    34554.973    13757.666       21.366        6.258      549.172      127.942        0.054      350.951       32.492      857.787
07/02/2014  17:37:00     -446.504     -188.148      -12.253      342.031      212.203      116.986   116984.961    45030.100    13685.632       20.528        8.785      484.526      135.456        0.078      350.871       32.353      857.748
07/02/2014  17:38:00     -350.191     -104.167        0.993      180.648      109.510       74.269    32633.550    11992.513     5515.920        9.181        2.507      365.355       88.843        0.059      350.981       32.545      857.745
07/02/2014  17:39:00     -490.755      -87.253        3.118      311.324      182.839      114.775    96922.524    33430.128    13173.202       19.597        7.176      498.451      142.129        0.081      350.840       32.298      857.687
07/02/2014  17:40:00     -288.758     -119.050       -7.998      199.204      172.466       77.876    39682.229    29744.443     6064.653        8.654        3.775      312.337       79.509        0.065      350.958       32.505      857.696
07/02/2014  17:41:00     -482.528     -134.874      -18.208      224.537      215.254      108.017    50417.073    46334.096    11667.742       17.987        5.421      501.023      113.228        0.051      350.841       32.301      857.642
07/02/2014  17:42:00     -288.860      -52.328       -6.693      170.652      154.660       82.891    29122.218    23919.734     6870.935        7.306        2.996      293.561       82.238        0.078      351.104       32.758      857.658
07/02/2014  17:43:00     -335.515      -95.097      -12.705      220.343      169.695       85.794    48550.946    28796.425     7360.545       10.323        4.235      348.731       98.929        0.080      351.060       32.683      857.648
07/02/2014  17:44:00     -539.888      -28.098      -38.126      191.915      196.025      110.357    36831.436    38425.936    12178.732       19.056        4.372      540.619       92.081        0.029      350.980       32.543      857.664
07/02/2014  17:45:00     -626.699      -44.840      -25.440      234.883      213.524      102.715    55170.029    45592.333    10550.444       25.334        5.566      628.301      104.009        0.027      350.860       32.335      857.635
07/02/2014  17:46:00     -579.809      -70.542      -35.143      240.594      201.624       96.089    57885.544    40652.187     9233.114       22.506        5.389      584.085      104.942        0.032      350.874       32.359      857.624
07/02/2014  17:47:00     -764.034     -217.452      -46.832      224.806      211.958      111.937    50537.697    44926.111    12529.889       37.059        5.400      794.376      122.891        0.024      350.706       32.064      857.585
07/02/2014  17:48:00     -524.454     -119.534      -16.668      305.096      201.609      130.517    93083.346    40646.174    17034.803       22.017        7.538      537.903      159.637        0.088      350.895       32.395      857.624
07/02/2014  17:49:00     -697.151     -117.825      -27.105      255.931      167.947      103.794    65500.464    28206.285    10773.259       30.254        5.224      707.038      123.975        0.031      350.837       32.295      857.642
07/02/2014  17:50:00     -582.655      -74.425      -47.899      247.515      227.451      111.318    61263.455    51733.891    12391.588       23.633        6.269      587.389      109.385        0.035      350.830       32.281      857.645
07/02/2014  17:51:00     -682.014      -84.541      -38.766      228.843      191.275      109.463    52369.216    36586.250    11982.158       28.735        5.047      687.234      108.207        0.025      350.770       32.179      857.640
07/02/2014  17:52:00     -589.855      -93.206      -29.190      319.736      200.254      110.860   102231.303    40101.533    12289.947       25.602        7.731      597.173      141.945        0.056      350.804       32.237      857.702
07/02/2014  17:53:00     -527.037     -155.691      -16.893      313.221      174.524      103.306    98107.486    30458.494    10672.083       22.074        6.962      549.552      147.651        0.072      350.745       32.134      857.690
07/02/2014  17:54:00     -263.752      -51.456       13.816      247.102      168.444      108.198    61059.476    28373.413    11706.843        8.675        5.057      268.724      122.908        0.209      350.864       32.341      857.704
07/02/2014  17:55:00     -428.278       39.116      -16.357      184.267      127.869       91.911    33954.457    16350.561     8447.718       12.198        2.938      430.060       89.095        0.043      350.865       32.342      857.726
07/02/2014  17:56:00     -420.676      -45.582       -9.435      205.204      168.423       96.652    42108.690    28366.346     9341.675       12.946        3.991      423.138      110.277        0.068      350.882       32.373      857.749
07/02/2014  17:57:00     -469.541      -74.649       -3.599      255.869      176.239      102.413    65468.804    31060.077    10488.402       16.652        5.351      475.438      124.502        0.069      350.815       32.256      857.733
07/02/2014  17:58:00     -627.509     -201.027      -39.862      213.363      224.087       94.366    45523.691    50214.911     8904.917       27.019        5.232      658.923       99.748        0.023      350.646       31.961      857.727
07/02/2014  17:59:00     -498.013     -150.006      -20.145      220.043      223.001       98.602    48418.750    49729.525     9722.290       18.938        5.394      520.114      106.353        0.042      350.691       32.039      857.723
07/02/2014  18:00:00     -399.991     -298.277       -8.054      270.015      240.017      124.212    72908.058    57608.329    15428.526       19.746        7.297      498.961      143.526        0.083      350.613       31.904      857.697
07/02/2014  18:01:00     -389.597      -83.631      -20.097      274.825      159.328      109.542    75528.550    25385.485    11999.459       13.603        5.646      398.472      140.819        0.125      350.655       31.978      857.719
07/02/2014  18:02:00     -610.460       16.692      -31.319      236.911      170.607       91.394    56126.838    29106.865     8352.883       23.374        4.679      610.688      104.780        0.029      350.628       31.929      857.749
07/02/2014  18:03:00     -613.723      -83.105      -29.767      236.747      183.754      108.344    56048.916    33765.402    11738.490       24.298        5.078      619.324      121.663        0.039      350.617       31.909      857.718
07/02/2014  18:04:00     -469.805       12.286      -18.262      180.931      173.861       93.970    32735.946    30227.669     8830.273       14.649        3.590      469.965       76.756        0.027      350.737       32.120      857.726
07/02/2014  18:05:00     -554.832     -150.496      -26.553      231.528      183.041       92.283    53605.081    33503.845     8516.065       21.339        4.781      574.881      105.847        0.034      350.637       31.943      857.764
07/02/2014  18:06:00     -330.080     -114.935       -7.294      187.582      163.949       87.350    35186.984    26879.273     7630.069        9.594        3.485      349.518       88.415        0.064      350.665       31.993      857.768
07/02/2014  18:07:00     -450.366      -58.682      -14.764      303.031      149.640      110.087    91827.808    22391.981    12119.050       16.639        6.317      454.173      152.244        0.112      350.694       32.045      857.830
07/02/2014  18:08:00     -416.227     -214.484       -6.947      270.268      222.886      113.748    73044.616    49678.010    12938.564       17.746        6.783      468.240      127.542        0.074      350.546       31.788      857.783
07/02/2014  18:09:00     -419.356     -197.873      -21.813      264.228      169.492       93.149    69816.693    28727.624     8676.759       16.134        5.361      463.695      115.252        0.062      350.546       31.786      857.793
07/02/2014  18:10:00     -349.651     -108.650        1.491      284.878      174.682      109.983    81155.537    30513.641    12096.247       12.889        6.188      366.143      138.253        0.143      350.624       31.923      857.828
07/02/2014  18:11:00     -605.074     -204.882       -7.688      278.397      222.142      104.180    77504.719    49346.888    10853.502       27.290        6.885      638.821      131.620        0.042      350.530       31.758      857.807
07/02/2014  18:12:00     -578.483     -120.764      -44.065      292.491      197.223      112.273    85551.173    38896.914    12605.284       24.409        6.853      590.954      114.658        0.038      350.496       31.698      857.808
07/02/2014  18:13:00     -492.857     -265.894       -0.806      267.101      233.021      139.092    71343.030    54298.966    19346.560       22.927        7.249      560.007      155.698        0.077      350.503       31.712      857.830
07/02/2014  18:14:00     -523.891      -81.590      -33.185      232.247      170.046      104.535    53938.735    28915.781    10927.558       18.799        4.689      530.207      115.155        0.047      350.486       31.682      857.858
07/02/2014  18:15:00     -454.761     -149.569      -35.883      227.377      194.827      100.390    51700.165    37957.627    10078.090       16.508        4.987      478.726       96.852        0.041      350.516       31.734      857.881
07/02/2014  18:16:00     -426.717      -32.604       11.446      240.004      183.105      101.648    57601.991    33527.556    10332.403       14.235        5.073      427.961      114.254        0.071      350.542       31.779      857.893
07/02/2014  18:17:00     -448.462      -96.754      -12.034      223.849      161.374       87.467    50108.597    26041.484     7650.410       14.720        4.190      458.780       79.359        0.030      350.559       31.809      857.886
07/02/2014  18:18:00     -447.483     -199.830      -12.458      213.082      162.934       93.233    45403.968    26547.500     8692.370       16.047        4.032      490.074      109.891        0.050      350.458       31.632      857.876
07/02/2014  18:19:00     -348.045     -165.667       -9.667      193.525      213.524       86.214    37452.068    45592.494     7432.902       11.956        4.524      385.462       94.610        0.060      350.568       31.825      857.870
07/02/2014  18:20:00     -366.070      -83.647       -5.410      195.773      119.411       75.551    38327.046    14258.903     5707.900        9.965        2.915      375.505       85.388        0.052      350.644       31.958      857.906
07/02/2014  18:21:00     -409.873     -112.899      -13.281      256.991      179.200      101.449    66044.566    32112.728    10291.936       14.467        5.422      425.138      119.247        0.079      350.514       31.731      857.895
07/02/2014  18:22:00     -226.122      -79.372        9.001      186.379      150.748       77.603    34737.124    22724.895     6022.194        6.049        3.174      239.648       76.762        0.103      350.634       31.941      857.911
07/02/2014  18:23:00     -552.934     -251.894      -34.522      228.455      183.752       89.697    52191.468    33764.859     8045.498       23.217        4.700      607.607       81.211        0.018      350.496       31.699      857.915
07/02/2014  18:24:00     -578.681     -138.983      -33.477      215.229      187.614       98.916    46323.308    35199.160     9784.402       22.329        4.565      595.137      107.046        0.032      350.430       31.586      857.893
07/02/2014  18:25:00     -430.490      -82.760      -10.107      193.207      174.298       73.748    37328.778    30379.837     5438.713       13.270        3.657      438.373       68.944        0.025      350.450       31.619      857.891
07/02/2014  18:26:00     -436.108      -51.762      -22.020      189.352      187.032       89.462    35854.245    34980.995     8003.511       13.608        3.942      439.169       97.973        0.050      350.527       31.753      857.910
07/02/2014  18:27:00     -471.216     -201.118      -26.782      297.306      194.456      124.422    88390.842    37813.058    15480.950       20.242        7.084      512.341      162.942        0.101      350.467       31.649      857.885
07/02/2014  18:28:00     -243.881      -63.177        0.232      183.495      143.273       89.149    33670.525    20527.267     7947.501        6.280        3.107      251.931       97.653        0.150      350.514       31.732      857.897
07/02/2014  18:29:00     -535.057     -125.086      -26.342      269.237      171.668       88.574    72488.507    29470.045     7845.285       20.620        5.490      549.484      111.477        0.041      350.483       31.675      857.913
07/02/2014  18:30:00     -355.881      -71.343       -7.384      356.536      190.915      108.216   127118.117    36448.411    11710.637       15.351        8.764      362.962      156.400        0.186      350.508       31.721      857.902
07/02/2014  18:31:00     -229.875     -225.728      -13.713      194.877      178.256      105.663    37977.213    31775.258    11164.582        9.244        4.046      322.173      101.053        0.098      350.409       31.549      857.866
07/02/2014  18:32:00      -59.313      -23.938       23.724      153.818      107.319       86.145    23660.072    11517.426     7420.940        2.362        2.130       63.961       75.216        1.383      350.510       31.726      857.878
07/02/2014  18:33:00     -306.070     -114.400      -20.074      169.176      129.736       69.688    28620.647    16831.337     4856.481        7.873        2.515      326.751       54.521        0.028      350.455       31.628      857.898
07/02/2014  18:34:00     -404.718     -142.719       -7.550      175.807      153.990       83.708    30908.270    23712.990     7007.029       12.291        3.081      429.145       78.712        0.034      350.383       31.503      857.895
07/02/2014  18:35:00     -270.568      -80.248       11.288      231.385      201.109      107.892    53538.978    40444.947    11640.647        9.268        5.281      282.218      107.293        0.145      350.349       31.445      857.895
07/02/2014  18:36:00     -366.411      -41.954      -13.881      245.541      184.543       90.116    60290.201    34056.264     8120.954       11.932        5.123      368.805       97.547        0.070      350.380       31.499      857.902
07/02/2014  18:37:00     -513.783       -9.695      -33.726      268.133      207.316      106.795    71895.174    42979.759    11405.163       19.572        6.314      513.874      130.506        0.064      350.333       31.417      857.928
07/02/2014  18:38:00     -448.162     -149.336      -38.120      249.294      212.232      119.946    62147.538    45042.570    14386.939       17.307        6.079      472.388      133.661        0.080      350.283       31.330      857.885
07/02/2014  18:39:00     -341.198      -21.545       -3.114      174.422      153.061       84.180    30422.886    23427.647     7086.324        8.890        3.047      341.877       80.379        0.055      350.362       31.467      857.913
07/02/2014  18:40:00     -447.843      -19.381      -12.680      172.383      121.221       92.124    29716.015    14694.541     8486.837       12.699        2.645      448.262       93.632        0.044      350.262       31.293      857.908
07/02/2014  18:41:00     -314.961      -58.707      -25.798      176.126      186.465       90.038    31020.373    34769.230     8106.752        8.859        3.695      320.385       85.711        0.072      350.292       31.346      857.909
07/02/2014  18:42:00     -503.825     -143.354       -4.777      267.713      172.198      103.917    71670.318    29652.189    10798.744       19.325        5.606      523.822      121.080        0.053      350.199       31.184      857.894
07/02/2014  18:43:00     -499.928     -162.529      -18.943      242.307      178.854       95.230    58712.730    31988.623     9068.825       18.822        4.989      525.684      110.956        0.045      350.251       31.274      857.907
07/02/2014  18:44:00     -513.521     -167.263      -16.626      333.826      192.192      111.820   111439.987    36937.855    12503.741       22.639        8.044      540.075      156.295        0.084      350.226       31.231      857.901
07/02/2014  18:45:00     -539.328      -56.377      -29.243      227.389      244.855      103.498    51705.724    59954.156    10711.757       20.862        6.119      542.267       85.489        0.025      350.202       31.189      857.918
07/02/2014  18:46:00     -388.009     -133.770       -5.264      219.101      185.038       86.855    48005.456    34239.020     7543.808       12.912        4.489      410.421       93.116        0.051      350.214       31.212      857.987
07/02/2014  18:47:00     -323.840      -23.297       -0.838      178.736      133.501       74.714    31946.574    17822.404     5582.137        8.037        2.768      324.677       70.070        0.047      350.295       31.350      858.007
07/02/2014  18:48:00     -513.406      -81.525        5.227      351.922      181.088      119.162   123848.755    32793.043    14199.587       22.052        8.542      519.839      151.134        0.085      350.195       31.177      858.011
07/02/2014  18:49:00     -316.511     -172.184       -0.028      176.540      202.904      100.360    31166.224    41170.045    10072.115       10.610        4.120      360.315       92.196        0.065      350.172       31.134      857.998
07/02/2014  18:50:00     -318.499     -174.547       -3.598      211.883      131.083       78.624    44894.490    17182.821     6181.774       10.008        3.413      363.192      101.827        0.079      350.194       31.175      858.048
07/02/2014  18:51:00     -425.466     -175.526      -10.672      204.576      192.821       91.855    41851.405    37179.892     8437.285       14.969        4.373      460.250       93.604        0.041      350.194       31.176      858.048
07/02/2014  18:52:00     -270.907     -112.776        0.510      145.517      162.414       83.889    21175.071    26378.182     7037.369        7.034        2.730      293.443       83.914        0.082      350.200       31.186      858.053
07/02/2014  18:53:00     -253.622       -0.014        0.173      175.467      124.468       68.308    30788.654    15492.317     4666.012        5.763        2.547      253.622       71.471        0.079      350.217       31.215      858.088
07/02/2014  18:54:00     -314.348      -80.537        9.390      190.758      156.336       91.034    36388.570    24440.902     8287.120        8.724        3.456      324.501       86.460        0.071      350.187       31.163      858.091
07/02/2014  18:55:00     -520.761       -7.920      -13.535      307.053      190.917      112.922    94281.339    36449.381    12751.413       20.744        7.174      520.821      148.406        0.081      350.106       31.021      858.102
07/02/2014  18:56:00     -234.137     -108.349       -7.688      188.196      149.753       82.511    35417.808    22425.997     6808.116        6.562        3.233      257.992       92.382        0.128      350.174       31.141      858.142
07/02/2014  18:57:00     -348.967     -168.511       -4.642      185.569      153.804       87.780    34435.914    23655.547     7705.299       10.799        3.290      387.523       88.565        0.052      350.106       31.021      858.102
07/02/2014  18:58:00     -260.519     -117.832        5.094      158.451      184.909       67.567    25106.802    34191.242     4565.314        7.281        3.193      285.928       88.807        0.096      350.141       31.081      858.126
07/02/2014  18:59:00     -243.482      -83.598        9.258      165.569      109.126       75.431    27413.060    11908.494     5689.793        5.568        2.251      257.433       70.040        0.074      350.115       31.037      858.132
07/02/2014  19:00:00     -527.245      -46.479      -31.090      228.896      118.460       77.883    52393.363    14032.666     6065.806       17.679        3.625      529.289       95.451        0.033      350.022       30.878      858.100
07/02/2014  19:01:00     -306.573       -4.263      -18.757      139.395      121.028       62.613    19430.852    14647.895     3920.388        6.617        1.900      306.603       65.309        0.045      350.090       30.993      858.101
07/02/2014  19:02:00     -489.390      -10.517      -27.715      189.345      164.643       72.813    35851.615    27107.411     5301.669       15.431        3.413      489.503       85.886        0.031      350.037       30.902      858.079
07/02/2014  19:03:00     -350.239       -8.920      -11.759      154.918      142.780       84.498    23999.613    20386.237     7139.923        8.720        2.576      350.353       76.108        0.047      350.059       30.938      858.112
07/02/2014  19:04:00     -529.467      -79.592      -39.611      231.765      176.517       85.324    53715.003    31158.398     7280.135       19.018        4.608      535.415       94.253        0.031      350.002       30.842      858.119
07/02/2014  19:05:00     -481.467      -25.245       -3.983      189.619      169.730       86.287    35955.263    28808.175     7445.466       15.232        3.610      482.129       86.018        0.032      349.989       30.820      858.121
07/02/2014  19:06:00     -543.850     -100.369      -21.488      303.971      207.888      109.103    92398.263    43217.273    11903.399       22.689        7.376      553.034      136.557        0.061      349.977       30.798      858.122
07/02/2014  19:07:00     -572.235      -98.397      -20.744      277.582      243.319      128.761    77051.924    59204.294    16579.269       24.517        7.642      580.633      143.051        0.061      349.921       30.701      858.108
07/02/2014  19:08:00     -446.059      -87.378        0.937      281.420      144.304       99.130    79197.332    20823.750     9826.851       15.821        5.492      454.536      118.363        0.068      349.930       30.717      858.110
07/02/2014  19:09:00     -309.935      -62.652       11.640      178.916      198.841      103.115    32010.774    39537.705    10632.642        9.114        4.109      316.204      101.878        0.104      349.960       30.771      858.136
07/02/2014  19:10:00     -414.457       -2.270      -23.632      166.010      142.948       77.224    27559.297    20434.267     5963.573       11.314        2.698      414.463       66.409        0.026      349.933       30.723      858.157
07/02/2014  19:11:00     -483.287     -101.946      -20.112      259.307      165.564       87.821    67240.128    27411.550     7712.587       17.335        5.118      493.922      114.636        0.054      349.853       30.583      858.116
07/02/2014  19:12:00     -530.138     -145.098      -30.108      273.100      165.686      100.499    74583.849    27451.969    10100.098       20.755        5.607      549.636      113.373        0.043      349.812       30.512      858.125
07/02/2014  19:13:00     -575.458     -110.365      -17.309      212.484      186.567       98.449    45149.238    34807.250     9692.146       21.663        4.482      585.946       99.727        0.029      349.754       30.410      858.141
07/02/2014  19:14:00     -367.518     -180.691      -11.544      235.515      185.346       99.405    55467.452    34352.997     9881.350       13.376        4.985      409.535      122.045        0.089      349.704       30.323      858.178
07/02/2014  19:15:00     -436.078     -140.484      -16.276      308.210      175.545       75.872    94993.276    30815.987     5756.543       17.084        6.578      458.148      100.316        0.048      349.689       30.297      858.210
07/02/2014  19:16:00     -436.034      -52.472      -18.307      197.589      163.592       78.976    39041.336    26762.453     6237.214       13.262        3.602      439.180       89.028        0.041      349.660       30.248      858.258
07/02/2014  19:17:00     -433.252     -131.614      -17.842      270.432      208.172       90.849    73133.621    43335.540     8253.556       16.501        6.236      452.802      110.826        0.060      349.639       30.210      858.236
07/02/2014  19:18:00     -298.037      114.931       -4.926      189.948      165.110       98.259    36080.100    27261.305     9654.928        8.752        3.650      319.429       92.918        0.085      349.626       30.189      858.247
07/02/2014  19:19:00     -496.993      -76.280      -26.528      201.851      152.202       95.679    40743.719    23165.406     9154.477       16.328        3.653      502.812      102.794        0.042      349.594       30.132      858.289
07/02/2014  19:20:00     -467.098       -1.025      -29.355      268.462      202.656       86.575    72071.844    41069.467     7495.307       16.982        6.032      467.099      111.758        0.057      349.578       30.106      858.295
07/02/2014  19:21:00     -557.999      -21.230      -40.945      206.935      209.471       91.334    42821.980    43878.060     8341.850       20.425        4.752      558.402       91.929        0.027      349.574       30.099      858.277
07/02/2014  19:22:00     -492.231      -49.135      -20.982      195.674      138.403       84.305    38288.160    19155.374     7107.331       15.484        3.228      494.677       98.514        0.040      349.555       30.065      858.323
07/02/2014  19:23:00     -400.096      -83.023      -33.184      126.771      134.427       72.271    16070.826    18070.486     5223.054       10.371        1.968      408.619       67.352        0.027      349.561       30.077      858.306
07/02/2014  19:24:00     -333.743     -131.860       -8.603      151.341      133.674       73.406    22903.983    17868.655     5388.441        8.750        2.308      358.847       84.507        0.055      349.545       30.051      858.302
07/02/2014  19:25:00     -519.511     -205.161      -28.986      180.391      169.267       92.832    32540.854    28651.219     8617.715       19.130        3.490      558.554      103.973        0.035      349.554       30.063      858.299
07/02/2014  19:26:00     -372.133     -158.315      -12.005      155.423      125.180       83.831    24156.233    15670.101     7027.706       10.526        2.343      404.409       79.390        0.039      349.552       30.061      858.279
07/02/2014  19:27:00     -424.992     -139.415      -34.711      195.157      137.453       69.055    38086.093    18893.313     4768.608       13.149        3.087      447.275       70.829        0.025      349.574       30.099      858.278
07/02/2014  19:28:00     -556.784     -112.181      -23.509      278.205      239.390       93.548    77398.222    57307.397     8751.308       23.328        7.173      567.973      107.125        0.036      349.555       30.066      858.274
07/02/2014  19:29:00     -491.347      -46.888      -19.816      199.512      174.120       90.856    39805.030    30317.620     8254.807       16.118        3.919      493.579       80.444        0.027      349.581       30.113      858.281
07/02/2014  19:30:00     -504.584      -31.688      -31.875      229.123      217.627       80.397    52497.288    47361.359     6463.677       18.146        5.316      505.578       98.289        0.038      349.572       30.095      858.289
07/02/2014  19:31:00     -290.320      -30.187      -18.582      226.503      165.312       94.260    51303.664    27328.169     8884.920        8.651        4.376      291.885      118.569        0.165      349.585       30.118      858.275
07/02/2014  19:32:00     -489.420     -101.345      -16.788      217.442      137.619       85.797    47281.169    18938.997     7361.194       16.182        3.679      499.802      104.779        0.044      349.528       30.018      858.302
07/02/2014  19:33:00     -411.458       17.009      -22.045      190.057      144.570       81.934    36121.485    20900.486     6713.167       11.689        3.187      411.810       73.941        0.032      349.518       29.999      858.299
07/02/2014  19:34:00     -551.059      -60.884      -21.003      257.809      201.677      120.105    66465.264    40673.675    14425.108       21.467        6.078      554.412      130.033        0.055      349.470       29.918      858.292
07/02/2014  19:35:00     -472.640     -160.700       -9.592      266.238      184.940      102.374    70882.811    34202.831    10480.460       18.242        5.778      499.213      129.455        0.067      349.437       29.859      858.288
07/02/2014  19:36:00     -481.545     -145.409      -12.126      191.589      142.344       78.186    36706.526    20261.937     6113.057       15.812        3.154      503.020       74.986        0.022      349.433       29.853      858.329
07/02/2014  19:37:00     -615.729       77.452      -61.531      147.158      148.938       75.369    21655.504    22182.494     5680.513       21.920        2.476      620.581       40.894        0.004      349.419       29.829      858.363
07/02/2014  19:38:00     -476.525      -27.287      -46.785      248.901      136.646       99.163    61951.750    18672.234     9833.340       16.022        4.523      477.305      114.815        0.058      349.386       29.771      858.370
07/02/2014  19:39:00     -280.331      -96.927        2.588      173.951      148.097       85.736    30258.855    21932.779     7350.585        7.375        2.977      296.615       85.305        0.083      349.365       29.734      858.431
07/02/2014  19:40:00     -373.079     -159.647       -8.732      192.480      154.911       87.248    37048.517    23997.494     7612.135       11.669        3.433      405.802       88.519        0.048      349.376       29.754      858.434
07/02/2014  19:41:00     -502.108     -101.154      -51.120      162.827      190.678       94.126    26512.637    36358.277     8859.656       16.833        3.587      512.196       78.943        0.024      349.378       29.758      858.444
07/02/2014  19:42:00     -597.843     -103.849      -38.435      194.221      219.901       97.392    37721.638    48356.262     9485.114       23.260        4.778      606.795       82.634        0.019      349.375       29.752      858.431
07/02/2014  19:43:00     -448.656      -66.223      -30.259      198.154      167.042       78.838    39265.031    27902.992     6215.431       13.998        3.669      453.517       92.017        0.041      349.397       29.790      858.425
07/02/2014  19:44:00     -365.078      -92.919        4.024      260.610      147.746       98.315    67917.670    21828.793     9665.904       12.066        4.971      376.718      130.101        0.119      349.358       29.723      858.456
07/02/2014  19:45:00     -561.854      -77.575      -23.560      221.586      185.971       91.114    49100.326    34585.158     8301.685       20.710        4.599      567.184       97.623        0.030      349.359       29.723      858.489
07/02/2014  19:46:00     -261.145      -69.432      -12.410      206.155      145.160       82.556    42500.041    21071.459     6815.497        7.177        3.519      270.217       83.606        0.096      349.343       29.698      858.532
07/02/2014  19:47:00     -347.513     -123.516      -14.743      241.329      126.084       76.342    58239.717    15897.275     5828.074       10.809        3.998      368.811       94.588        0.066      349.349       29.708      858.561
07/02/2014  19:48:00     -597.043     -116.659      -42.309      234.532      172.301       83.624    55005.333    29687.727     6992.987       23.176        4.584      608.333      108.209        0.032      349.305       29.634      858.582
07/02/2014  19:49:00     -377.771      -46.731       -0.193      162.812      139.501       75.596    26507.848    19460.667     5714.776        9.828        2.584      380.650       79.167        0.043      349.318       29.654      858.600
07/02/2014  19:50:00     -202.423      -23.229        4.544      144.030      115.730       68.955    20744.532    13393.504     4754.747        4.021        1.945      203.751       72.116        0.125      349.299       29.622      858.650
07/02/2014  19:51:00     -290.492      -45.981      -18.671      181.180      125.246       67.013    32826.255    15686.471     4490.773        6.992        2.650      294.109       85.733        0.085      349.315       29.651      858.669
07/02/2014  19:52:00     -455.256      -21.983      -42.865      147.109      165.109       77.366    21641.101    27261.094     5985.565       13.222        2.744      455.787       71.101        0.024      349.263       29.558      858.694
07/02/2014  19:53:00     -282.562     -120.000       -5.725      176.028      117.233       69.287    30985.709    13743.510     4800.731        7.189        2.476      306.987       80.126        0.068      349.230       29.503      858.717
07/02/2014  19:54:00     -209.399       30.812      -17.434      140.702       86.331       45.687    19797.049     7453.116     2087.296        3.721        1.467      211.654       40.029        0.036      349.231       29.505      858.761
07/02/2014  19:55:00     -167.451        6.561      -22.748      215.448      101.169       53.487    46417.892    10235.179     2860.897        4.405        2.976      167.579       77.683        0.215      349.141       29.351      858.770
07/02/2014  19:56:00     -211.197       36.408      -16.462      121.747      127.900       62.512    14822.398    16358.295     3907.716        4.064        1.754      214.312       65.312        0.093      349.094       29.266      858.745
07/02/2014  19:57:00      -85.972       18.360       12.883       99.612       67.788       55.810     9922.552     4595.196     3114.792        1.276        0.882       87.911       55.379        0.397      349.048       29.188      858.762
07/02/2014  19:58:00     -171.973      -55.910       -8.935      118.582      104.241       50.063    14061.638    10866.231     2506.341        3.010        1.372      180.833       58.367        0.104      349.088       29.257      858.806
07/02/2014  19:59:00     -176.685     -104.840       21.035      207.115      132.948       96.539    42896.757    17675.181     9319.732        5.626        3.495      205.448      102.346        0.248      349.034       29.162      858.798
07/02/2014  20:00:00     -315.901     -186.368        4.661      206.787      151.033       85.762    42760.677    22810.986     7355.051       10.373        3.646      366.778       91.685        0.062      349.047       29.184      858.807
07/02/2014  20:01:00     -610.415     -166.894      -28.751      281.022      171.902       87.692    78973.267    29550.464     7689.912       25.873        5.811      632.819      114.894        0.033      349.015       29.131      858.841
07/02/2014  20:02:00     -101.141       -6.447       46.907      126.416      103.502       85.732    15981.012    10712.612     7350.060        2.325        1.702      101.346       79.627        0.617      348.966       29.046      858.844
07/02/2014  20:03:00     -442.066      -58.939      -30.055      253.250      173.557       89.091    64135.604    30122.029     7937.248       15.098        5.110      445.978      102.376        0.053      348.993       29.091      858.874
07/02/2014  20:04:00     -350.947      -73.879      -11.468      159.270      131.549       82.800    25366.796    17305.051     6855.790        8.913        2.476      358.639       90.232        0.063      348.959       29.033      858.910
07/02/2014  20:05:00     -425.103      -75.060      -19.789      200.594      125.199       76.353    40237.859    15674.863     5829.735       12.423        3.087      431.679       88.807        0.042      348.947       29.012      858.933
07/02/2014  20:06:00     -320.991      -48.984      -16.318      186.360      139.259       64.349    34730.189    19393.181     4140.775        8.197        2.913      324.707       67.378        0.043      348.932       28.984      858.971
07/02/2014  20:07:00     -198.074      -41.694      -10.162      102.190      114.503       62.038    10442.827    13110.992     3848.667        3.423        1.370      202.415       63.468        0.098      348.894       28.919      858.985
07/02/2014  20:08:00     -303.344     -136.037      -18.427      128.810      124.736       68.957    16591.951    15559.121     4755.011        7.388        1.845      332.451       64.575        0.038      348.875       28.886      859.013
07/02/2014  20:09:00     -348.702      -47.183      -21.292      152.553      150.527       65.736    23272.376    22658.304     4321.225        8.725        2.513      351.880       61.638        0.031      348.835       28.817      859.037
07/02/2014  20:10:00     -360.804      -30.850       -8.598      200.828      139.368       65.284    40331.978    19423.362     4261.969        9.760        3.201      362.121       78.554        0.047      348.830       28.809      859.061
07/02/2014  20:11:00     -307.678      -42.164       -1.311      206.581      113.863       87.290    42675.843    12964.806     7619.537        7.984        3.163      310.554      103.210        0.110      348.817       28.786      859.057
07/02/2014  20:12:00     -257.535       15.311       -4.468      161.954       87.689       53.098    26229.256     7689.331     2819.450        5.165        1.837      257.990       59.718        0.054      348.782       28.726      859.058
07/02/2014  20:13:00     -163.492      -78.981       -2.073      102.985       82.135       41.072    10605.995     6746.130     1686.927        2.600        0.952      181.570       48.280        0.071      348.767       28.701      859.066
07/02/2014  20:14:00     -124.970     -141.501       -0.053      158.745      131.462       89.239    25200.062    17282.171     7963.520        4.303        2.522      188.785       88.499        0.220      348.765       28.697      859.066
07/02/2014  20:15:00     -221.590      -14.489       -8.922      142.265      110.738       61.421    20239.222    12262.846     3772.537        4.283        1.814      222.063       67.870        0.093      348.785       28.732      859.062
07/02/2014  20:16:00     -527.743      -25.300      -33.275      149.638      153.335       75.542    22391.398    23511.612     5706.569       16.593        2.580      528.350       66.281        0.016      348.776       28.715      859.067
07/02/2014  20:17:00     -266.984      -14.805       11.969      169.427      131.010       74.506    28705.661    17163.565     5551.172        6.152        2.571      267.394       75.214        0.079      348.715       28.610      859.081
07/02/2014  20:18:00     -258.457     -101.520       -2.857      110.015       86.548       50.891    12103.211     7490.472     2589.884        4.965        1.109      277.680       44.743        0.026      348.753       28.674      859.098
07/02/2014  20:19:00     -472.202      -84.269      -15.669      183.979      133.134       84.161    33848.204    17724.747     7083.092       14.448        2.933      479.662       87.623        0.033      348.701       28.588      859.084
07/02/2014  20:20:00     -374.808     -242.872       -6.287      198.678      184.052       92.728    39472.804    33874.967     8598.558       14.071        4.097      446.618      104.776        0.055      348.718       28.613      859.082
07/02/2014  20:21:00     -368.478     -171.209       11.574      214.349      153.669       84.029    45945.681    23614.032     7060.796       12.091        3.831      406.311      102.560        0.064      348.697       28.578      859.075
07/02/2014  20:22:00     -340.965     -134.848       -3.360      231.681      203.427       98.608    53676.195    41382.420     9723.619       11.960        5.239      366.662      114.749        0.098      348.630       28.465      859.090
07/02/2014  20:23:00     -422.704     -113.988       -3.962      201.411      165.036       91.864    40566.580    27236.875     8439.001       13.395        3.812      437.803      106.103        0.059      348.667       28.526      859.112
07/02/2014  20:24:00     -236.743      -60.453        2.798      183.257      124.701       81.595    33583.265    15550.344     6657.736        5.774        2.790      244.340       84.994        0.121      348.650       28.499      859.123
07/02/2014  20:25:00     -332.671     -188.674       -7.374      162.250      136.534       73.821    26325.175    18641.479     5449.597        9.836        2.521      382.450       56.470        0.022      348.670       28.532      859.126
07/02/2014  20:26:00     -293.355      -91.868       -7.909      131.923      151.752       71.937    17403.719    23028.570     5174.953        7.008        2.280      307.403       63.826        0.043      348.628       28.460      859.152
07/02/2014  20:27:00     -356.770     -120.999      -17.907      179.359      161.195       91.972    32169.731    25983.816     8458.850       10.442        3.331      376.730       83.625        0.049      348.620       28.444      859.137
07/02/2014  20:28:00     -308.201      -93.926        0.352      146.085      134.893       82.069    21340.867    18196.142     6735.331        7.503        2.314      322.196       75.664        0.055      348.566       28.352      859.117
07/02/2014  20:29:00     -455.936     -178.667      -26.124      226.693      163.557       86.835    51389.891    26750.761     7540.295       16.307        4.284      489.693       83.876        0.029      348.614       28.435      859.048
07/02/2014  20:30:00     -506.402     -103.757      -38.079      217.889      198.859       97.050    47475.640    39544.955     9418.776       18.253        4.822      516.922      114.054        0.049      348.569       28.357      858.996
07/02/2014  20:31:00     -641.768     -156.543      -27.125      248.019      207.532      106.608    61513.252    43069.426    11365.218       27.651        5.797      660.585      116.483        0.031      348.556       28.335      858.984
07/02/2014  20:32:00     -452.095      -82.663       -5.967      224.573      164.197       89.267    50433.230    26960.743     7968.556       14.830        4.268      459.590      100.292        0.048      348.535       28.298      858.991
07/02/2014  20:33:00     -492.844     -182.620      -30.977      162.253      183.527       82.621    26326.141    33682.206     6826.307       17.201        3.342      525.590       72.428        0.019      348.537       28.301      859.025
07/02/2014  20:34:00     -424.639      -62.288       -3.304      226.497      159.669      104.996    51300.905    25494.122    11024.100       13.600        4.391      429.183      106.539        0.062      348.514       28.262      859.002
07/02/2014  20:35:00     -443.927     -115.765       -4.898      210.738      178.439       88.542    44410.575    31840.493     7839.630       14.728        4.205      458.774       96.026        0.044      348.479       28.202      858.990
07/02/2014  20:36:00     -610.826      -70.121      -17.709      273.229      174.674      105.999    74654.120    30511.026    11235.868       24.735        5.820      614.838      126.778        0.043      348.503       28.245      858.934
07/02/2014  20:37:00     -434.919     -101.392      -21.502      208.524      143.865       89.172    43482.364    20697.088     7951.704       13.600        3.607      446.581       98.437        0.049      348.467       28.181      858.902
07/02/2014  20:38:00     -639.738     -172.133      -33.396      224.567      179.704       95.884    50430.356    32293.509     9193.755       26.595        4.596      662.491      109.591        0.027      348.457       28.163      858.854
07/02/2014  20:39:00     -666.760     -100.538      -45.384      255.904      226.768       87.019    65486.614    51423.878     7572.284       29.059        6.224      674.297       96.806        0.021      348.441       28.136      858.859
07/02/2014  20:40:00     -638.679     -105.575      -33.427      282.835      173.397      100.234    79995.490    30066.683    10046.924       27.012        6.005      647.347      118.924        0.034      348.437       28.127      858.870
07/02/2014  20:41:00     -441.722     -142.114      -20.260      190.758      177.797       97.754    36388.666    31611.767     9555.834       14.663        3.878      464.020       87.465        0.036      348.425       28.108      858.897
07/02/2014  20:42:00     -476.993      -30.096      -29.076      318.836      175.469      115.886   101656.264    30789.349    13429.568       18.755        7.294      477.941      153.800        0.104      348.417       28.096      858.918
07/02/2014  20:43:00     -490.382      -93.904       -6.653      323.274      182.375      112.935   104505.831    33260.741    12754.246       19.990        7.526      499.292      137.121        0.075      348.402       28.069      858.929
07/02/2014  20:44:00     -596.408     -123.705      -19.119      276.133      185.125      107.442    76249.539    34271.426    11543.694       24.670        6.103      609.102      117.329        0.037      348.417       28.095      858.917
07/02/2014  20:45:00     -459.113     -126.288       -0.710      282.522      211.721      118.204    79818.414    44825.895    13972.296       18.265        6.931      476.166      139.560        0.086      348.387       28.041      858.912
07/02/2014  20:46:00     -643.299      -81.202      -51.251      204.045      191.523       95.491    41634.454    36681.162     9118.586       25.523        4.372      648.404      104.370        0.026      348.407       28.076      858.910
07/02/2014  20:47:00     -604.442      -70.590      -47.599      272.007      231.031      110.372    73987.857    53375.195    12182.024       25.605        6.977      608.550      126.039        0.043      348.383       28.035      858.943
07/02/2014  20:48:00     -557.836     -103.435      -37.081      207.994      195.301      102.839    43261.573    38142.495    10575.892       20.760        4.599      567.344       94.345        0.028      348.364       28.003      858.983
07/02/2014  20:49:00     -525.380     -105.035      -18.208      303.004      187.360      106.156    91811.526    35103.653    11269.152       21.276        6.909      535.777      131.823        0.061      348.349       27.976      859.024
07/02/2014  20:50:00     -643.445       10.748      -42.192      284.295      191.909      113.724    80823.931    36829.166    12933.042       27.323        6.529      643.534      128.035        0.040      348.335       27.952      859.038
07/02/2014  20:51:00     -587.924     -199.134      -17.820      324.934      190.663      117.456   105581.803    36352.197    13795.975       27.065        7.786      620.732      144.476        0.054      348.332       27.945      859.055
07/02/2014  20:52:00     -390.661     -129.993       -4.298      306.509      184.230      108.663    93948.011    33940.605    11807.573       15.459        6.985      411.721      137.202        0.111      348.321       27.927      859.112
07/02/2014  20:53:00     -425.712       16.548      -17.272      326.193      186.863      104.080   106401.837    34917.831    10832.747       16.695        7.608      426.033      145.369        0.116      348.309       27.907      859.179
07/02/2014  20:54:00     -487.141     -181.417      -26.198      229.092      181.154      106.032    52483.136    32816.762    11242.782       18.371        4.827      519.825      121.185        0.054      348.321       27.929      859.230
07/02/2014  20:55:00     -235.107      -94.107       13.246      192.244      147.152       90.413    36957.907    21653.786     8174.543        6.554        3.339      253.242       90.717        0.128      348.314       27.918      859.285
07/02/2014  20:56:00     -377.352      -67.366      -17.664      184.406      125.139       76.394    34005.670    15659.781     5836.033       10.136        2.775      383.318       75.417        0.039      348.277       27.851      859.322
07/02/2014  20:57:00     -432.383     -193.044      -11.720      263.917      213.258       89.121    69652.400    45478.796     7942.573       17.370        6.154      473.519      124.463        0.069      348.283       27.862      859.347
07/02/2014  20:58:00     -219.599     -197.869       -8.846      224.270      161.682       97.927    50296.864    26141.087     9589.705        8.673        4.301      295.594      121.439        0.169      348.233       27.777      859.349
07/02/2014  20:59:00     -259.837      -74.331        3.137      218.951      128.764       86.724    47939.548    16580.283     7521.085        7.253        3.602      270.260       99.082        0.134      348.215       27.744      859.423
07/02/2014  21:00:00     -353.481     -197.389      -18.912      163.610      139.809       79.576    26768.226    19546.470     6332.339       10.845        2.632      404.859       87.862        0.047      348.230       27.771      859.408
07/02/2014  21:01:00     -600.548       88.669      -49.254      244.678      178.403       80.901    59867.206    31827.714     6544.930       23.458        4.912      607.058       96.429        0.025      348.235       27.780      859.392
07/02/2014  21:02:00     -314.820      -45.931      -19.769      182.196      107.865       75.643    33195.220    11634.951     5721.793        7.607        2.528      318.153       83.517        0.069      348.181       27.686      859.376
07/02/2014  21:03:00     -527.692     -140.348      -23.904      231.518      149.511       85.893    53600.644    22353.543     7377.539       19.102        4.167      546.037      102.734        0.035      348.187       27.696      859.374
07/02/2014  21:04:00     -337.600     -164.660        9.117      196.588      176.618       96.866    38646.933    31193.920     9383.046       11.018        3.961      375.615       92.709        0.061      348.138       27.613      859.384
07/02/2014  21:05:00     -273.206      -89.804       -7.958      171.326      123.436       81.767    29352.533    15236.500     6685.894        6.701        2.564      287.587       88.669        0.095      348.131       27.601      859.395
07/02/2014  21:06:00     -331.795     -125.576      -10.891      270.818      173.129      107.528    73342.412    29973.520    11562.215       12.041        5.744      354.764      129.896        0.134      348.150       27.632      859.365
07/02/2014  21:07:00     -374.397     -182.690       -3.746      237.376      169.047      101.396    56347.449    28576.834    10281.059       13.437        4.760      416.591      117.123        0.079      348.136       27.608      859.387
07/02/2014  21:08:00     -542.101     -164.357      -36.091      274.721      197.943       96.807    75471.647    39181.381     9371.573       22.309        6.201      566.468      107.841        0.036      348.169       27.666      859.423
07/02/2014  21:09:00     -522.419      -84.159      -36.747      268.242      198.577       98.561    71953.556    39432.731     9714.290       20.121        6.055      529.155      113.534        0.046      348.168       27.663      859.496
07/02/2014  21:10:00     -469.947     -146.782      -20.258      221.544      186.877       98.844    49081.925    34922.959     9770.134       16.827        4.689      492.337      113.758        0.053      348.138       27.612      859.518
07/02/2014  21:11:00     -322.210      -17.818       -2.764      203.173      138.420       94.267    41279.292    19160.088     8886.208        8.672        3.466      322.703      102.045        0.100      348.114       27.570      859.519
07/02/2014  21:12:00     -572.693      -38.664      -40.564      349.300      196.992      116.701   122010.340    38806.039    13619.180       25.275        8.722      573.996      152.687        0.071      348.102       27.547      859.526
07/02/2014  21:13:00     -563.508      -46.933      -46.013      218.616      145.518       93.690    47792.912    21175.466     8777.824       19.979        3.887      565.459      105.699        0.035      348.118       27.576      859.553
07/02/2014  21:14:00     -412.382     -140.458      -24.186      225.317      200.672       96.299    50767.711    40269.381     9273.520       14.532        5.016      435.646      101.272        0.054      348.114       27.570      859.528
07/02/2014  21:15:00     -484.240     -177.961       -5.363      263.790      215.251      103.485    69585.107    46332.816    10709.161       19.639        6.331      515.906      130.413        0.064      348.088       27.524      859.567
07/02/2014  21:16:00     -419.540      -54.719        2.589      225.124      148.734       95.869    50680.778    22121.921     9190.945       13.049        4.100      423.093      115.703        0.075      348.075       27.503      859.620
07/02/2014  21:17:00     -403.440      -96.757      -34.304      151.975      118.781       65.831    23096.267    14108.978     4333.727       10.741        2.077      414.880       68.439        0.027      348.091       27.529      859.655
07/02/2014  21:18:00     -396.396      -62.897      -14.207      161.790      132.931       77.888    26175.972    17670.557     6066.488       10.559        2.496      401.355       77.594        0.037      348.046       27.452      859.679
07/02/2014  21:19:00     -299.416     -125.270      -14.067      198.923      151.841       84.719    39570.418    23055.760     7177.341        8.766        3.490      324.565      100.340        0.096      348.038       27.438      859.708
07/02/2014  21:20:00     -182.740      -97.294       -5.092      200.642      135.603       79.095    40257.090    18388.184     6256.018        5.388        3.245      207.027       68.630        0.110      348.006       27.384      859.755
07/02/2014  21:21:00     -418.571      -67.596      -28.556      186.195      153.906       90.984    34668.707    23687.031     8278.105       12.360        3.332      423.994       83.491        0.039      348.024       27.415      859.816
07/02/2014  21:22:00     -448.677      -62.715      -15.267      192.004      171.232       93.075    36865.353    29320.343     8662.958       14.015        3.742      453.039      103.255        0.052      348.006       27.384      859.840
07/02/2014  21:23:00     -286.792      -95.255       -8.668      156.162      104.097       73.300    24386.664    10836.286     5372.908        6.599        2.030      302.197       83.363        0.076      347.979       27.338      859.846
07/02/2014  21:24:00     -386.523      -70.345       -8.246      183.346      157.557       76.249    33615.837    24824.304     5813.900       10.932        3.213      392.873       82.918        0.045      347.938       27.266      859.814
07/02/2014  21:25:00     -486.366      -72.560      -23.424      297.061      207.206      110.769    88245.048    42934.430    12269.811       19.288        7.172      491.749      137.213        0.078      347.955       27.295      859.817
07/02/2014  21:26:00     -363.867     -135.863      -24.234      195.041      136.865       82.772    38041.145    18732.107     6851.163       10.752        3.181      388.405      102.249        0.069      347.985       27.348      859.844
07/02/2014  21:27:00     -373.175      -49.603      -24.279      161.358      131.896       80.964    26036.526    17396.674     6555.154        9.614        2.499      376.457       72.677        0.037      347.974       27.328      859.840
07/02/2014  21:28:00     -312.391      -39.328        4.507      179.500      159.105       82.804    32220.428    25314.505     6856.512        8.176        3.220      314.857       90.944        0.083      347.911       27.221      859.870
07/02/2014  21:29:00     -570.875     -123.854      -19.928      284.795      196.068      100.444    81108.090    38442.493    10089.000       23.562        6.482      584.156      134.971        0.053      347.993       27.361      859.886
07/02/2014  21:30:00     -491.864      -18.926      -32.400      190.624      167.194       88.725    36337.604    27953.714     7872.195       15.774        3.608      492.228       97.584        0.039      347.974       27.329      859.923
07/02/2014  21:31:00     -371.161      -41.118      -14.428      158.991      132.697       83.635    25278.163    17608.437     6994.828        9.476        2.494      373.432       80.543        0.047      347.934       27.260      859.940
07/02/2014  21:32:00     -576.811      -75.310      -19.726      192.054      185.133       92.084    36884.690    34274.409     8479.482       20.919        3.982      581.707       95.416        0.027      347.952       27.291      859.939
07/02/2014  21:33:00     -512.645      -20.551      -38.150      160.509      137.990       78.005    25763.103    19041.217     6084.792       15.778        2.544      513.057       71.566        0.019      347.943       27.275      859.968
07/02/2014  21:34:00     -231.176      -41.490      -17.635      125.815      109.146       63.919    15829.310    11912.766     4085.662        4.365        1.591      234.869       55.186        0.055      347.890       27.183      859.967
07/02/2014  21:35:00     -305.582      -75.936       -4.309      204.518      125.284       77.651    41827.733    15695.959     6029.624        8.135        3.178      314.876       74.742        0.056      347.872       27.152      859.983
07/02/2014  21:36:00     -411.267       31.308      -27.892      168.680      161.476       66.760    28452.972    26074.534     4456.855       11.493        2.949      412.457       56.773        0.019      347.894       27.190      859.988
07/02/2014  21:37:00     -450.871     -116.327      -35.583      143.663      176.978       82.326    20639.053    31321.355     6777.563       13.840        2.937      465.636       71.775        0.024      347.878       27.162      859.994
07/02/2014  21:38:00     -348.553      -48.633      -18.143      180.962      123.486       73.552    32747.192    15248.883     5409.952        8.879        2.670      351.930       74.149        0.044      347.854       27.122      860.068
07/02/2014  21:39:00     -256.607      -12.737        2.912      132.176      126.565       68.631    17470.622    16018.668     4710.229        5.210        1.910      256.923       70.872        0.076      347.838       27.092      860.076
07/02/2014  21:40:00     -357.708      -17.951      -24.018      161.603      147.396       69.502    26115.555    21725.590     4830.554        9.075        2.634      358.158       73.384        0.042      347.857       27.125      860.066
07/02/2014  21:41:00     -343.386      -83.460       -3.386      189.509      118.575       71.382    35913.761    14060.045     5095.366        8.997        2.753      353.383       74.405        0.044      347.845       27.106      860.080
07/02/2014  21:42:00     -340.395      -43.435      -14.911      137.785      108.209       66.768    18984.679    11709.292     4457.969        7.656        1.758      343.155       73.045        0.045      347.849       27.111      860.106
07/02/2014  21:43:00     -441.323     -140.356      -19.385      227.946      122.947       79.574    51959.528    15115.932     6331.948       14.411        3.670      463.104       88.349        0.036      347.861       27.131      860.113
07/02/2014  21:44:00     -432.806      -88.068      -16.304      213.817      165.617       82.973    45717.872    27428.842     6884.571       13.767        4.002      441.676       98.914        0.050      347.847       27.108      860.126
07/02/2014  21:45:00     -431.535     -130.632       -2.749      227.420      167.099       85.135    51720.067    27922.170     7247.886       14.508        4.345      450.874       94.296        0.044      347.818       27.059      860.146
07/02/2014  21:46:00     -395.157        2.290       -8.283      133.958      178.429       69.652    17944.772    31836.746     4851.424       10.542        2.732      395.164       59.181        0.022      347.801       27.029      860.181
07/02/2014  21:47:00     -336.923      -74.019       -3.351      219.748      169.137       85.676    48289.345    28607.342     7340.404       10.161        4.212      344.958       99.738        0.084      347.756       26.952      860.191
07/02/2014  21:48:00     -456.085     -145.368      -10.855      233.602      134.993       73.891    54570.005    18223.211     5459.910       15.374        3.913      478.691       90.666        0.036      347.797       27.021      860.235
07/02/2014  21:49:00     -256.577      -58.844      -13.987      206.175      137.228       73.755    42508.007    18831.446     5439.730        6.812        3.339      263.238       96.047        0.133      347.744       26.932      860.248
07/02/2014  21:50:00     -324.916      -60.652      -13.028      158.906      104.361       68.028    25251.002    10891.229     4627.857        7.509        2.039      330.528       80.968        0.060      347.769       26.975      860.253
07/02/2014  21:51:00     -380.244        2.605      -15.022      159.559      136.881       67.698    25459.097    18736.498     4582.993        9.679        2.439      380.253       78.287        0.042      347.745       26.935      860.256
07/02/2014  21:52:00     -413.034      -72.914      -24.110      186.179      109.249       71.832    34662.716    11935.393     5159.825       11.412        2.588      419.421       82.291        0.038      347.708       26.869      860.257
07/02/2014  21:53:00     -416.900       17.086      -27.502      178.182      145.341       79.644    31748.973    21124.104     6343.180       11.703        2.961      417.250       84.517        0.041      347.750       26.941      860.259
07/02/2014  21:54:00     -351.111      -86.723      -23.594      142.525      125.283       79.066    20313.464    15695.716     6251.458        8.680        2.113      361.663       72.372        0.040      347.727       26.902      860.266
07/02/2014  21:55:00     -323.238      -64.430      -18.476      120.263      112.033       63.932    14463.181    12551.487     4087.255        7.003        1.555      329.597       61.284        0.035      347.665       26.795      860.292
07/02/2014  21:56:00     -410.349     -123.539      -13.076      196.369      170.165       75.653    38560.845    28956.119     5723.386       12.852        3.662      428.542       88.026        0.042      347.660       26.786      860.311
07/02/2014  21:57:00     -364.739      -68.612      -23.236      140.965      137.318       70.329    19871.158    18856.230     4946.214        9.097        2.184      371.137       68.546        0.034      347.666       26.796      860.335
07/02/2014  21:58:00     -397.817      -96.030      -11.535      174.493      121.641       76.364    30447.780    14796.413     5831.390       10.934        2.554      409.243       94.971        0.054      347.648       26.765      860.356
07/02/2014  21:59:00     -374.662      -92.336      -39.043      139.520       87.119       68.249    19465.700     7589.724     4657.872        9.106        1.586      385.872       57.723        0.022      347.625       26.726      860.373
07/02/2014  22:00:00     -294.190      -79.941        0.483      175.678      117.651       59.134    30862.915    13841.798     3496.802        7.056        2.410      304.857       68.487        0.050      347.598       26.681      860.403
07/02/2014  22:01:00     -344.315      -99.400      -29.082      122.031      124.830       68.011    14891.457    15582.534     4625.509        8.218        1.755      358.376       53.386        0.022      347.560       26.615      860.414
07/02/2014  22:02:00     -431.129      -74.230      -31.562      160.288      128.777       70.565    25692.372    16583.488     4979.445       11.981        2.363      437.472       81.348        0.035      347.585       26.658      860.437
07/02/2014  22:03:00     -429.345      -18.238      -40.787      166.060      146.306       64.914    27575.799    21405.529     4213.882       11.976        2.660      429.732       71.763        0.028      347.596       26.678      860.474
07/02/2014  22:04:00     -212.600      -36.909        3.299      143.900       92.662       57.660    20707.210     8586.335     3324.636        3.959        1.631      215.780       76.521        0.126      347.505       26.519      860.485
07/02/2014  22:05:00     -327.357      -78.319      -24.344      130.468      129.773       67.266    17021.794    16841.070     4524.773        7.613        1.919      336.595       62.104        0.034      347.503       26.515      860.513
07/02/2014  22:06:00     -303.519      -53.280       -0.165      125.503      112.989       62.744    15751.087    12766.405     3936.829        6.370        1.623      308.160       63.652        0.043      347.457       26.435      860.533
07/02/2014  22:07:00     -304.485      -47.448      -25.756      119.096       94.985       58.972    14183.818     9022.135     3477.678        6.115        1.334      308.160       61.024        0.039      347.415       26.362      860.553
07/02/2014  22:08:00     -271.111      -80.091        1.759      140.877      160.656       62.785    19846.296    25810.471     3941.904        6.475        2.480      282.694       66.751        0.056      347.360       26.268      860.553
07/02/2014  22:09:00     -280.097      -55.848      -19.853      121.554       92.803       59.842    14775.455     8612.392     3581.115        5.446        1.348      285.611       59.583        0.044      347.382       26.308      860.571
07/02/2014  22:10:00     -344.651      -40.810      -10.574      132.869      108.058       77.631    17654.091    11676.528     6026.501        7.795        1.768      347.058       69.999        0.041      347.350       26.253      860.562
07/02/2014  22:11:00     -304.803      -67.715      -19.298      131.252      104.226       63.794    17227.123    10863.006     4069.629        6.501        1.608      312.234       62.497        0.040      347.307       26.177      860.545
07/02/2014  22:12:00     -293.684      -86.813      -21.744      120.871      130.394       58.415    14609.782    17002.625     3412.312        6.464        1.751      306.246       49.621        0.026      347.346       26.246      860.545
07/02/2014  22:13:00     -324.553      -57.844      -28.132      168.443      139.578       62.395    28373.100    19481.911     3893.079        8.060        2.587      329.667       48.651        0.022      347.338       26.231      860.552
07/02/2014  22:14:00     -342.967      -66.507      -23.206      137.202      122.387       68.914    18824.401    14978.556     4749.081        8.056        1.928      349.356       69.869        0.040      347.300       26.167      860.558
07/02/2014  22:15:00     -297.868      -72.574      -13.942      162.277      107.115       65.864    26333.955    11473.630     4338.055        6.816        2.107      306.582       71.110        0.054      347.316       26.196      860.584
07/02/2014  22:16:00     -264.502     -118.183        6.766      160.302      142.121       69.721    25696.729    20198.238     4860.981        6.736        2.538      289.704       71.286        0.061      347.303       26.172      860.570
07/02/2014  22:17:00     -323.277      -86.064      -26.460      131.119      116.275       59.588    17192.180    13519.809     3550.739        7.343        1.713      334.537       52.787        0.025      347.302       26.169      860.580
07/02/2014  22:18:00     -293.974      -69.261      -11.615      125.557      145.319       66.397    15764.514    21117.657     4408.570        6.631        2.065      302.023       48.711        0.026      347.284       26.138      860.589
07/02/2014  22:19:00     -186.947       13.668       -7.585      120.282      147.380       63.335    14467.844    21720.942     4011.357        3.769        2.010      187.446       49.263        0.069      347.307       26.179      860.578
07/02/2014  22:20:00     -229.576      -43.135      -25.481      145.116      113.417       65.607    21058.571    12863.379     4304.324        4.671        1.911      233.593       48.168        0.043      347.351       26.254      860.568
07/02/2014  22:21:00     -250.328       60.925      -56.630      116.915      141.784       66.851    13669.202    20102.643     4469.024        5.391        1.912      257.635       36.795        0.020      347.409       26.353      860.583
07/02/2014  22:22:00     -248.175       33.121      -33.413      119.394      131.239       65.509    14254.873    17223.789     4291.425        4.978        1.789      250.375       63.843        0.065      347.414       26.361      860.593
07/02/2014  22:23:00     -298.331       80.073      -20.697      169.979      117.321       79.784    28892.872    13764.282     6365.453        7.242        2.451      308.890       73.103        0.056      347.445       26.415      860.592
07/02/2014  22:24:00     -342.857       74.551      -51.500      198.505      180.357       84.871    39404.052    32528.531     7203.065       10.244        3.957      350.868       93.979        0.072      347.418       26.369      860.606
07/02/2014  22:25:00     -261.543       56.938      -46.588      148.606      170.417       81.016    22083.753    29041.954     6563.547        6.574        2.884      267.669       91.669        0.117      347.388       26.318      860.622
07/02/2014  22:26:00     -193.912       13.589      -36.531      110.608      107.223       72.732    12234.144    11496.860     5289.886        3.407        1.451      194.388       47.583        0.060      347.365       26.278      860.643
07/02/2014  22:27:00     -198.482       -7.230      -23.531      120.660      122.567       73.958    14558.901    15022.635     5469.857        3.752        1.753      198.614       65.369        0.108      347.325       26.211      860.641
07/02/2014  22:28:00     -354.697      -86.040      -20.667      196.698      142.119       78.275    38690.219    20197.876     6126.970        9.932        3.251      364.983       77.502        0.045      347.266       26.105      860.651
07/02/2014  22:29:00     -198.469       38.039      -11.985       93.540      139.190       70.726     8749.787    19373.937     5002.213        3.705        1.656      202.082       53.248        0.069      347.224       26.035      860.656
07/02/2014  22:30:00     -154.281      -33.772       -0.854      162.219      193.946       77.775    26314.921    37614.978     6048.957        4.745        3.499      157.934       62.425        0.156      347.243       26.068      860.646
07/02/2014  22:31:00     -325.264      -84.864      -18.833      159.750      140.122       69.432    25519.933    19634.036     4820.853        8.166        2.499      336.152       47.473        0.020      347.266       26.106      860.643
07/02/2014  22:32:00     -411.922     -107.644      -24.858      180.294      137.984       74.198    32505.952    19039.606     5505.301       11.946        2.853      425.755       66.642        0.025      347.300       26.166      860.649
07/02/2014  22:33:00     -333.009     -124.304      -25.662      139.904      117.385       77.697    19573.245    13779.170     6036.814        8.319        1.969      355.452       71.702        0.041      347.290       26.148      860.659
07/02/2014  22:34:00     -454.251     -139.573      -20.464      213.203      128.299       80.746    45455.349    16460.599     6519.876       14.733        3.422      475.211       91.807        0.037      347.322       26.204      860.676
07/02/2014  22:35:00     -493.320      -80.472      -43.204      135.300      150.722       70.404    18306.015    22717.189     4956.786       14.884        2.299      499.840       52.368        0.011      347.339       26.233      860.711
07/02/2014  22:36:00     -469.082      -74.389      -49.685      157.928      133.863       82.970    24941.382    17919.254     6884.042       13.888        2.487      474.944       85.001        0.032      347.340       26.234      860.709
07/02/2014  22:37:00     -409.714      -82.038      -23.807      144.947      118.421       68.188    21009.624    14023.484     4649.625       10.742        1.984      417.847       69.602        0.028      347.293       26.153      860.727
07/02/2014  22:38:00     -330.839      -55.501      -22.567      163.165      143.405       74.651    26622.691    20564.973     5572.838        8.289        2.638      335.462       80.845        0.058      347.277       26.125      860.734
07/02/2014  22:39:00     -434.417     -107.726      -27.146      135.141      102.467       61.000    18262.979    10499.543     3721.052       11.677        1.624      447.575       52.083        0.014      347.300       26.165      860.731
07/02/2014  22:40:00     -294.332      -97.482      -20.776      134.738      118.229       65.871    18154.299    13978.205     4338.941        6.651        1.824      310.055       68.244        0.048      347.279       26.130      860.720
07/02/2014  22:41:00     -375.185     -109.159      -18.959      161.356      148.807       70.525    26035.604    22143.631     4973.815       10.309        2.658      390.742       58.259        0.022      347.322       26.203      860.711
07/02/2014  22:42:00     -433.276      -94.664      -33.729      107.653      124.015       66.398    11589.082    15379.840     4408.650       11.460        1.569      443.497       56.928        0.016      347.297       26.159      860.705
07/02/2014  22:43:00     -494.418      -54.573      -43.142      158.851      150.520       75.637    25233.717    22656.200     5720.965       15.144        2.681      497.420       71.756        0.021      347.267       26.108      860.702
07/02/2014  22:44:00     -445.683      -68.798      -24.116      167.068      135.289       75.977    27911.562    18303.098     5772.467       12.796        2.599      450.961       85.761        0.036      347.236       26.055      860.697
07/02/2014  22:45:00     -547.923      -46.987      -45.344      177.938      133.858       83.845    31661.799    17918.015     7029.938       18.054        2.830      549.934       92.578        0.028      347.281       26.132      860.710
07/02/2014  22:46:00     -416.139      -66.871      -30.149      152.201      165.674       73.211    23165.100    27447.729     5359.851       11.725        2.799      421.478       71.511        0.029      347.273       26.119      860.697
07/02/2014  22:47:00     -455.104      -72.504      -34.248      137.761      125.270       71.198    18978.127    15692.575     5069.111       12.664        1.987      460.843       68.060        0.022      347.271       26.115      860.697
07/02/2014  22:48:00     -388.126      -70.107      -24.723      162.005      127.869       78.430    26245.462    16350.381     6151.309       10.245        2.437      394.407       79.510        0.041      347.253       26.084      860.713
07/02/2014  22:49:00     -355.841      -65.834      -25.313      163.615      137.892       79.264    26769.930    19014.104     6282.860        9.182        2.603      361.880       81.958        0.051      347.229       26.042      860.710
07/02/2014  22:50:00     -532.739      -53.412      -56.122      145.633      115.836       70.784    21208.838    13417.996     5010.355       16.472        1.982      535.410       71.244        0.018      347.248       26.075      860.705
07/02/2014  22:51:00     -418.096      -28.103      -14.676      144.334      100.139       66.224    20832.295    10027.826     4385.580       10.552        1.762      419.040       65.247        0.024      347.210       26.011      860.694
07/02/2014  22:52:00     -429.562     -123.561      -20.091      107.239      154.528       63.289    11500.115    23878.830     4005.522       11.978        1.969      446.980       56.312        0.016      347.185       25.968      860.695
07/02/2014  22:53:00     -356.456      -40.021      -32.663      125.956      141.470       61.954    15864.999    20013.743     3838.355        8.472        1.986      358.695       56.879        0.025      347.166       25.935      860.699
07/02/2014  22:54:00     -366.378      -74.496      -16.341      194.668      129.067       77.094    37895.745    16658.288     5943.500       10.026        3.025      373.875       87.263        0.054      347.175       25.952      860.694
07/02/2014  22:55:00     -414.622      -50.135      -28.543      141.171      128.372       65.085    19929.360    16479.417     4236.118       10.794        2.032      417.642       67.559        0.026      347.164       25.931      860.703
07/02/2014  22:56:00     -359.886      -84.008      -20.211      168.684      118.559       64.808    28454.228    14056.348     4200.039        9.184        2.336      369.561       64.388        0.030      347.145       25.900      860.699
07/02/2014  22:57:00     -410.092     -128.044      -18.664      164.375      154.073       67.909    27018.993    23738.613     4611.674       12.014        2.768      429.617       65.917        0.024      347.177       25.953      860.696
07/02/2014  22:58:00     -405.213      -47.778      -20.728      128.907      119.399       73.449    16617.023    14256.238     5394.713       10.158        1.813      408.020       69.982        0.029      347.163       25.929      860.701
07/02/2014  22:59:00     -404.016     -129.384      -17.017      169.539      132.658       76.006    28743.476    17598.204     5776.867       11.618        2.606      424.228       80.582        0.036      347.175       25.950      860.719
07/02/2014  23:00:00     -336.394      -92.809       -6.739      163.701      119.514       72.362    26798.138    14283.691     5236.208        8.406        2.316      348.962       79.185        0.051      347.144       25.897      860.733
07/02/2014  23:01:00     -435.608      -80.572      -10.969      153.961      127.119       85.493    23703.914    16159.140     7309.112       12.176        2.359      442.996       82.210        0.034      347.197       25.988      860.747
07/02/2014  23:02:00     -371.215      -76.937       -2.365      128.501      105.522       74.176    16512.572    11134.813     5502.055        8.843        1.657      379.104       75.767        0.040      347.154       25.914      860.767
07/02/2014  23:03:00     -414.703      -93.964      -20.983      140.618      105.482       65.881    19773.298    11126.380     4340.325       10.824        1.762      425.215       62.070        0.021      347.156       25.918      860.764
07/02/2014  23:04:00     -509.788      -75.372      -22.915      160.112      135.954       73.886    25635.748    18483.439     5459.170       15.783        2.479      515.330       81.311        0.025      347.199       25.991      860.761
07/02/2014  23:05:00     -378.248     -151.886       -9.772      149.552      125.309       64.861    22365.865    15702.358     4207.004       10.425        2.114      407.604       67.551        0.027      347.197       25.990      860.754
07/02/2014  23:06:00     -357.712     -121.852      -18.860      174.226      166.531       76.780    30354.684    27732.595     5895.210       10.356        3.199      377.897       80.381        0.045      347.236       26.055      860.765
07/02/2014  23:07:00     -386.834      -59.812       -6.418      204.138      133.159       75.658    41672.472    17731.199     5724.192       10.918        3.256      391.431       93.382        0.057      347.245       26.070      860.758
07/02/2014  23:08:00     -368.576      -63.072      -16.766      140.650      130.252       61.637    19782.327    16965.575     3799.143        9.032        2.027      373.934       57.784        0.024      347.256       26.090      860.787
07/02/2014  23:09:00     -439.666      -75.392      -12.135      149.813      133.991       75.922    22443.842    17953.458     5764.224       12.264        2.308      446.083       65.492        0.022      347.251       26.082      860.796
07/02/2014  23:10:00     -346.587     -118.945       -4.282      195.801      114.547       69.838    38338.004    13120.949     4877.344        9.530        2.817      366.429       87.047        0.056      347.231       26.047      860.802
07/02/2014  23:11:00     -373.345      -67.084      -21.260      206.986      114.483       77.856    42843.162    13106.296     6061.567       10.316        3.101      379.325       93.628        0.061      347.231       26.047      860.801
07/02/2014  23:12:00     -393.425     -116.710      -11.130      231.596      111.815       65.933    53636.560    12502.607     4347.179       11.950        3.524      410.371       74.240        0.033      347.220       26.027      860.823
07/02/2014  23:13:00     -463.381      -73.360      -11.261      144.217      112.608       85.016    20798.520    12680.655     7227.782       13.046        2.035      469.153       88.293        0.035      347.227       26.039      860.830
07/02/2014  23:14:00     -304.821      -53.939      -20.016      164.825       99.170       59.215    27167.324     9834.763     3506.402        6.836        2.025      309.557       77.858        0.063      347.143       25.896      860.842
07/02/2014  23:15:00     -361.335      -84.313      -20.980      115.857       98.408       59.224    13422.791     9684.121     3507.443        8.236        1.331      371.042       54.630        0.022      347.150       25.908      860.858
07/02/2014  23:16:00     -237.910      -79.604      -10.823      142.635      103.817       59.510    20344.720    10778.021     3541.403        4.885        1.733      250.875       62.704        0.062      347.079       25.785      860.870
07/02/2014  23:17:00     -375.091      -53.726      -22.241      159.219      106.105       71.046    25350.602    11258.227     5047.554        9.286        2.083      378.919       78.611        0.043      347.093       25.809      860.883
07/02/2014  23:18:00     -426.809     -126.543      -13.784      156.922      129.803       68.449    24624.374    16848.844     4685.307       12.226        2.308      445.173       76.356        0.029      347.116       25.849      860.886
07/02/2014  23:19:00     -375.049      -76.717      -13.127      148.555      135.888       70.918    22068.497    18465.420     5029.318        9.613        2.278      382.815       75.100        0.038      347.075       25.778      860.910
07/02/2014  23:20:00     -419.160      -39.599      -27.733      135.533      102.056       67.605    18369.229    10415.496     4570.496       10.569        1.668      421.027       71.240        0.029      347.060       25.752      860.947
07/02/2014  23:21:00     -324.340      -63.676      -19.321      192.171      121.143       70.706    36929.781    14675.525     4999.369        8.311        2.830      330.532       73.545        0.050      347.045       25.727      860.970
07/02/2014  23:22:00     -341.504      -61.517       -4.304      142.833      143.516       70.644    20401.407    20596.760     4990.605        8.320        2.299      347.000       66.768        0.037      347.037       25.711      860.983
07/02/2014  23:23:00     -304.747      -78.185       -8.830      139.008      107.777       57.971    19323.320    11615.868     3360.659        6.668        1.715      314.617       67.078        0.045      346.982       25.619      861.015
07/02/2014  23:24:00     -358.077      -87.829      -21.078      130.821      105.589       50.379    17114.234    11148.977     2538.003        8.358        1.540      368.691       42.347        0.013      346.999       25.646      861.035
07/02/2014  23:25:00     -305.131      -87.044      -22.455      120.821      101.823       55.146    14597.654    10367.885     3041.050        6.459        1.400      317.304       61.224        0.037      346.931       25.531      861.049
07/02/2014  23:26:00     -316.075     -142.629      -11.726      103.921       94.364       48.197    10799.579     8904.659     2322.943        7.120        1.101      346.766       46.786        0.018      346.891       25.461      861.064
07/02/2014  23:27:00     -278.035      -59.701      -20.015      123.002      103.831       60.222    15129.487    10780.969     3626.719        5.540        1.477      284.373       63.613        0.050      346.903       25.482      861.063
07/02/2014  23:28:00     -385.049      -72.236      -20.565      123.441      112.955       63.225    15237.678    12758.870     3997.429        9.294        1.600      391.766       58.260        0.022      346.953       25.569      861.076
07/02/2014  23:29:00     -354.596     -121.162       -1.748      136.617      118.637       65.894    18664.298    14074.828     4342.071        8.875        1.854      374.725       52.173        0.019      347.057       25.747      861.091
07/02/2014  23:30:00     -279.001        4.460       -7.711      121.554       89.659       54.892    14775.291     8038.691     3013.123        5.187        1.291      279.037       49.205        0.031      347.056       25.746      861.109
07/02/2014  23:31:00     -288.976      -31.249      -16.435       87.466       95.486       52.060     7650.258     9117.630     2710.206        5.211        0.974      290.660       45.761        0.025      347.026       25.694      861.105
07/02/2014  23:32:00     -321.731        1.791      -31.729      123.181      100.392       54.867    15173.630    10078.554     3010.364        6.639        1.413      321.736       53.834        0.028      346.953       25.568      861.106
07/02/2014  23:33:00     -379.653      -80.210      -16.580      113.739       87.636       62.556    12936.599     7680.093     3913.263        8.768        1.226      388.033       55.263        0.020      346.966       25.590      861.115
07/02/2014  23:34:00     -347.785      -67.597      -11.015      148.072      111.777       71.449    21925.232    12493.990     5104.986        8.258        1.976      354.293       69.551        0.039      346.982       25.617      861.131
07/02/2014  23:35:00     -369.493      -45.510      -27.280      101.408      107.145       60.254    10283.668    11480.036     3630.490        8.236        1.270      372.286       52.454        0.020      346.989       25.629      861.146
07/02/2014  23:36:00     -445.458       -2.444      -42.319      132.388      112.149       58.358    17526.561    12577.302     3405.630       11.686        1.675      445.464       57.447        0.017      347.091       25.803      861.151
07/02/2014  23:37:00     -389.468      -81.498      -25.089      115.850       86.669       55.929    13421.254     7511.523     3128.071        9.150        1.203      397.903       53.405        0.018      347.080       25.786      861.148
07/02/2014  23:38:00     -284.559      -31.443      -25.816      105.407       97.485       52.726    11110.617     9503.309     2780.079        5.301        1.170      286.291       50.092        0.031      347.062       25.755      861.139
07/02/2014  23:39:00     -257.882      -23.844      -10.883      143.269       90.704       58.702    20526.132     8227.160     3445.942        4.969        1.610      258.982       61.146        0.056      347.039       25.716      861.136
07/02/2014  23:40:00     -265.138      -33.848      -10.108      118.621       88.391       48.829    14070.980     7812.975     2384.316        4.790        1.213      267.290       50.404        0.036      347.009       25.664      861.129
07/02/2014  23:41:00     -310.765      -74.125      -21.569      144.483       86.075       50.051    20875.422     7408.887     2505.107        6.666        1.539      319.483       48.912        0.023      346.987       25.625      861.119
07/02/2014  23:42:00     -276.530      -73.836      -15.072       91.202       77.333       50.110     8317.739     5980.410     2510.982        4.948        0.840      286.218       49.548        0.030      346.911       25.493      861.118
07/02/2014  23:43:00     -367.496      -29.869      -31.656      126.127       93.095       58.306    15907.925     8666.771     3399.576        8.246        1.399      368.708       59.977        0.026      346.887       25.454      861.133
07/02/2014  23:44:00     -299.906      -31.970      -18.462      100.884       63.730       51.992    10177.526     4061.569     2703.131        5.412        0.847      301.605       52.050        0.030      346.788       25.285      861.136
07/02/2014  23:45:00     -337.558      -42.846      -15.014      116.706       77.397       55.527    13620.313     5990.239     3083.267        6.935        1.135      340.266       54.542        0.026      346.881       25.443      861.134
07/02/2014  23:46:00     -327.058      -88.607      -25.142      124.327       74.911       49.566    15457.230     5611.683     2456.762        6.948        1.176      338.848       54.594        0.026      346.864       25.414      861.141
07/02/2014  23:47:00     -310.805      -34.376      -25.819      105.370       99.070       51.711    11102.787     9814.960     2674.026        6.102        1.180      312.700       48.747        0.024      346.874       25.431      861.149
07/02/2014  23:48:00     -300.579      -19.553      -28.303       96.372       98.735       40.808     9287.524     9748.518     1665.323        5.611        1.035      301.215       35.754        0.014      346.846       25.384      861.149
07/02/2014  23:49:00     -272.408        3.015      -11.295      131.246       99.466       56.936    17225.476     9893.473     3241.726        5.235        1.518      272.425       67.830        0.062      346.827       25.352      861.158
07/02/2014  23:50:00     -275.337      -29.522      -11.261      136.710       98.472       54.389    18689.718     9696.676     2958.135        5.407        1.567      276.915       60.993        0.049      346.873       25.431      861.153
07/02/2014  23:51:00     -276.718      -37.448      -21.297      107.664      105.031       54.367    11591.551    11031.431     2955.784        5.200        1.279      279.241       46.884        0.028      346.907       25.489      861.141
07/02/2014  23:52:00     -284.344      -84.910      -12.793       82.652       78.342       47.199     6831.339     6137.401     2227.717        5.171        0.760      296.752       48.297        0.026      346.862       25.409      861.120
07/02/2014  23:53:00     -257.410      -61.649      -10.620       89.020       81.209       48.079     7924.486     6594.971     2311.567        4.350        0.842      264.689       35.613        0.018      346.798       25.302      861.132
07/02/2014  23:54:00     -219.681      -49.270        1.231      109.480       87.509       47.134    11985.840     7657.786     2221.606        3.627        1.093      225.138       56.141        0.062      346.739       25.200      861.139
07/02/2014  23:55:00     -189.308      -38.534        1.198      104.900       94.079       48.767    11004.091     8850.897     2378.261        2.977        1.112      193.190       50.830        0.069      346.724       25.175      861.131
07/02/2014  23:56:00     -231.190      -18.605       -8.528       95.635       79.405       56.174     9146.149     6305.198     3155.561        3.623        0.930      231.938       50.640        0.048      346.767       25.249      861.117
07/02/2014  23:57:00     -253.347      -57.643       -9.869      126.635      103.361       54.527    16036.527    10683.503     2973.220        4.864        1.485      259.822       64.983        0.063      346.733       25.189      861.110
07/02/2014  23:58:00     -297.030      -42.772      -12.279      125.945       93.403       54.016    15862.220     8724.081     2917.692        5.885        1.375      300.094       56.152        0.035      346.750       25.219      861.113
07/02/2014  23:59:00     -283.645     -110.393       -7.022      132.313      112.845       64.452    17506.787    12733.998     4154.118        6.354        1.720      304.370       67.565        0.049      346.733       25.189      861.112
